[[{"header":{"parameterUnit":"m.s-1","parameterCategory":1,"la1":30.6,"la2":28.766,"lo1":-90.7593,"lo2":-88.6598,"dy":0.0162,"dx":0.0183,"nx":116,"ny":114,"refTime":"2024-03-11T18:00:00:Z","depth":0,"parameterNumber":2,"parameterNumberName":"U-component_of_WINDS"},"data":[0.0,0.0,0.0,0.0,0.0,0.0,0.0,0.0,0.0,0.0,0.0,0.0,0.0,0.0,0.0,0.0,0.0,0.0,0.0,0.0,0.0,0.0,0.0,0.0,0.0,0.0,0.0,0.0,0.0,0.0,0.0,0.0,0.0,0.0,0.0,0.0,0.0,0.0,0.0,0.0,0.0,0.0,0.0,0.0,0.0,0.0,0.0,0.0,0.0,0.0,0.0,0.0,0.0,0.0,0.0,0.0,0.0,0.0,0.0,0.0,0.0,0.0,0.0,0.0,0.0,0.0,0.0,0.0,0.0,0.0,0.0,0.0,0.0,0.0,0.0,0.0,0.0,0.0,0.0,0.0,0.0,0.0,0.0,0.0,0.0,0.0,0.0,0.0,0.0,0.0,0.0,0.0,0.0,0.0,0.0,0.0,0.0,0.0,0.0,0.0,0.0,0.0,0.0,0.0,0.0,0.0,0.0,0.0,0.0,0.0,0.0,0.0,0.0,0.0,0.0,0.0,0.0,0.0,0.0,0.0,0.0,0.0,0.0,0.0,0.0,0.0,0.0,0.0,0.0,0.0,0.0,0.0,0.0,0.0,0.0,0.0,0.0,0.0,0.0,0.0,0.0,0.0,0.0,0.0,0.0,0.0,0.0,0.0,0.0,0.0,0.0,0.0,0.0,0.0,0.0,0.0,0.0,0.0,0.0,0.0,0.0,0.0,0.0,0.0,0.0,0.0,0.0,0.0,0.0,0.0,0.0,0.0,0.0,0.0,0.0,0.0,0.0,0.0,0.0,0.0,0.0,0.0,0.0,0.0,0.0,0.0,0.0,0.0,0.0,0.0,0.0,0.0,0.0,0.0,0.0,0.0,0.0,0.0,0.0,0.0,0.0,0.0,0.0,0.0,0.0,0.0,0.0,0.0,0.0,0.0,0.0,0.0,0.0,0.0,0.0,0.0,0.0,0.0,0.0,0.0,0.0,0.0,0.0,0.0,0.0,0.0,0.0,0.0,0.0,0.0,0.0,0.0,0.0,0.0,0.0,0.0,0.0,0.0,0.0,0.0,0.0,0.0,0.0,0.0,0.0,0.0,0.0,0.0,0.0,0.0,0.0,0.0,0.0,0.0,0.0,0.0,0.0,0.0,0.0,0.0,0.0,0.0,0.0,0.0,0.0,0.0,0.0,0.0,0.0,0.0,0.0,0.0,0.0,0.0,0.0,0.0,0.0,0.0,0.0,0.0,0.0,0.0,0.0,0.0,0.0,0.0,0.0,0.0,0.0,0.0,0.0,0.0,0.0,0.0,0.0,0.0,0.0,0.0,0.0,0.0,0.0,0.0,0.0,0.0,0.0,0.0,0.0,0.0,0.0,0.0,0.0,0.0,0.0,0.0,0.0,0.0,0.0,0.0,0.0,0.0,0.0,0.0,0.0,0.0,0.0,0.0,0.0,0.0,0.0,0.0,0.0,0.0,0.0,0.0,0.0,0.0,0.0,0.0,0.0,0.0,0.0,0.0,0.0,0.0,0.0,0.0,0.0,0.0,0.0,0.0,0.0,0.0,0.0,0.0,0.0,0.0,0.0,0.0,0.0,0.0,0.0,0.0,0.0,0.0,0.0,0.0,0.0,0.0,0.0,0.0,0.0,0.0,0.0,0.0,0.0,0.0,0.0,0.0,0.0,0.0,0.0,0.0,0.0,0.0,0.0,0.0,0.0,0.0,0.0,0.0,0.0,0.0,0.0,0.0,0.0,0.0,0.0,0.0,0.0,0.0,0.0,0.0,0.0,0.0,0.0,0.0,0.0,0.0,0.0,0.0,0.0,0.0,0.0,0.0,0.0,0.0,0.0,0.0,0.0,0.0,0.0,0.0,0.0,0.0,0.0,0.0,0.0,0.0,0.0,0.0,0.0,0.0,0.0,0.0,0.0,0.0,0.0,0.0,0.0,0.0,0.0,0.0,0.0,0.0,0.0,0.0,0.0,0.0,0.0,0.0,0.0,0.0,0.0,0.0,0.0,0.0,0.0,0.0,0.0,0.0,0.0,0.0,0.0,0.0,0.0,0.0,0.0,0.0,0.0,0.0,0.0,0.0,0.0,0.0,0.0,0.0,0.0,0.0,0.0,0.0,0.0,0.0,0.0,0.0,0.0,0.0,0.0,0.0,0.0,0.0,0.0,0.0,0.0,0.0,0.0,0.0,0.0,0.0,0.0,0.0,0.0,0.0,0.0,0.0,0.0,0.0,0.0,0.0,0.0,0.0,0.0,0.0,0.0,0.0,0.0,0.0,0.0,0.0,0.0,0.0,0.0,0.0,0.0,0.0,0.0,0.0,0.0,0.0,0.0,0.0,0.0,0.0,0.0,0.0,0.0,0.0,0.0,0.0,0.0,0.0,0.0,0.0,0.0,0.0,0.0,0.0,0.0,0.0,0.0,0.0,0.0,0.0,0.0,0.0,0.0,0.0,0.0,0.0,0.0,0.0,0.0,0.0,0.0,0.0,0.0,0.0,0.0,0.0,0.0,0.0,0.0,0.0,0.0,0.0,0.0,0.0,0.0,0.0,0.0,0.0,0.0,0.0,0.0,0.0,0.0,0.0,0.0,0.0,0.0,0.0,0.0,0.0,0.0,0.0,0.0,0.0,0.0,0.0,0.0,0.0,0.0,0.0,0.0,0.0,0.0,0.0,0.0,0.0,0.0,0.0,0.0,0.0,0.0,0.0,0.0,0.0,0.0,0.0,0.0,0.0,0.0,0.0,0.0,0.0,0.0,0.0,0.0,0.0,0.0,0.0,0.0,0.0,0.0,0.0,0.0,0.0,0.0,0.0,0.0,0.0,0.0,0.0,0.0,0.0,0.0,0.0,0.0,0.0,0.0,0.0,0.0,0.0,0.0,0.0,0.0,0.0,0.0,0.0,0.0,0.0,0.0,0.0,0.0,0.0,0.0,0.0,0.0,0.0,0.0,0.0,0.0,0.0,0.0,0.0,0.0,0.0,0.0,0.0,0.0,0.0,0.0,0.0,0.0,0.0,0.0,0.0,0.0,0.0,0.0,0.0,0.0,0.0,0.0,0.0,0.0,0.0,0.0,0.0,0.0,0.0,0.0,0.0,0.0,0.0,0.0,0.0,0.0,0.0,0.0,0.0,0.0,0.0,0.0,0.0,0.0,0.0,0.0,0.0,0.0,0.0,0.0,0.0,0.0,0.0,0.0,0.0,0.0,0.0,0.0,0.0,0.0,0.0,0.0,0.0,0.0,0.0,0.0,0.0,0.0,0.0,0.0,0.0,0.0,0.0,0.0,0.0,0.0,0.0,0.0,0.0,0.0,0.0,0.0,0.0,0.0,0.0,0.0,0.0,0.0,0.0,0.0,0.0,0.0,0.0,0.0,0.0,0.0,0.0,0.0,0.0,0.0,0.0,0.0,0.0,0.0,0.0,0.0,0.0,0.0,0.0,0.0,0.0,0.0,0.0,0.0,0.0,0.0,0.0,0.0,0.0,0.0,0.0,0.0,0.0,0.0,0.0,0.0,0.0,0.0,0.0,0.0,0.0,0.0,0.0,0.0,0.0,0.0,0.0,0.0,0.0,0.0,0.0,0.0,0.0,0.0,0.0,0.0,0.0,0.0,0.0,0.0,0.0,0.0,0.0,0.0,0.0,0.0,0.0,0.0,0.0,0.0,0.0,0.0,0.0,0.0,0.0,0.0,0.0,0.0,0.0,0.0,0.0,0.0,0.0,0.0,0.0,0.0,0.0,0.0,0.0,0.0,0.0,0.0,0.0,0.0,0.0,0.0,0.0,0.0,0.0,0.0,0.0,0.0,0.0,0.0,0.0,0.0,0.0,0.0,0.0,0.0,0.0,0.0,0.0,0.0,0.0,0.0,0.0,0.0,0.0,0.0,0.0,0.0,0.0,0.0,0.0,0.0,0.0,0.0,0.0,0.0,0.0,0.0,0.0,0.0,0.0,0.0,0.0,0.0,0.0,0.0,0.0,0.0,0.0,0.0,0.0,0.0,0.0,0.0,0.0,0.0,0.0,0.0,0.0,0.0,0.0,0.0,0.0,0.0,0.0,0.0,0.0,0.0,0.0,0.0,0.0,0.0,0.0,0.0,0.0,0.0,0.0,0.0,0.0,0.0,0.0,0.0,0.0,0.0,0.0,0.0,0.0,0.0,0.0,0.0,0.0,0.0,0.0,0.0,0.0,0.0,0.0,0.0,0.0,0.0,0.0,0.0,0.0,0.0,0.0,0.0,0.0,0.0,0.0,0.0,0.0,0.0,0.0,0.0,0.0,0.0,0.0,0.0,0.0,0.0,0.0,0.0,0.0,0.0,0.0,0.0,0.0,0.0,0.0,0.0,0.0,0.0,0.0,0.0,0.0,0.0,0.0,0.0,0.0,0.0,0.0,0.0,0.0,0.0,0.0,0.0,0.0,0.0,0.0,0.0,0.0,0.0,0.0,0.0,0.0,0.0,0.0,0.0,0.0,0.0,0.0,0.0,0.0,0.0,0.0,0.0,0.0,0.0,0.0,0.0,0.0,0.0,0.0,0.0,0.0,0.0,0.0,0.0,0.0,0.0,0.0,0.0,0.0,0.0,0.0,0.0,0.0,0.0,0.0,0.0,0.0,0.0,0.0,0.0,0.0,0.0,0.0,0.0,0.0,0.0,0.0,0.0,0.0,0.0,0.0,0.0,0.0,0.0,0.0,0.0,0.0,0.0,0.0,0.0,0.0,0.0,0.0,0.0,0.0,0.0,0.0,0.0,0.0,0.0,0.0,0.0,0.0,0.0,0.0,0.0,0.0,0.0,0.0,0.0,0.0,0.0,0.0,0.0,0.0,0.0,0.0,0.0,0.0,0.0,0.0,0.0,0.0,0.0,0.0,0.0,0.0,0.0,0.0,0.0,0.0,0.0,0.0,0.0,0.0,0.0,0.0,0.0,0.0,0.0,0.0,0.0,0.0,0.0,0.0,0.0,0.0,0.0,0.0,0.0,0.0,0.0,0.0,0.0,0.0,0.0,0.0,0.0,0.0,0.0,0.0,0.0,0.0,0.0,0.0,0.0,0.0,0.0,0.0,0.0,0.0,0.0,0.0,0.0,0.0,0.0,0.0,0.0,0.0,0.0,0.0,0.0,0.0,0.0,0.0,0.0,0.0,0.0,0.0,0.0,0.0,0.0,0.0,0.0,0.0,0.0,0.0,0.0,0.0,0.0,0.0,0.0,0.0,0.0,0.0,0.0,0.0,0.0,0.0,0.0,0.0,0.0,0.0,0.0,0.0,0.0,0.0,0.0,0.0,0.0,0.0,0.0,0.0,0.0,0.0,0.0,0.0,0.0,0.0,0.0,0.0,0.0,0.0,0.0,0.0,0.0,0.0,0.0,0.0,0.0,0.0,0.0,0.0,0.0,0.0,0.0,0.0,0.0,0.0,0.0,0.0,0.0,0.0,0.0,0.0,0.0,0.0,0.0,0.0,0.0,0.0,0.0,0.0,0.0,0.0,0.0,0.0,0.0,0.0,0.0,0.0,0.0,0.0,0.0,0.0,0.0,0.0,0.0,0.0,0.0,0.0,0.0,0.0,0.0,0.0,0.0,0.0,0.0,0.0,0.0,0.0,0.0,0.0,0.0,0.0,0.0,0.0,0.0,0.0,0.0,0.0,0.0,0.0,0.0,0.0,0.0,0.0,0.0,0.0,0.0,0.0,0.0,0.0,0.0,0.0,0.0,0.0,0.0,0.0,0.0,0.0,0.0,0.0,0.0,0.0,0.0,0.0,0.0,0.0,0.0,0.0,0.0,0.0,0.0,0.0,0.0,0.0,0.0,0.0,0.0,0.0,0.0,0.0,0.0,0.0,0.0,0.0,0.0,0.0,0.0,0.0,0.0,0.0,0.0,0.0,0.0,0.0,0.0,0.0,0.0,0.0,0.0,0.0,0.0,0.0,0.0,0.0,0.0,0.0,0.0,0.0,0.0,0.0,0.0,0.0,0.0,0.0,0.0,0.0,0.0,0.0,0.0,0.0,0.0,0.0,0.0,0.0,0.0,0.0,0.0,0.0,0.0,0.0,0.0,0.0,0.0,0.0,0.0,0.0,0.0,0.0,-1.3775,0.0,0.0,0.0,0.0,0.0,0.0,0.0,0.0,0.0,0.0,0.0,0.0,0.0,0.0,0.0,0.0,0.0,0.0,0.0,0.0,0.0,0.0,0.0,0.0,0.0,0.0,0.0,-0.69,-0.6165,-0.6543,-0.6156,-0.5905,-0.5908,-0.5815,-0.5768,-0.5797,-0.5738,-0.6261,-0.7372,-0.748,-0.8997,-1.1815,-1.129,0.0,0.0,0.0,0.0,0.0,0.0,0.0,0.0,0.0,0.0,0.0,0.0,0.0,0.0,0.0,0.0,0.0,0.0,0.0,0.0,0.0,0.0,0.0,0.0,0.0,0.0,0.0,0.0,0.0,0.0,0.0,0.0,0.0,0.0,0.0,0.0,0.0,0.0,0.0,0.0,0.0,0.0,0.0,0.0,0.0,0.0,0.0,0.0,0.0,0.0,0.0,0.0,0.0,0.0,0.0,0.0,0.0,0.0,0.0,0.0,0.0,0.0,0.0,0.0,0.0,0.0,0.0,0.0,0.0,0.0,0.0,0.0,0.0,-1.5605,0.0,0.0,0.0,0.0,0.0,0.0,0.0,0.0,0.0,0.0,0.0,0.0,0.0,0.0,0.0,0.0,0.0,0.0,0.0,0.0,0.0,0.0,0.0,-0.7639,-0.7548,-0.8442,-0.6969,-0.6398,-0.7334,-0.7129,-0.7016,-0.7106,-0.7048,-0.7041,-0.7104,-0.7123,-0.7938,-0.96,-1.0612,-1.2807,-1.6116,0.0,0.0,0.0,0.0,0.0,0.0,0.0,0.0,0.0,0.0,0.0,0.0,0.0,0.0,0.0,0.0,0.0,0.0,0.0,0.0,0.0,0.0,0.0,0.0,0.0,0.0,0.0,0.0,0.0,0.0,0.0,0.0,0.0,0.0,0.0,0.0,0.0,0.0,0.0,0.0,0.0,0.0,0.0,0.0,0.0,0.0,0.0,0.0,0.0,0.0,0.0,0.0,0.0,0.0,0.0,0.0,0.0,0.0,0.0,0.0,0.0,0.0,0.0,0.0,0.0,0.0,0.0,-1.9572,-2.0171,-2.1522,-2.0824,-2.1938,-2.4238,-2.0833,-2.0028,-2.0735,-1.661,0.0,0.0,0.0,0.0,0.0,0.0,0.0,0.0,0.0,0.0,0.0,0.0,0.0,0.0,0.0,0.0,0.0,0.0,0.0,0.0,0.0,-0.7639,-0.7783,-0.9215,-0.7295,-0.6613,-0.8062,-0.6853,-0.6397,-0.7162,-0.7131,-0.7083,-0.7107,-0.7763,-0.8853,-1.0367,-1.5428,-1.8761,-2.041,-2.1789,-2.215,-2.1434,-1.6518,0.0,0.0,0.0,0.0,0.0,0.0,0.0,0.0,0.0,0.0,0.0,0.0,0.0,0.0,0.0,0.0,0.0,0.0,0.0,0.0,0.0,0.0,0.0,0.0,0.0,0.0,0.0,0.0,0.0,0.0,0.0,0.0,0.0,0.0,0.0,0.0,0.0,0.0,0.0,0.0,0.0,0.0,0.0,-1.5108,-1.5108,0.0,0.0,0.0,0.0,0.0,0.0,0.0,0.0,0.0,0.0,0.0,0.0,0.0,-1.7382,-1.8693,-2.0979,-2.2512,-2.3356,-2.5357,-2.6504,-2.6885,-2.659,-2.6764,-2.7228,-2.6688,0.0,-2.1995,-2.0658,0.0,0.0,0.0,0.0,0.0,0.0,0.0,0.0,0.0,0.0,0.0,0.0,0.0,0.0,0.0,0.0,0.0,0.0,0.0,0.0,0.0,-1.0032,-1.0425,-1.1894,-1.2239,-1.173,-1.0252,-1.0693,-1.0265,-0.8565,-0.843,-0.8414,-0.8444,-0.965,-1.2154,-1.6012,-2.0451,-2.3371,-2.4815,-2.5467,-2.5781,-2.5679,-2.2863,-2.016,-1.7568,-1.4714,0.0,0.0,0.0,0.0,0.0,0.0,0.0,0.0,0.0,0.0,0.0,0.0,0.0,0.0,0.0,0.0,0.0,0.0,0.0,0.0,0.0,0.0,0.0,0.0,0.0,0.0,0.0,0.0,0.0,0.0,0.0,0.0,0.0,0.0,0.0,0.0,0.0,0.0,0.0,-1.3562,-1.4411,-1.4871,-1.4337,-1.3576,0.0,0.0,0.0,0.0,0.0,0.0,0.0,0.0,0.0,-2.1131,-2.1253,-2.2475,-2.5005,-2.5672,-2.6536,-2.761,-2.866,-2.9478,-3.0019,-2.9832,-2.9806,-2.9888,-2.8811,-2.7498,-2.5844,-2.3078,-2.0505,-1.8161,0.0,0.0,0.0,0.0,-1.6423,-1.7409,0.0,0.0,0.0,0.0,0.0,0.0,0.0,0.0,0.0,0.0,0.0,0.0,-1.2278,-1.308,-1.4061,-1.5624,-1.657,-1.6024,-1.3535,-1.3454,-1.2507,-1.0204,-0.9466,-0.9336,-0.9798,-1.2246,-1.6046,-2.1253,-2.4471,-2.6892,-2.8532,-2.8763,-2.8966,-2.9097,-2.8303,-2.5446,-2.1116,-1.8417,-1.5988,0.0,0.0,0.0,0.0,0.0,0.0,0.0,0.0,0.0,0.0,0.0,0.0,0.0,0.0,0.0,0.0,0.0,0.0,0.0,0.0,0.0,0.0,0.0,0.0,0.0,0.0,0.0,0.0,0.0,0.0,0.0,0.0,0.0,0.0,0.0,0.0,0.0,0.0,-1.4538,-1.5413,-1.5637,-1.6114,-1.5741,0.0,0.0,0.0,0.0,0.0,0.0,-2.0213,-2.0391,-2.2028,-2.5477,-2.5607,-2.7045,-3.0086,-2.9481,-2.9749,-3.0886,-3.0886,-3.1231,-3.1844,-3.1484,-3.1381,-3.1369,-2.9808,-2.9145,-2.8898,-2.5341,-2.331,-2.2257,-1.9921,-1.8762,-1.8459,-1.895,-1.9692,-2.0653,0.0,0.0,0.0,0.0,0.0,0.0,0.0,0.0,0.0,0.0,0.0,-1.235,-1.3992,-1.6233,-1.8409,-2.0385,-1.803,-1.693,-1.8088,-1.2719,-1.0186,-1.1711,-0.9585,-0.9079,-1.0617,-1.5579,-2.0023,-2.3807,-2.6661,-2.9074,-3.1029,-3.1735,-3.2418,-3.2967,-3.2176,-3.0392,-2.7644,-2.2009,-2.0653,-2.1615,0.0,0.0,0.0,0.0,0.0,0.0,0.0,0.0,0.0,0.0,0.0,0.0,0.0,0.0,0.0,0.0,0.0,0.0,0.0,0.0,0.0,0.0,0.0,0.0,0.0,0.0,0.0,0.0,0.0,0.0,0.0,0.0,0.0,0.0,0.0,0.0,0.0,0.0,0.0,-1.9219,-2.0406,0.0,0.0,0.0,0.0,-2.0281,-2.125,-2.2751,-2.5032,-2.5872,-2.7133,-2.8996,-2.9113,-2.9719,-3.0921,-3.0956,-3.1378,-3.2189,-3.2189,-3.2227,-3.2246,-3.1478,-3.1082,-3.099,-3.0327,-2.9882,-2.9532,-2.7922,-2.5895,-2.3786,-2.348,-2.2455,-2.1301,-2.2975,-2.4129,-2.5086,0.0,0.0,0.0,0.0,0.0,0.0,0.0,0.0,-0.9504,-0.9504,-1.1797,-1.4252,-1.6371,-1.9657,-2.2265,-2.3663,-2.3721,-2.2504,-1.9768,-1.6663,-1.4632,-1.399,-1.1812,-1.2586,-1.6787,-1.9473,-2.2988,-2.7409,-2.893,-3.0587,-3.2297,-3.2295,-3.2696,-3.3343,-3.3056,-3.2416,-3.1301,-2.6737,-2.3843,-2.2013,-1.8391,-1.537,0.0,0.0,0.0,0.0,0.0,0.0,0.0,0.0,0.0,0.0,0.0,0.0,0.0,0.0,0.0,0.0,0.0,0.0,0.0,0.0,0.0,0.0,0.0,0.0,0.0,0.0,0.0,0.0,0.0,0.0,0.0,0.0,0.0,0.0,0.0,0.0,0.0,-2.2447,-2.4338,0.0,-2.4135,-2.4284,-2.494,-2.6144,-2.687,-2.8149,-3.0165,-3.0075,-3.0936,-3.3032,-3.3285,-3.3918,-3.4981,-3.3811,-3.3601,-3.4355,-3.3653,-3.3337,-3.3318,-3.3029,-3.2888,-3.2779,-3.1361,-3.0799,-3.082,-2.9521,-2.8195,-2.6949,-2.6454,-2.5913,-2.5497,-2.6116,-2.6874,-2.7574,0.0,0.0,0.0,0.0,0.0,0.0,0.0,0.0,-0.9685,-1.0236,-1.3359,-1.6534,-1.9232,-2.3298,-2.6171,-2.7041,-2.736,-2.5838,-2.1906,-1.9052,-1.6966,-1.5712,-1.4806,-1.6392,-2.081,-2.2893,-2.5821,-2.9697,-3.0645,-3.1899,-3.3425,-3.3162,-3.344,-3.4112,-3.388,-3.3821,-3.3756,-3.0949,-2.7842,-2.4582,-2.2114,-1.9757,-1.7378,0.0,0.0,0.0,0.0,0.0,0.0,0.0,0.0,0.0,0.0,0.0,0.0,0.0,0.0,0.0,0.0,0.0,0.0,0.0,0.0,0.0,0.0,0.0,0.0,0.0,0.0,0.0,0.0,0.0,0.0,0.0,0.0,0.0,0.0,0.0,-2.5324,-2.5352,-2.7805,-2.9041,-2.7915,-2.8828,-2.9982,-3.1136,-3.1587,-3.2463,-3.3967,-3.358,-3.4005,-3.5519,-3.5797,-3.616,-3.6658,-3.548,-3.5026,-3.5289,-3.4585,-3.4241,-3.4222,-3.3933,-3.3606,-3.3187,-3.1733,-3.1064,-3.0951,-3.0205,-2.9642,-2.9223,-2.8676,-2.8511,-2.853,-2.8536,-2.8886,-2.9247,0.0,0.0,0.0,0.0,0.0,0.0,0.0,-0.9504,-1.0073,-1.1698,-1.5454,-1.9186,-2.2391,-2.7001,-3.0049,-3.0481,-2.8407,-2.6364,-2.4626,-1.9443,-1.6542,-1.6794,-1.8371,-2.0208,-2.228,-2.5791,-2.858,-3.0569,-3.1774,-3.3093,-3.4489,-3.4489,-3.4895,-3.5566,-3.4883,-3.4802,-3.5148,-3.4394,-3.2676,-3.0035,-2.4993,-2.3691,-2.4115,0.0,0.0,0.0,0.0,0.0,0.0,0.0,0.0,0.0,0.0,0.0,0.0,0.0,0.0,0.0,0.0,0.0,0.0,0.0,0.0,0.0,0.0,0.0,0.0,0.0,0.0,0.0,0.0,0.0,0.0,0.0,0.0,0.0,-2.3052,-2.5847,-2.793,-2.8044,-3.0852,-3.2142,-3.0613,-3.1849,-3.3408,-3.5004,-3.5096,-3.5463,-3.6321,-3.6354,-3.6354,-3.6391,-3.6514,-3.6311,-3.5731,-3.578,-3.5545,-3.4965,-3.4927,-3.4908,-3.486,-3.4036,-3.3072,-3.2045,-3.1438,-3.0675,-2.9893,-3.0053,-3.0234,-3.038,-3.0107,-3.0066,-3.0169,-3.018,-3.0211,-3.0142,0.0,0.0,0.0,0.0,0.0,0.0,0.0,-0.9491,-1.0082,-1.1696,-1.6418,-2.0626,-2.3216,-2.8304,-3.1402,-3.1036,-2.8571,-2.6357,-2.4816,-1.9998,-1.7832,-1.925,-2.136,-2.4024,-2.7255,-2.8873,-3.0527,-3.2245,-3.3098,-3.3857,-3.4489,-3.4489,-3.4895,-3.5622,-3.5736,-3.5694,-3.5513,-3.5609,-3.5095,-3.3905,-3.0258,-2.7869,-2.6136,0.0,0.0,0.0,0.0,0.0,0.0,0.0,0.0,0.0,0.0,0.0,0.0,0.0,0.0,0.0,0.0,0.0,0.0,0.0,0.0,0.0,0.0,0.0,0.0,0.0,0.0,0.0,0.0,0.0,0.0,0.0,0.0,-2.6534,-2.6534,-2.9761,-3.2583,-3.3825,-3.5271,-3.6211,-3.6358,-3.6229,-3.6578,-3.7624,-3.7147,-3.7165,-3.801,-3.7677,-3.7664,-3.8096,-3.8377,-3.8462,-3.8353,-3.7094,-3.6515,-3.6632,-3.5457,-3.4812,-3.467,-3.4745,-3.4443,-3.384,-3.2989,-3.2232,-3.1559,-3.0893,-3.0444,-3.0187,-3.0221,-2.9858,-2.9392,-2.9984,-3.0206,-3.0157,0.0,0.0,0.0,0.0,0.0,0.0,0.0,-0.9497,-1.0321,-1.2606,-1.7199,-2.1287,-2.4013,-2.8325,-3.0614,-2.9568,-2.7353,-2.5212,-2.3379,-2.1008,-2.0451,0.0,0.0,-2.7926,-3.0308,-3.157,-3.2774,-3.3913,-3.4109,-3.4457,-3.4962,-3.4962,-3.5199,-3.5622,-3.5893,-3.6049,-3.6169,-3.6447,-3.6628,-3.6541,-3.4251,-3.2368,-3.0623,-2.7438,-2.5715,-2.4764,-2.2872,-2.1991,-2.1463,-1.977,0.0,0.0,0.0,0.0,0.0,0.0,0.0,0.0,0.0,0.0,0.0,0.0,0.0,0.0,0.0,0.0,0.0,0.0,0.0,0.0,0.0,0.0,0.0,0.0,-2.7618,-3.0231,-3.1262,-3.3401,-3.5459,-3.711,-3.7716,-3.8193,-3.8652,-3.8267,-3.8193,-3.867,-3.8267,-3.8212,-3.8689,-3.8394,-3.8401,-3.8747,-3.896,-3.8997,-3.8832,-3.7803,-3.7115,-3.6793,-3.5846,-3.5162,-3.474,-3.4973,-3.4699,-3.403,-3.3492,-3.2642,-3.1629,-3.1034,-3.0497,0.0,0.0,0.0,0.0,0.0,-2.9148,-2.9107,0.0,0.0,0.0,0.0,0.0,0.0,0.0,-0.9501,-1.064,-1.3833,-1.7565,-2.1141,-2.4321,-2.7253,-2.8438,-2.6999,-2.532,-2.3461,-2.1402,-2.2319,0.0,-2.5599,-2.9277,-3.157,-3.2184,-3.3916,-3.498,-3.5292,-3.4899,-3.5006,-3.56,-3.56,-3.56,-3.56,-3.5667,-3.6075,-3.6761,-3.69,-3.7376,-3.7966,-3.6985,-3.6452,-3.5776,-3.1724,-3.0812,-3.1278,-2.8174,-2.617,-2.4794,-2.359,0.0,0.0,0.0,0.0,0.0,0.0,0.0,0.0,0.0,0.0,0.0,0.0,0.0,0.0,0.0,0.0,0.0,0.0,0.0,0.0,0.0,0.0,0.0,0.0,-3.1402,-3.3862,-3.6229,-3.656,-3.7092,-3.8542,-3.8707,-3.8707,-3.8707,-3.8707,-3.8707,-3.8707,-3.8707,-3.8707,-3.8707,0.0,0.0,0.0,0.0,-3.8584,-3.8124,-3.8071,-3.7469,-3.6304,-3.624,-3.5777,-3.4973,-3.4992,-3.4421,-3.3387,-3.3387,-3.2514,-3.1042,-3.0948,-3.0433,-2.965,-2.8924,-2.8744,-2.8823,-2.7949,-2.7637,-2.7596,0.0,0.0,0.0,0.0,0.0,0.0,0.0,-0.9475,-1.0591,-1.3576,-1.6522,-1.9426,-2.228,-2.4968,-2.6271,-2.5547,-2.3803,-2.2643,-2.2403,0.0,-2.6166,-2.9766,-3.1915,-3.3544,-3.4688,-3.5647,-3.5825,-3.5227,-3.5704,-3.5826,-3.56,-3.56,-3.56,-3.5622,-3.6002,-3.6067,-3.592,-3.6941,-3.7302,-3.7189,-3.7648,-3.7234,-3.6167,-3.4394,-3.3617,-3.3406,-3.2669,-3.258,-3.2521,-3.052,-2.9553,-2.8578,-2.5164,0.0,0.0,0.0,0.0,0.0,0.0,0.0,0.0,0.0,0.0,0.0,0.0,0.0,0.0,0.0,0.0,0.0,0.0,0.0,0.0,-3.1402,-3.3977,-3.6211,-3.7991,-3.8248,-3.8358,-3.867,-3.8707,-3.8707,-3.8707,-3.8707,-3.8707,-3.8707,-3.8707,-3.8707,-3.8707,-3.8707,-3.8707,-3.8707,-3.878,-3.8774,-3.8724,-3.8146,-3.7753,-3.7548,0.0,0.0,-3.5396,-3.5556,-3.5042,-3.4039,-3.4039,-3.3469,-3.2519,-3.1868,-3.0418,-2.8535,-2.7862,-2.7967,-2.8412,-2.7536,-2.7245,-2.735,0.0,0.0,0.0,0.0,0.0,0.0,0.0,-0.9082,-0.9958,-1.3042,-1.5325,-1.7642,-2.0265,-2.1943,-2.2487,-2.1445,-2.0494,-2.0725,0.0,-2.5269,-2.8244,-3.1524,-3.4004,-3.5498,-3.5946,-3.647,-3.6435,-3.58,-3.5882,-3.5827,-3.56,-3.56,-3.56,-3.5622,-3.5849,-3.5958,-3.6002,-3.6843,-3.7094,-3.6978,-3.7845,-3.7698,-3.6881,-3.6327,-3.6096,-3.6065,-3.5809,-3.5791,-3.5679,-3.4203,-3.3349,-3.2431,-2.9722,-2.7081,-2.4303,0.0,0.0,0.0,0.0,0.0,0.0,0.0,0.0,0.0,0.0,0.0,0.0,0.0,0.0,-2.454,-2.6617,0.0,-3.1733,-3.5058,-3.6343,-3.7588,-3.9625,-3.9551,-3.9148,-3.8762,-3.8707,-3.8707,-3.8707,-3.8707,-3.8707,-3.8707,-3.8707,-3.8707,-3.8707,-3.8707,-3.8707,-3.8707,-3.8735,-3.8792,-3.891,-3.8504,-3.8169,-3.7894,-3.7558,-3.6944,-3.6086,-3.5782,-3.536,-3.4841,-3.4383,-3.3733,-3.2946,-3.2128,-3.1102,-2.9926,-2.9145,-2.8427,-2.775,-2.7305,-2.7148,-2.7179,0.0,0.0,0.0,0.0,0.0,0.0,0.0,-0.8841,-0.9461,-1.2335,-1.3879,-1.5569,-1.7779,-1.8315,-1.8075,-1.7006,-1.7452,-1.9335,0.0,-2.6729,-3.0034,-3.2716,-3.5654,-3.7027,-3.6595,-3.6815,-3.6744,-3.6392,-3.5871,-3.56,-3.56,-3.56,-3.56,-3.56,-3.56,-3.5805,-3.6195,-3.6618,-3.6781,-3.686,-3.7721,-3.7845,-3.7487,-3.7435,-3.7718,-3.8122,-3.7595,-3.6965,-3.6302,-3.5867,-3.5151,-3.4238,-3.3087,-3.1225,-2.868,-2.4674,-2.3237,0.0,0.0,0.0,0.0,0.0,0.0,0.0,0.0,0.0,-2.1669,-2.4254,-2.6454,-2.8779,-3.1614,-3.283,-3.4603,-3.8266,-3.8346,-3.8704,-4.0802,-4.0543,-3.9827,-3.9038,-3.9074,-3.9111,-3.8946,-3.8927,-3.8872,-3.8707,-3.8707,-3.8707,-3.8707,-3.8707,-3.8707,-3.8707,-3.8707,-3.8765,-3.8881,-3.8837,-3.8559,-3.8094,-3.8044,-3.7632,-3.6896,-3.6079,-3.5646,-3.5454,-3.4569,-3.3733,-3.2946,-3.2295,-3.1908,-3.1658,-3.0935,-2.9595,-2.8032,-2.7687,-2.7428,-2.7233,0.0,0.0,0.0,0.0,0.0,0.0,0.0,0.0,-0.9843,-1.147,-1.2038,-1.2775,-1.4067,-1.383,-1.3803,-1.4353,-1.6964,0.0,-2.4634,-2.7901,-3.1277,-3.4895,-3.6765,-3.7471,-3.6954,-3.6748,-3.6536,-3.6322,-3.5827,-3.56,-3.56,-3.56,-3.56,-3.56,-3.56,-3.5622,-3.5711,-3.6156,-3.6385,-3.643,-3.7246,-3.7542,-3.747,-3.7174,-3.7542,-3.8083,-3.7326,-3.6096,-3.4935,-3.5587,-3.5245,-3.4651,-3.5146,-3.4165,-3.2043,-2.7969,0.0,-2.2646,-1.7863,-1.6244,-1.6855,-2.0879,-2.0889,-2.1749,0.0,0.0,-2.8431,-3.1564,-3.2977,-3.405,-3.5235,-3.6121,-3.7351,-3.941,-3.968,-3.9974,-4.0948,-4.1022,-4.0671,-3.9845,-4.0414,-4.0561,-3.9827,-3.9772,-3.946,-3.8762,-3.8707,-3.8707,-3.8707,-3.8707,-3.8707,-3.8707,-3.8707,-3.8735,-3.8822,-3.8807,-3.8796,-3.8792,-3.8777,-3.8381,-3.7655,-3.684,-3.612,-3.5454,-3.4569,-3.3733,-3.299,-3.2908,-3.2432,-3.1771,-3.1621,-3.1417,-3.1014,-2.9459,-2.8386,-2.7827,0.0,0.0,0.0,0.0,0.0,0.0,0.0,0.0,0.0,-1.0772,-1.1071,-1.1332,-1.1865,-1.128,-1.1204,-1.2006,0.0,0.0,-2.4047,-2.7767,-3.1554,-3.5457,-3.6983,-3.7541,-3.7073,-3.6681,-3.6329,-3.6019,-3.5734,-3.56,-3.56,-3.56,-3.56,-3.56,-3.56,-3.5853,-3.6288,-3.6298,-3.641,-3.6613,-3.6996,-3.7017,-3.6738,-3.6131,-3.5548,-3.5044,-3.4927,-3.4461,0.0,0.0,-3.3484,-3.3339,-3.4123,-3.2962,-3.0785,-2.8128,-2.6657,0.0,-2.2849,-2.1955,0.0,0.0,-2.5258,-2.6831,-3.0622,-3.1075,-3.1492,-3.4244,-3.5439,-3.6266,-3.7176,-3.8041,-3.9033,0.0,-4.0565,-4.0891,-4.1699,-4.1389,-4.0967,-4.0653,-4.091,-4.06,-3.9331,-3.9203,-3.9056,-3.8726,-3.8707,-3.8707,-3.8707,-3.8707,-3.8707,-3.8707,-3.8707,-3.8735,-3.8807,-3.8747,-3.881,-3.891,-3.8866,-3.8779,-3.8625,-3.7314,-3.6037,-3.4826,-3.4346,-3.3963,-3.3647,-3.3684,-3.3491,-3.3194,-3.3123,-3.2778,-3.2206,-3.1001,-3.0309,-3.0005,0.0,0.0,0.0,0.0,0.0,0.0,0.0,0.0,0.0,0.0,-1.0211,-1.0079,-0.9744,-0.9393,-0.9492,0.0,0.0,0.0,0.0,-2.6795,-3.0794,-3.4501,-3.6194,-3.6986,-3.6895,-3.6557,-3.6182,-3.5734,-3.5644,-3.56,-3.56,-3.56,-3.56,-3.56,-3.56,-3.5926,-3.644,-3.6198,-3.6239,-3.6474,-3.6454,-3.6105,-3.5541,-3.4288,-3.2964,-3.1807,-3.2252,-3.1836,0.0,0.0,-3.0351,-3.064,-3.1238,-3.0514,-2.9156,-2.7544,-2.6446,-2.574,-2.5513,0.0,0.0,-2.7188,-2.9148,-3.1125,-3.2375,-3.3118,-3.4081,-3.6055,-3.6924,-3.7535,-3.8196,-3.8842,-3.9637,-4.0831,-4.1062,-4.137,-4.2194,-4.1809,-4.126,-4.0836,-4.0781,-4.023,-3.8836,-3.8909,-3.8946,-3.8726,-3.8909,-3.9038,-3.9038,-3.9239,-3.9258,-3.9038,-3.9038,-3.8958,-3.8762,-3.8719,-3.875,-3.8837,-3.8792,-3.8906,-3.9095,-3.77,-3.6174,-3.4641,-3.4488,-3.4309,-3.413,-3.442,-3.4538,-3.455,-3.4488,-3.4074,-3.3414,-3.2545,-3.2054,-3.182,0.0,0.0,0.0,0.0,0.0,0.0,0.0,0.0,0.0,0.0,0.0,0.0,0.0,0.0,0.0,0.0,0.0,0.0,0.0,-2.4849,-2.8773,-3.1696,-3.4106,-3.5668,-3.6308,-3.6371,-3.6139,-3.56,-3.56,-3.56,-3.56,-3.56,-3.56,-3.56,-3.56,-3.5616,-3.5633,-3.5639,-3.5639,-3.5611,-3.5345,-3.4792,-3.3811,-3.1515,-3.0006,-2.9204,-2.9719,0.0,0.0,0.0,-2.5733,-2.6385,-2.6421,-2.7441,0.0,-2.6699,-2.4067,0.0,0.0,0.0,-2.5968,-2.988,-3.2071,-3.3918,-3.6288,-3.6832,-3.7104,-3.7955,-3.8154,-3.8204,-3.8385,-3.8417,-3.9013,-4.0806,-4.1095,-4.137,-4.2194,-4.2286,-4.168,-4.012,-3.9937,-3.9606,0.0,-3.9405,-3.9533,-3.8762,-3.9423,-3.9845,-3.9845,-4.0616,-4.0671,-3.9882,-3.9845,-3.9478,-3.8707,-3.8707,-3.8707,-3.8707,-3.8707,-3.875,-3.8785,-3.8028,-3.6786,-3.5272,-3.5259,-3.4831,-3.4173,-3.5001,-3.5391,-3.5442,-3.5397,-3.5334,-3.5197,-3.4199,-3.3303,-3.2577,0.0,0.0,0.0,0.0,0.0,0.0,0.0,0.0,0.0,0.0,0.0,0.0,0.0,0.0,0.0,0.0,0.0,0.0,0.0,-2.2156,-2.5604,-2.8706,-3.1671,-3.3493,-3.4041,-3.4288,-3.4459,-3.4607,-3.478,-3.4878,-3.4878,-3.5363,-3.56,-3.56,-3.56,-3.591,-3.6349,-3.5842,-3.5312,-3.4781,-3.3696,-3.2514,-3.1189,-2.9087,-2.6829,-2.4673,0.0,0.0,0.0,-2.2034,-2.2303,-2.3089,-2.3089,-2.3441,0.0,-2.3242,-2.3053,-2.3487,0.0,0.0,-2.9681,-3.2651,-3.4588,-3.6143,-3.7502,-3.781,-3.7736,-3.7513,-3.6608,-3.575,-3.5293,-3.613,-3.7071,-3.768,-4.0107,-4.1625,-4.0818,-4.1625,-4.1497,-3.9368,-3.957,0.0,0.0,0.0,0.0,-3.8726,-3.9441,-3.99,-3.99,-4.0671,-4.0967,-4.0691,-4.0708,-4.0304,-3.9496,-3.9496,-3.9239,-3.8707,-3.8881,-3.8682,-3.8127,-3.7928,-3.7219,-3.6155,-3.6058,-3.5869,-3.5638,-3.5987,-3.6125,-3.617,-3.6144,-3.6085,-3.6025,-3.5676,-3.5331,-3.4908,0.0,0.0,0.0,0.0,0.0,0.0,0.0,0.0,0.0,0.0,0.0,0.0,0.0,0.0,0.0,0.0,0.0,0.0,0.0,0.0,-2.1621,-2.5142,-2.7558,-2.9254,-3.0193,-3.0161,-3.0411,-3.1033,-3.0972,-3.1441,-3.2469,-3.2709,-3.3115,-3.3622,-3.3622,-3.4066,-3.4764,-3.3981,-3.3199,-3.2371,-3.0883,-2.9225,-2.7469,-2.5482,-2.312,0.0,0.0,0.0,0.0,-1.861,-1.9138,-2.0093,-1.9857,-2.0572,-2.1568,-2.183,-2.3216,-2.5244,0.0,-3.0441,-3.2868,-3.5276,-3.687,-3.7991,-3.8517,-3.8191,-3.7555,-3.6819,-3.5387,-3.404,-3.3336,-3.3844,-3.4576,-3.5172,-3.7521,-3.9313,-3.9441,-4.0102,-4.0322,-3.9643,-3.9753,-3.9808,0.0,0.0,0.0,-3.9148,-4.0139,-4.0763,-4.0763,-4.1515,-4.1827,-4.1535,-4.1534,-4.1148,-4.0341,-4.0029,-3.9496,-3.8707,-3.8881,-3.8654,-3.8108,-3.8173,-3.7729,-3.692,-3.6818,-3.6628,-3.6435,-3.6754,-3.6906,-3.692,-3.6892,-3.6864,-3.6785,-3.6481,-3.6346,-3.6138,0.0,0.0,0.0,0.0,0.0,0.0,0.0,0.0,0.0,0.0,0.0,0.0,0.0,0.0,0.0,0.0,0.0,0.0,0.0,0.0,0.0,-2.0907,-2.1973,-2.3296,-2.5029,-2.4366,-2.4417,-2.5243,-2.4666,-2.578,-2.8442,-2.789,-2.8415,-2.9802,-2.9835,-3.026,-3.0869,-3.0209,-2.9428,-2.8495,-2.6977,-2.5056,-2.2864,-2.0909,0.0,0.0,0.0,0.0,0.0,0.0,0.0,0.0,0.0,0.0,-2.1794,-2.2735,-2.4672,-2.72,-3.0369,-3.3013,-3.5403,-3.7756,-3.8844,-3.9387,-3.9351,-3.81,-3.6703,-3.5895,-3.437,-3.2978,0.0,0.0,-3.1722,-3.3353,-3.3899,-3.5202,-3.8322,-3.8212,-3.8631,0.0,0.0,0.0,0.0,0.0,0.0,-4.0139,0.0,-4.2304,-4.2304,-4.3057,-4.3149,-4.2396,-4.2359,-4.1992,-4.1168,-4.0359,-3.9551,-3.8762,-3.8762,-3.8744,-3.8707,-3.8707,-3.8285,-3.7566,-3.7566,-3.7154,-3.6568,-3.7337,-3.7694,-3.7737,-3.7679,-3.7669,-3.7562,-3.6736,-3.6413,-3.6413,0.0,0.0,0.0,0.0,0.0,0.0,0.0,0.0,0.0,0.0,0.0,0.0,0.0,0.0,0.0,0.0,0.0,0.0,0.0,0.0,0.0,0.0,0.0,0.0,0.0,0.0,0.0,0.0,0.0,-2.3171,-2.3897,-2.4838,-2.5494,-2.5882,-2.6438,-2.6792,-2.6978,-2.7384,-2.6505,-2.473,0.0,-2.2046,-1.9913,0.0,0.0,0.0,0.0,0.0,0.0,0.0,0.0,0.0,0.0,0.0,-2.3723,-2.6337,-2.8793,-3.1238,-3.3864,-3.6345,-3.8464,-3.9623,-3.9659,-3.9224,-3.8644,-3.725,-3.5561,-3.368,-3.106,-2.8713,0.0,0.0,0.0,-3.095,-3.5183,0.0,-3.9478,-4.0981,0.0,0.0,0.0,-4.1534,-4.1132,-4.1644,0.0,0.0,-4.2415,-4.2304,-4.2304,-4.3057,-4.3423,-4.3185,-4.3185,-4.28,-4.2011,-4.1203,-4.0396,-3.9588,-3.9588,-3.9276,-3.8707,-3.8707,-3.8597,-3.8395,-3.8395,-3.83,-3.8132,-3.8334,-3.8426,-3.8437,-3.8426,-3.8426,-3.8389,-3.8175,-3.8083,-3.8083,0.0,0.0,0.0,0.0,0.0,0.0,0.0,0.0,0.0,0.0,0.0,0.0,0.0,0.0,0.0,0.0,0.0,0.0,0.0,0.0,0.0,0.0,0.0,0.0,0.0,0.0,0.0,0.0,0.0,0.0,0.0,-1.9748,-2.0535,-2.1493,-2.1894,-2.243,-2.3053,-2.3184,0.0,0.0,0.0,0.0,0.0,0.0,0.0,0.0,0.0,0.0,0.0,0.0,0.0,-2.1416,-2.3666,-2.5328,-2.7012,-2.988,0.0,-3.4317,-3.6725,-3.8862,-4.051,-4.0908,-4.022,-3.9006,-3.75,-3.5652,-3.343,-3.0438,-2.8092,0.0,0.0,0.0,0.0,0.0,0.0,0.0,-3.8539,-4.0008,-4.1056,0.0,-4.2341,0.0,-4.2691,-4.3406,-4.4066,0.0,-4.3479,-4.2983,-4.3332,-4.3442,-4.3515,-4.3515,-4.3515,-4.3112,-4.2304,-4.1864,-4.1056,-3.99,-3.99,-3.9478,-3.8707,-3.8707,-3.8707,-3.8707,0.0,-3.8707,-3.8707,-3.8707,-3.8707,-3.8707,-3.8707,-3.8707,-3.8707,-3.8707,-3.8707,-3.8707,0.0,0.0,0.0,0.0,0.0,0.0,0.0,0.0,0.0,0.0,0.0,0.0,0.0,0.0,0.0,0.0,0.0,0.0,0.0,0.0,0.0,0.0,0.0,0.0,0.0,0.0,0.0,0.0,0.0,0.0,0.0,0.0,0.0,0.0,0.0,0.0,0.0,0.0,0.0,0.0,0.0,0.0,0.0,0.0,0.0,0.0,0.0,0.0,0.0,0.0,-2.2424,-2.44,-2.5585,-2.8027,-3.0908,-3.3321,-3.5113,-3.6779,-3.9079,-4.0763,-4.1831,-4.1723,-4.0456,-3.8607,-3.6193,-3.3666,-3.0779,-2.7093,0.0,-2.4386,-2.2923,0.0,-2.5034,-2.7548,0.0,-3.2467,-3.7162,-3.8006,-3.9182,-4.1974,-4.3094,-4.392,-4.4635,-4.5424,-4.5938,-4.6049,-4.4672,-4.4121,-4.4837,-4.4103,-4.3608,-4.3515,-4.3515,-4.3149,-4.247,-4.2451,-4.1644,-4.0065,-4.0065,-3.957,-3.8707,-3.8707,-3.8707,-3.8707,-3.8707,0.0,-3.8707,-3.8707,-3.8707,-3.8707,-3.8707,-3.8707,-3.8707,-3.8707,-3.8707,-3.8707,0.0,0.0,0.0,0.0,0.0,0.0,0.0,0.0,0.0,0.0,-0.7359,-0.5697,0.0,0.0,0.0,0.0,0.0,0.0,0.0,0.0,0.0,0.0,0.0,0.0,0.0,0.0,0.0,0.0,0.0,0.0,0.0,0.0,0.0,0.0,0.0,0.0,0.0,0.0,0.0,0.0,0.0,0.0,0.0,0.0,0.0,0.0,0.0,0.0,0.0,0.0,-2.3995,-2.8079,-3.0265,-3.2252,-3.4244,-3.6653,-3.8029,-3.9152,-4.0836,-4.1977,-4.252,-4.1868,-4.0039,-3.7792,-3.5429,-3.1996,0.0,0.0,0.0,-2.2036,-2.1099,-2.2721,0.0,-2.829,0.0,0.0,0.0,0.0,-4.1662,0.0,0.0,0.0,0.0,0.0,0.0,0.0,0.0,-4.5535,-4.5681,-4.4929,-4.4195,-4.3533,-4.3515,-4.3441,-4.3277,-4.3277,-4.2488,-4.0875,-4.0875,-4.0104,-3.8707,-3.8707,-3.8707,-3.8707,-3.8707,0.0,-3.8707,-3.8707,-3.8707,-3.8707,-3.8707,-3.8707,-3.8707,-3.8707,-3.8707,-3.8707,0.0,0.0,0.0,0.0,0.0,0.0,0.0,-0.8645,-0.9964,-1.0326,-1.012,-0.9242,-0.7406,-0.6191,-0.5503,0.0,0.0,0.0,0.0,0.0,0.0,0.0,0.0,0.0,0.0,0.0,0.0,0.0,0.0,0.0,0.0,0.0,0.0,0.0,0.0,0.0,0.0,0.0,0.0,0.0,0.0,0.0,0.0,0.0,0.0,0.0,0.0,0.0,0.0,0.0,-2.3062,-2.7781,-3.1138,-3.3882,-3.6236,-3.8228,-3.9369,-4.0329,-4.1904,-4.2611,-4.2701,-4.1904,-3.9623,-3.6614,-3.3016,0.0,0.0,0.0,0.0,-2.0826,-2.0016,0.0,0.0,0.0,0.0,0.0,0.0,0.0,0.0,0.0,0.0,0.0,0.0,0.0,0.0,0.0,0.0,-4.6966,-4.6562,-4.5351,-4.4525,-4.414,-4.3718,-4.3515,-4.3515,-4.3515,-4.269,-4.1095,-4.1095,-4.0251,-3.8707,-3.8707,-3.8927,-3.9294,-3.8891,0.0,-3.9866,-3.9056,-3.9187,-3.9918,-3.9496,-3.9588,-3.9939,-3.9939,-3.968,-3.9313,0.0,0.0,0.0,0.0,0.0,0.0,0.0,-0.9815,-1.142,-1.2216,-1.3052,-1.2853,-1.0956,-0.8485,-0.6838,0.0,0.0,0.0,0.0,0.0,0.0,0.0,0.0,0.0,0.0,0.0,0.0,0.0,0.0,0.0,0.0,0.0,0.0,0.0,0.0,0.0,0.0,0.0,0.0,0.0,0.0,0.0,0.0,0.0,0.0,0.0,0.0,0.0,0.0,0.0,-2.1138,-2.5314,-2.9176,-3.2737,-3.5872,-3.7993,-3.917,-4.0166,-4.2122,-4.2755,-4.2665,-4.1687,-3.9079,-3.5527,-3.0948,-2.7815,0.0,0.0,-1.9894,-2.0028,-1.9395,0.0,0.0,0.0,0.0,0.0,0.0,0.0,0.0,0.0,0.0,0.0,0.0,0.0,0.0,0.0,0.0,0.0,-4.6892,-4.5627,-4.48,-4.4452,-4.3828,-4.3515,-4.3515,-4.3515,-4.2782,-4.1352,-4.1168,-4.0359,-3.8964,-3.8964,-3.9294,-3.9863,-3.9405,0.0,0.0,-3.9738,-3.9958,-4.104,-4.0396,-4.0432,-4.0838,-4.0838,-4.0341,-3.9643,0.0,0.0,0.0,0.0,0.0,0.0,0.0,-1.0917,-1.3102,-1.6442,-1.5856,-1.4778,-1.3887,-1.0628,-0.7956,0.0,0.0,0.0,0.0,0.0,0.0,0.0,0.0,0.0,0.0,0.0,0.0,0.0,0.0,0.0,0.0,0.0,0.0,0.0,0.0,0.0,0.0,0.0,0.0,0.0,0.0,0.0,0.0,0.0,0.0,0.0,0.0,0.0,0.0,0.0,0.0,-2.1004,-2.3717,-2.7284,-3.1216,-3.5023,0.0,0.0,-4.0981,-4.2339,-4.252,-4.0981,-3.8229,-3.4842,-3.083,0.0,0.0,0.0,-1.9774,-1.9292,-1.9219,-2.0034,-2.1724,0.0,0.0,0.0,0.0,0.0,0.0,0.0,0.0,0.0,0.0,0.0,0.0,0.0,0.0,0.0,-4.6085,-4.5865,-4.5112,-4.3662,-4.3551,-4.3515,-4.3515,-4.3515,-4.3057,-4.2176,-4.1444,-4.0653,-3.979,-3.979,-3.9827,-3.9937,-4.0581,0.0,0.0,-4.093,-4.0967,-4.1095,-4.1022,-4.0598,-4.001,-4.001,-3.9496,-3.8817,0.0,0.0,0.0,0.0,0.0,0.0,-0.9508,-1.1049,-1.3317,-1.7022,-1.6984,-1.6337,-1.5597,-1.3424,-1.0876,-0.8077,0.0,0.0,0.0,0.0,0.0,0.0,0.0,0.0,0.0,0.0,0.0,0.0,0.0,0.0,0.0,0.0,0.0,0.0,0.0,0.0,0.0,0.0,0.0,0.0,0.0,0.0,0.0,0.0,0.0,0.0,0.0,0.0,0.0,0.0,0.0,0.0,-1.9605,-2.1619,0.0,0.0,-3.5222,-3.7593,-4.0239,-4.1922,-4.2502,-4.0908,-3.7759,-3.4027,-3.0033,0.0,0.0,-2.0106,-1.9385,-1.9211,-1.9211,-1.9898,-2.1074,0.0,0.0,0.0,0.0,0.0,0.0,0.0,0.0,0.0,0.0,0.0,0.0,0.0,0.0,0.0,-4.5993,-4.5902,-4.5388,-4.4268,-4.3754,-4.3515,-4.3515,-4.3515,-4.3094,-4.2304,-4.1992,-4.1405,-4.0616,-4.0616,-4.0891,-4.1332,-4.1185,0.0,0.0,-4.1515,-4.168,-4.2506,-4.2011,-4.1625,-4.1332,-4.1332,-4.0524,-3.9423,0.0,0.0,0.0,0.0,0.0,-0.7505,-0.9491,-1.1049,-1.3177,-1.642,-1.6851,-1.6569,-1.5829,-1.4427,-1.2422,-0.959,-0.8947,0.0,0.0,0.0,0.0,0.0,0.0,0.0,0.0,0.0,0.0,0.0,0.0,0.0,0.0,0.0,0.0,0.0,0.0,0.0,0.0,0.0,0.0,0.0,0.0,0.0,0.0,0.0,0.0,0.0,0.0,0.0,0.0,0.0,0.0,0.0,0.0,0.0,0.0,0.0,-3.2538,-3.5491,-3.8355,-4.0456,-4.1524,-4.0166,-3.7015,-3.3194,0.0,0.0,-2.1742,-1.9555,-1.8944,-1.8887,-1.9123,-1.9664,-2.0436,0.0,0.0,0.0,0.0,0.0,0.0,0.0,0.0,0.0,0.0,0.0,0.0,0.0,0.0,0.0,-4.5975,-4.5663,-4.5186,-4.4378,-4.3791,-4.3515,-4.3515,-4.3515,-4.3222,-4.2653,-4.2415,-4.2011,-4.1444,-4.1444,-4.1772,-4.2286,-4.1956,0.0,0.0,-4.2286,-4.2488,-4.3441,-4.2873,-4.2359,-4.1956,-4.1956,-4.0928,-3.9551,0.0,0.0,0.0,0.0,0.0,0.0,-0.9567,-1.1049,-1.2796,-1.5027,-1.5319,-1.5043,-1.4301,-1.2919,-1.1711,-1.0944,-0.9541,0.0,0.0,0.0,0.0,0.0,0.0,0.0,0.0,0.0,0.0,0.0,0.0,0.0,0.0,0.0,0.0,0.0,0.0,0.0,0.0,0.0,0.0,0.0,0.0,0.0,0.0,0.0,0.0,0.0,0.0,0.0,0.0,0.0,0.0,0.0,0.0,0.0,0.0,0.0,-2.7978,-3.0745,-3.4754,-3.7594,-3.9224,-3.8426,-3.5802,-3.2361,0.0,0.0,-2.1061,-1.944,-1.8461,-1.8153,-1.895,-1.9111,-1.9669,-2.1325,0.0,0.0,0.0,0.0,0.0,0.0,0.0,0.0,0.0,0.0,0.0,0.0,0.0,0.0,-4.5938,-4.5149,-4.4342,-4.3551,-4.3515,-4.3515,-4.3515,-4.3515,-4.3515,-4.3478,-4.2671,-4.2304,-4.2286,-4.2286,-4.2286,0.0,0.0,0.0,0.0,-4.3478,-4.3478,-4.3515,-4.3496,-4.2506,-4.1113,-4.1113,-4.0086,-3.8707,0.0,0.0,0.0,0.0,0.0,0.0,0.0,-0.8694,-1.0139,-1.3367,-1.3359,-1.316,-1.3424,-1.2588,-1.1495,-1.0262,-0.9256,0.0,0.0,0.0,0.0,0.0,0.0,0.0,0.0,0.0,-1.0932,-1.2406,-1.3186,0.0,0.0,0.0,0.0,0.0,0.0,0.0,0.0,0.0,0.0,0.0,0.0,0.0,0.0,0.0,0.0,0.0,0.0,0.0,0.0,0.0,0.0,0.0,0.0,0.0,0.0,-2.0226,-2.4479,0.0,-3.0374,-3.2651,-3.4135,-3.281,-3.0441,-2.787,-2.5479,0.0,-1.9558,-1.8497,-1.8081,-1.7972,-1.8226,-1.8738,-1.9634,-2.128,-2.1406,0.0,0.0,0.0,0.0,0.0,0.0,0.0,0.0,0.0,0.0,0.0,0.0,0.0,-4.5131,-4.4838,-4.4342,-4.3533,-4.3515,-4.3515,-4.3515,-4.3515,-4.3515,-4.3515,-4.3239,-4.3112,-4.3112,-4.3112,-4.3112,0.0,0.0,0.0,0.0,-4.3515,-4.3515,-4.346,-4.2892,-4.2378,-4.1791,-4.0689,-3.9955,-3.9441,0.0,0.0,0.0,0.0,0.0,0.0,0.0,-0.7241,-0.8424,-1.0718,-1.0626,-1.0825,-1.2124,-1.1123,-1.0312,-1.0229,-0.929,0.0,0.0,0.0,0.0,0.0,0.0,0.0,0.0,-0.9875,-1.1206,-1.3523,-1.3873,-1.4728,-1.5956,-1.4867,0.0,0.0,0.0,0.0,0.0,0.0,0.0,0.0,0.0,0.0,-1.1702,0.0,0.0,0.0,0.0,0.0,0.0,0.0,0.0,0.0,0.0,0.0,0.0,0.0,-2.0479,-2.432,0.0,-2.8781,-3.0152,-2.9137,-2.7308,0.0,0.0,0.0,0.0,-1.799,-1.7429,-1.7175,-1.7791,-1.8304,-1.9182,-2.0825,-2.1398,0.0,0.0,0.0,0.0,0.0,0.0,0.0,0.0,0.0,0.0,0.0,0.0,0.0,-4.4728,-4.4415,-4.4011,-4.3533,-4.3515,-4.3515,-4.3515,-4.3515,-4.3515,-4.3515,-4.3515,-4.3515,-4.3515,-4.3515,-4.3515,0.0,0.0,0.0,0.0,-4.3167,-4.3222,-4.3423,-4.2598,-4.2121,-4.1735,-4.0726,-3.9974,-3.9386,0.0,0.0,0.0,0.0,0.0,0.0,0.0,-0.6568,-0.7461,-0.7511,-0.756,-0.8364,-1.0369,-0.8849,-0.8484,-1.0498,0.0,0.0,0.0,0.0,0.0,0.0,0.0,0.0,0.0,-0.9604,-1.0711,-1.4202,-1.3027,-1.3508,-1.5541,-1.6138,-1.4901,0.0,0.0,0.0,-0.9852,-1.0591,-1.0146,-0.9118,-1.1173,-1.1611,0.0,0.0,0.0,0.0,0.0,0.0,0.0,0.0,0.0,0.0,0.0,0.0,0.0,0.0,0.0,0.0,0.0,-2.5588,-2.6808,-2.6808,-2.5697,-2.4194,0.0,0.0,0.0,0.0,-1.6534,-1.5983,-1.7592,-1.79,-1.8459,-2.0207,-2.1098,0.0,0.0,0.0,0.0,0.0,0.0,0.0,0.0,0.0,0.0,0.0,0.0,0.0,-4.4617,-4.3901,-4.3515,-4.3515,-4.3441,-4.3441,-4.3515,-4.3515,-4.3515,-4.3515,-4.3515,-4.3515,-4.3515,-4.3515,-4.3515,0.0,0.0,0.0,0.0,-4.269,-4.2818,-4.3423,-4.2543,-4.1791,-4.115,-4.0985,-4.0029,-3.8781,0.0,0.0,0.0,0.0,0.0,0.0,0.0,0.0,0.0,0.0,-0.7253,-0.7582,-0.7543,-0.8077,-0.8418,0.0,0.0,0.0,0.0,0.0,0.0,0.0,0.0,0.0,0.0,-1.1082,-1.2778,-1.4202,-1.6072,-1.7247,-1.7739,-1.6823,-1.5723,-1.4446,-1.253,-1.0989,-0.9852,-1.0591,-1.1031,-1.1272,-1.1793,-1.224,0.0,0.0,0.0,0.0,-1.3127,-1.36,0.0,0.0,0.0,0.0,0.0,0.0,0.0,0.0,-1.5465,-1.6307,-1.8147,0.0,-2.1043,-2.1043,-2.0771,-2.0237,0.0,0.0,0.0,0.0,0.0,0.0,0.0,0.0,-1.8624,-2.088,-2.1407,0.0,0.0,0.0,0.0,0.0,0.0,0.0,0.0,0.0,0.0,0.0,0.0,-4.3773,-4.3773,-4.3606,-4.3515,-4.3515,-4.2892,-4.2873,-4.3496,-4.3515,-4.3515,-4.3515,-4.3515,-4.3515,-4.3515,-4.3515,-4.3515,0.0,0.0,0.0,-4.3496,-4.3313,-4.3331,-4.3368,-4.1937,-4.1644,-4.1791,-3.9955,-3.9405,-3.9533,0.0,0.0,0.0,0.0,0.0,0.0,0.0,0.0,0.0,0.0,0.0,0.0,0.0,0.0,0.0,0.0,0.0,0.0,0.0,0.0,0.0,0.0,0.0,0.0,-0.9197,-1.1185,-1.3101,-1.4891,-1.6758,-1.822,-1.9219,-1.8643,-1.7448,-1.5674,-1.2713,-1.118,-1.084,-1.1238,-1.123,-1.1088,-1.2108,0.0,0.0,0.0,0.0,0.0,-1.3093,-1.3573,0.0,-1.4625,-1.546,-1.6126,0.0,0.0,0.0,0.0,-1.4571,-1.491,-1.5883,-1.7584,-1.9095,-1.9095,-1.9095,-1.8987,-1.8552,0.0,0.0,0.0,0.0,0.0,0.0,0.0,0.0,0.0,0.0,0.0,0.0,0.0,0.0,0.0,0.0,0.0,0.0,0.0,0.0,0.0,0.0,-4.3112,-4.3478,-4.3149,-4.2947,-4.2947,-4.2176,-4.2304,-4.3496,-4.2763,-4.2763,-4.3515,-4.313,-4.313,-4.3496,-4.3112,-4.3149,0.0,0.0,0.0,-4.3441,-4.269,-4.2818,-4.3386,-4.2139,-4.1682,-4.1589,-4.027,-3.9606,-3.9294,0.0,0.0,0.0,0.0,0.0,0.0,0.0,0.0,0.0,0.0,0.0,0.0,0.0,0.0,0.0,0.0,0.0,0.0,0.0,0.0,0.0,0.0,0.0,-0.9141,-1.0111,-1.0916,-1.2808,-1.5819,-1.6593,-1.7963,-1.9866,-2.0444,-1.9094,-1.6105,-1.3383,-1.2108,-1.2008,-1.2008,-1.1346,-1.0475,-1.2356,0.0,0.0,0.0,0.0,0.0,0.0,0.0,0.0,-1.4785,-1.6016,-1.7052,-1.5477,0.0,0.0,0.0,0.0,0.0,-1.5367,-1.7408,-1.9162,-1.8978,-1.9095,-1.9222,0.0,0.0,0.0,0.0,0.0,0.0,0.0,0.0,0.0,0.0,0.0,0.0,0.0,0.0,0.0,0.0,0.0,0.0,0.0,0.0,0.0,0.0,0.0,-4.2415,-4.3094,-4.2488,-4.2121,-4.2121,-4.135,-4.1644,-4.3112,-4.1791,-4.1864,-4.3296,-4.2635,-4.2653,-4.3277,-4.2598,-4.2598,-4.3057,0.0,0.0,-4.302,-4.1645,-4.1901,-4.3039,-4.2249,-4.1515,-4.0893,-4.0783,-3.9866,-3.8707,0.0,0.0,0.0,0.0,0.0,0.0,0.0,0.0,0.0,0.0,0.0,0.0,0.0,0.0,0.0,0.0,0.0,0.0,0.0,0.0,0.0,0.0,-0.8699,-0.9637,-1.1611,-1.1792,-1.3339,-1.6298,-1.7584,-1.8402,-1.878,-2.0086,-1.8842,-1.5392,-1.3681,-1.258,-1.2008,-1.2008,-1.2224,-1.2613,-1.296,0.0,0.0,0.0,0.0,0.0,0.0,0.0,0.0,-1.3615,-1.4834,-1.6215,-1.4169,0.0,0.0,0.0,0.0,0.0,-1.6027,-1.8062,-1.943,-1.835,-1.9113,-1.9757,0.0,0.0,0.0,0.0,0.0,0.0,0.0,0.0,0.0,0.0,0.0,0.0,0.0,0.0,0.0,0.0,0.0,0.0,0.0,0.0,0.0,0.0,0.0,-4.1334,-4.1462,-4.1352,-4.1279,-4.1279,-4.0506,-4.0524,-4.1462,-4.1224,-4.1572,-4.2488,-4.2359,-4.2359,-4.2488,-4.2359,-4.2011,-4.1444,0.0,-4.1242,-4.1444,-4.1187,-4.1242,-4.1405,-4.0579,-4.0175,-3.9992,-3.9331,-3.8909,-3.8707,0.0,0.0,0.0,0.0,0.0,0.0,0.0,0.0,0.0,0.0,0.0,0.0,0.0,0.0,0.0,0.0,0.0,0.0,0.0,0.0,0.0,-1.0385,-1.0076,-1.0544,-1.1975,-1.3284,-1.5494,-1.8671,-1.9904,-2.0804,-2.1358,-2.0504,-1.8601,-1.5806,-1.393,-1.2911,-1.2538,-1.1743,-1.2058,-1.3093,0.0,0.0,0.0,0.0,0.0,0.0,0.0,0.0,0.0,0.0,-1.489,-1.6088,-1.4297,0.0,0.0,0.0,0.0,0.0,-1.507,-1.6992,-1.8574,-1.799,-1.9939,0.0,0.0,0.0,0.0,0.0,0.0,0.0,0.0,0.0,0.0,0.0,0.0,0.0,0.0,0.0,0.0,0.0,0.0,0.0,0.0,0.0,0.0,0.0,0.0,0.0,-4.1077,-4.0689,-4.0451,-4.0451,-3.9662,-3.9441,-3.9808,-3.9808,-4.0432,-4.1662,-4.1203,-4.124,-4.1644,-4.1203,-4.1038,-4.1077,0.0,-4.0708,-4.1095,-4.1095,-4.1095,-4.1058,-4.0689,-4.0286,-3.979,-3.9001,-3.8707,-3.8707,0.0,0.0,0.0,0.0,0.0,0.0,0.0,0.0,0.0,0.0,0.0,0.0,0.0,0.0,0.0,0.0,0.0,0.0,0.0,0.0,-0.9488,-1.1333,-1.1397,-1.2066,-1.349,-1.51,-1.7575,-2.0996,-2.1993,-2.2943,-2.3776,-2.0927,-1.8538,-1.6553,-1.4162,-1.3093,-1.2993,-1.1528,-1.1743,-1.3093,0.0,0.0,0.0,0.0,0.0,0.0,0.0,0.0,0.0,0.0,0.0,0.0,0.0,0.0,0.0,-1.452,-1.4026,-1.409,-1.4777,-1.6391,-1.7966,-1.8265,0.0,0.0,0.0,0.0,0.0,0.0,0.0,0.0,0.0,0.0,0.0,0.0,0.0,0.0,0.0,0.0,0.0,0.0,0.0,0.0,0.0,0.0,0.0,0.0,0.0,0.0,-4.0508,-3.9955,-3.9625,-3.9625,-3.9019,-3.8707,-3.8707,-3.8707,-3.9423,-4.0802,-4.0194,-4.0212,-4.0799,-4.0175,-4.0139,-4.049,-3.9882,-3.9974,-4.0526,-4.0526,-4.0526,-4.0526,-4.0526,-4.0157,-3.9533,-3.8927,-3.8817,-3.8982,0.0,0.0,0.0,0.0,0.0,0.0,0.0,0.0,0.0,0.0,0.0,0.0,0.0,0.0,0.0,0.0,0.0,0.0,0.0,0.0,-0.9012,-0.9914,-1.1811,-1.4493,-1.7959,-1.7225,-1.8563,-2.2184,-2.2943,-2.3543,-2.3916,-2.0984,-1.882,-1.7287,-1.4394,-1.3093,-1.2993,-1.1528,-1.1743,-1.3093,-1.3093,0.0,0.0,0.0,0.0,0.0,0.0,0.0,0.0,0.0,0.0,0.0,0.0,0.0,-1.6276,-1.5636,-1.5104,-1.5088,-1.6729,-1.765,-1.8458,-1.9639,0.0,0.0,0.0,0.0,0.0,0.0,0.0,0.0,0.0,0.0,0.0,0.0,0.0,0.0,0.0,0.0,0.0,0.0,0.0,0.0,0.0,0.0,0.0,0.0,0.0,0.0,-3.8872,-3.8817,-3.8799,-3.8799,-3.8726,-3.8707,-3.8707,-3.8707,-3.9129,-3.9992,-3.9918,-3.9918,-3.9974,-3.9918,-3.9515,-3.8872,-3.8817,-3.8817,-3.8872,-3.8872,-3.8872,-3.8872,-3.8872,-3.8836,-3.8781,-3.8726,-3.9166,-3.9808,0.0,0.0,0.0,0.0,0.0,0.0,0.0,0.0,0.0,0.0,0.0,0.0,0.0,0.0,0.0,0.0,0.0,0.0,0.0,0.0,-1.0022,-1.1712,-1.3057,-1.5052,-1.7822,-1.8993,-2.113,-2.4352,-2.464,-2.4268,-2.3272,-2.1234,-1.9044,-1.6752,-1.5176,-1.448,-1.437,-1.2886,-1.3127,-1.4387,-1.3466,-1.3093,0.0,0.0,0.0,0.0,0.0,0.0,0.0,0.0,-1.4321,-1.5143,0.0,-1.5066,-1.6198,-1.5156,-1.4738,-1.4778,-1.5523,-1.6922,-1.8322,-1.8803,0.0,0.0,0.0,0.0,0.0,0.0,0.0,0.0,0.0,0.0,0.0,0.0,0.0,0.0,0.0,0.0,0.0,0.0,0.0,0.0,0.0,0.0,0.0,0.0,0.0,0.0,-3.8707,-3.8707,-3.8707,-3.8707,-3.8707,-3.8707,-3.8707,-3.8707,-3.8854,-3.9148,-3.9148,-3.9148,-3.9148,-3.9148,-3.9001,-3.8726,-3.9239,-3.9166,-3.8744,-3.9239,-3.9148,-3.8707,-3.8707,-3.8707,-3.8707,-3.8707,-3.8891,-3.9148,0.0,0.0,0.0,0.0,0.0,0.0,0.0,0.0,0.0,0.0,0.0,0.0,0.0,0.0,0.0,0.0,0.0,0.0,0.0,-0.9033,-1.0238,-1.2213,-1.3279,-1.4969,-1.7453,-1.9926,-2.219,-2.4215,-2.4674,-2.4218,-2.2857,-2.1398,-1.9525,-1.737,-1.642,-1.5989,-1.5873,-1.4162,-1.4162,-1.516,-1.3681,-1.3093,0.0,0.0,0.0,0.0,0.0,0.0,0.0,0.0,-1.4112,0.0,0.0,0.0,0.0,-1.5292,-1.5266,-1.5516,-1.5374,-1.6667,-1.82,0.0,0.0,0.0,0.0,0.0,0.0,0.0,0.0,0.0,0.0,0.0,0.0,0.0,0.0,0.0,0.0,0.0,0.0,0.0,0.0,0.0,0.0,0.0,0.0,0.0,0.0,0.0,0.0,-3.8707,-3.8707,-3.8707,-3.8707,-3.8707,-3.8707,-3.8707,-3.8707,-3.8707,-3.8707,-3.8707,-3.8707,-3.8707,-3.8707,-3.8726,-3.9276,-3.9203,-3.8744,-3.9294,-3.9203,-3.8707,-3.8707,-3.8707,-3.8707,-3.8707,-3.8854,-3.9074,0.0,0.0,0.0,0.0,0.0,0.0,0.0,0.0,0.0,0.0,0.0,0.0,0.0,0.0,0.0,0.0,0.0,0.0,0.0,-0.8568,-0.9271,-1.0737,-1.2213,-1.4394,-1.7403,-1.9892,-2.1181,-2.1215,-2.2671,-2.3225,-2.2857,-2.1381,-2.029,-1.9535,-1.8137,-1.7519,-1.737,-1.5162,-1.4642,-1.5193,-1.3714,-1.3109,-1.3109,0.0,0.0,0.0,0.0,0.0,0.0,0.0,-1.4185,-1.445,0.0,0.0,0.0,-1.6387,-1.7043,-1.7631,-1.6891,-1.7236,0.0,0.0,0.0,0.0,0.0,0.0,0.0,0.0,0.0,0.0,0.0,0.0,0.0,0.0,0.0,0.0,0.0,0.0,0.0,0.0,0.0,0.0,0.0,0.0,0.0,0.0,0.0,0.0,0.0,-3.8707,-3.8707,-3.8707,-3.8707,-3.8707,-3.8707,-3.8707,-3.8707,-3.8707,-3.8707,-3.8707,-3.8707,-3.8707,-3.8707,-3.8707,-3.8707,-3.8707,-3.8707,-3.8707,-3.8707,-3.8707,-3.8707,-3.8707,-3.8707,-3.8707,-3.9203,-3.9882,0.0,0.0,0.0,0.0,0.0,0.0,0.0,0.0,0.0,0.0,0.0,0.0,0.0,0.0,0.0,0.0,0.0,0.0,-0.8568,-0.9069,-0.9819,-1.0839,-1.2281,-1.3729,-1.5156,-1.6909,-1.9441,-2.2753,-2.2947,-2.2733,-2.2079,-2.0621,-1.9813,-1.9584,-1.9167,-1.8687,-1.8137,-1.6994,-1.6658,-1.6719,-1.5242,-1.4337,-1.3871,0.0,0.0,0.0,0.0,0.0,0.0,0.0,0.0,0.0,0.0,0.0,0.0,-1.5923,-1.6193,-1.6653,-1.5913,0.0,0.0,0.0,0.0,0.0,0.0,0.0,0.0,0.0,0.0,0.0,0.0,0.0,0.0,0.0,0.0,0.0,0.0,0.0,0.0,0.0,0.0,0.0,0.0,0.0,0.0,0.0,0.0,0.0,0.0,-3.8707,-3.8707,-3.8707,-3.8707,-3.8707,-3.8707,-3.8707,-3.8707,-3.8707,-3.8707,-3.8707,-3.8707,-3.8707,-3.8707,-3.8707,-3.8707,-3.8707,-3.8707,-3.8707,-3.8707,-3.8707,-3.8707,-3.8707,-3.8707,-3.8707,-3.8854,-3.9056,0.0,0.0,0.0,0.0,0.0,0.0,0.0,0.0,0.0,0.0,-0.8556,-0.8527,0.0,0.0,0.0,-0.8533,-0.8533,0.0,-0.8593,-0.9284,-1.0177,-1.1258,-1.2463,-1.3864,-1.5487,-1.663,-1.8481,-2.1069,-2.1119,-2.1069,-2.092,-2.0621,-2.0624,-2.0922,0.0,-2.0773,-1.976,-1.875,-1.817,-1.7773,-1.6321,-1.5464,-1.504,0.0,0.0,0.0,0.0,0.0,0.0,0.0,0.0,0.0,0.0,0.0,0.0,-1.5823,-1.6254,-1.6868,-1.7007,0.0,0.0,0.0,0.0,0.0,0.0,0.0,0.0,0.0,0.0,0.0,0.0,0.0,0.0,0.0,0.0,0.0,0.0,0.0,0.0,0.0,0.0,0.0,0.0,0.0,0.0,0.0,0.0,0.0,0.0,-3.8707,-3.8707,-3.8707,-3.8707,-3.8707,-3.8707,-3.8707,-3.8707,-3.8707,-3.8707,-3.8707,-3.8707,-3.8707,-3.8707,-3.8707,-3.8707,-3.8707,-3.8707,-3.8707,-3.8707,-3.8707,-3.8707,-3.8707,-3.8707,-3.8707,-3.8707,-3.8707,0.0,0.0,-0.456,-0.5354,0.0,0.0,0.0,0.0,0.0,-0.8521,-0.8552,-0.8581,0.0,0.0,0.0,-0.8599,-0.8599,-0.8599,-0.8606,-0.9291,-1.0374,-1.1835,-1.2876,-1.4659,-1.7337,-1.7938,-1.7922,-1.7299,-1.812,-1.884,-1.9518,-2.0936,-2.2046,-2.2924,0.0,-2.3007,-2.1613,-2.0194,-1.9151,-1.8307,-1.7022,-1.647,-1.6321,-1.5574,0.0,0.0,0.0,0.0,0.0,0.0,0.0,0.0,-1.397,-1.4251,-1.4549,-1.5829,-1.6818,-1.778,0.0,0.0,0.0,0.0,0.0,0.0,0.0,0.0,0.0,0.0,0.0,0.0,0.0,0.0,0.0,0.0,0.0,0.0,0.0,0.0,0.0,0.0,0.0,0.0,0.0,0.0,0.0,0.0,0.0,0.0,0.0,-3.8707,-3.8707,-3.8707,-3.8707,-3.8707,-3.8707,-3.8707,-3.8707,-3.8707,-3.8707,-3.8707,-3.8707,-3.8707,-3.8707,-3.8707,-3.8707,-3.8707,-3.8707,-3.8707,-3.8707,-3.8707,-3.8707,-3.8707,-3.8707,-3.8707,-3.8707,-3.8707,0.0,0.0,-0.4714,-0.6028,0.0,0.0,0.0,0.0,-0.8598,-0.8585,-0.8592,-0.8598,-0.8585,-0.8592,0.0,-0.8598,-0.8598,-0.8616,-0.8675,-0.9373,-1.0449,-1.1909,-1.436,-1.5989,-1.6619,-1.6221,-1.5923,-1.5773,-1.7607,-1.8588,0.0,0.0,0.0,-2.2874,0.0,-2.1779,-2.0884,-1.9978,-1.8869,-1.7685,-1.7387,-1.6918,-1.6321,-1.5574,-1.4834,0.0,0.0,0.0,0.0,0.0,0.0,0.0,-1.397,-1.4592,-1.5,-1.4758,-1.6028,-1.7437,0.0,0.0,0.0,0.0,0.0,0.0,0.0,0.0,0.0,0.0,0.0,0.0,0.0,0.0,0.0,0.0,0.0,0.0,0.0,0.0,0.0,0.0,0.0,0.0,0.0,0.0,0.0,0.0,0.0,0.0,-3.867,-3.8707,-3.8707,-3.8707,-3.8707,-3.8707,-3.8707,-3.8707,-3.8707,0.0,-3.8707,-3.8707,-3.8707,-3.8707,-3.8707,-3.8707,-3.8707,-3.8707,-3.8707,-3.8707,-3.8707,-3.8707,-3.8707,-3.8707,-3.8707,-3.8707,-3.8707,-3.8707,0.0,0.0,0.0,0.0,0.0,0.0,0.0,0.0,-0.8634,-0.861,-0.8594,-0.8594,-0.8594,-0.8594,0.0,0.0,-0.8646,-0.8823,-0.9211,-0.9921,-1.1306,-1.3475,-1.5392,-1.6403,-1.6403,-1.5674,-1.5303,-1.5303,0.0,0.0,0.0,0.0,0.0,-2.2874,0.0,-2.1729,-2.0652,-1.9912,-1.8969,-1.7988,-1.7988,-1.7569,-1.6851,-1.6105,-1.5149,-1.4102,-1.3358,0.0,0.0,0.0,0.0,0.0,0.0,0.0,-1.4304,-1.4635,-1.553,-1.6669,0.0,0.0,0.0,0.0,0.0,0.0,0.0,0.0,0.0,0.0,0.0,0.0,0.0,0.0,0.0,0.0,0.0,0.0,0.0,0.0,0.0,0.0,0.0,0.0,0.0,0.0,0.0,0.0,0.0,-3.729,-3.8065,-3.812,-3.8303,-3.8689,-3.8707,-3.8707,-3.8707,-3.8707,-3.8707,-3.8707,-3.8707,-3.8505,-3.8138,-3.8524,-3.8707,-3.8707,-3.8707,-3.8707,-3.8707,-3.8707,-3.8707,-3.8707,-3.8707,-3.8707,-3.8707,-3.8707,-3.8707,-3.8707,0.0,0.0,0.0,0.0,0.0,0.0,0.0,0.0,0.0,-0.8628,-0.8622,-0.8622,-0.8622,-0.8622,-0.864,0.0,0.0,0.0,-0.9746,-1.0737,-1.2422,-1.4994,-1.5823,-1.6204,-1.6204,-1.5491,-1.5176,0.0,0.0,0.0,0.0,0.0,0.0,-2.2891,0.0,-2.1764,-2.0453,-1.9598,-1.8737,-1.7942,-1.7942,-1.7623,-1.7034,-1.6298,-1.5259,-1.4131,-1.3385,-1.3119,-1.3127,-1.3119,0.0,0.0,0.0,0.0,-1.335,-1.4562,-1.5093,-1.5823,0.0,0.0,0.0,0.0,0.0,0.0,0.0,0.0,0.0,0.0,0.0,0.0,0.0,0.0,0.0,0.0,0.0,0.0,0.0,0.0,0.0,0.0,0.0,0.0,0.0,0.0,0.0,0.0,0.0,-3.6431,-3.7254,-3.729,-3.7603,-3.8267,-3.8285,-3.8285,-3.8285,-3.8285,-3.8285,-3.8285,-3.8285,-3.7936,-3.7327,-3.7973,-3.8358,-3.8487,-3.8487,-3.8487,-3.8487,-3.8487,-3.8487,-3.8505,-3.8652,-3.8707,-3.8707,-3.8707,-3.8707,-3.8707,0.0,0.0,0.0,0.0,0.0,0.0,0.0,0.0,0.0,0.0,-0.8693,-0.8693,-0.8693,-0.8693,-0.8693,-0.8699,-0.8699,-0.9009,-0.9762,0.0,0.0,-1.4301,-1.505,-1.5452,-1.5452,-1.4725,-1.4659,0.0,0.0,0.0,0.0,0.0,0.0,-2.2841,0.0,0.0,-1.9664,-1.8336,-1.6989,-1.5723,-1.5723,-1.5678,-1.5517,-1.4778,-1.4407,-1.4186,-1.3451,-1.3182,-1.318,-1.3183,-1.3156,0.0,0.0,0.0,0.0,-1.3334,-1.4304,0.0,0.0,0.0,0.0,0.0,0.0,0.0,0.0,0.0,0.0,0.0,0.0,0.0,0.0,0.0,0.0,0.0,0.0,0.0,0.0,0.0,0.0,0.0,0.0,0.0,0.0,0.0,0.0,0.0,-3.5526,-3.5555,-3.6413,-3.645,-3.6505,-3.6615,-3.6615,-3.6615,-3.6615,-3.6615,-3.6615,-3.6615,-3.6615,-3.656,-3.645,-3.656,-3.7,-3.7658,-3.7658,-3.7658,-3.7658,-3.7658,-3.7658,-3.7731,-3.8432,-3.8707,-3.8707,-3.8707,-3.8707,-3.8707,0.0,0.0,0.0,0.0,0.0,0.0,0.0,0.0,0.0,0.0,0.0,-0.9481,-0.9891,-0.9571,-0.9316,-0.9319,-0.8942,-0.919,-1.0343,-1.2108,-1.3424,-1.4169,-1.451,-1.4675,-1.4675,-1.4367,-1.4351,0.0,0.0,0.0,0.0,-1.8823,-2.016,0.0,0.0,0.0,0.0,0.0,-1.6514,-1.5888,-1.5473,-1.5657,0.0,0.0,-1.4626,-1.4978,-1.3674,-1.3209,-1.3208,-1.3201,-1.3175,-1.3165,-1.3189,0.0,0.0,0.0,0.0,0.0,0.0,0.0,0.0,0.0,0.0,0.0,0.0,0.0,0.0,0.0,0.0,0.0,0.0,0.0,0.0,0.0,0.0,0.0,0.0,0.0,0.0,0.0,0.0,0.0,0.0,0.0,0.0,0.0,-3.4458,-3.4651,-3.5536,-3.5573,-3.5807,-3.6285,-3.6303,-3.6064,-3.5573,-3.5573,-3.5573,-3.5573,-3.6064,-3.6046,-3.5591,-3.6083,-3.6486,-3.6831,-3.6831,-3.6831,-3.6868,-3.7309,-3.7492,-3.7529,-3.7896,-3.8303,-3.8652,-3.8193,-3.8303,-3.8707,0.0,0.0,0.0,0.0,0.0,0.0,0.0,0.0,0.0,0.0,0.0,-1.0288,-1.0832,0.0,0.0,0.0,-0.9468,-0.9809,-1.1097,-1.2389,-1.3341,-1.3904,-1.392,-1.392,-1.392,-1.392,0.0,0.0,0.0,0.0,-1.8505,-1.8505,-1.9694,0.0,-2.0456,0.0,0.0,0.0,0.0,0.0,0.0,0.0,0.0,0.0,0.0,0.0,0.0,-1.3852,-1.373,-1.337,-1.3227,-1.3201,-1.3208,0.0,0.0,0.0,0.0,0.0,0.0,0.0,0.0,0.0,0.0,0.0,0.0,0.0,0.0,0.0,0.0,0.0,0.0,0.0,0.0,0.0,0.0,0.0,0.0,0.0,0.0,0.0,0.0,0.0,0.0,0.0,0.0,0.0,-3.3387,-3.3781,-3.4656,-3.4692,-3.4894,-3.5349,-3.5367,-3.4945,-3.4087,-3.4087,-3.4087,-3.4087,-3.4743,-3.4816,-3.4417,-3.5073,-3.5477,-3.5679,-3.5881,-3.6211,-3.6615,-3.678,-3.7125,-3.7474,-3.7272,-3.7808,-3.8579,-3.7584,-3.7826,-3.867,0.0,0.0,0.0,0.0,0.0,0.0,0.0,0.0,0.0,0.0,0.0,-1.0856,-1.0906,-1.0873,-1.0558,-0.9869,-1.0409,-1.1114,-1.1893,-1.2671,-1.3109,-1.3159,-1.3159,0.0,-1.3159,0.0,0.0,0.0,0.0,0.0,-1.8505,-1.8505,-1.9704,-2.1866,-2.1012,-1.99,-1.8556,0.0,0.0,0.0,0.0,-1.5857,0.0,0.0,0.0,0.0,0.0,0.0,-1.5182,-1.3844,-1.3312,0.0,0.0,0.0,0.0,0.0,0.0,0.0,0.0,0.0,0.0,0.0,0.0,0.0,0.0,0.0,0.0,0.0,0.0,0.0,0.0,0.0,0.0,0.0,0.0,0.0,0.0,0.0,0.0,0.0,0.0,0.0,0.0,0.0,0.0,0.0,-3.2519,-3.2933,-3.3825,-3.3862,-3.3532,-3.2821,-3.2784,-3.2412,-3.1599,-3.1599,-3.1599,-3.1599,-3.1635,-3.2027,-3.2729,-3.2766,-3.3206,-3.3972,-3.4729,-3.5973,-3.7327,-3.5775,-3.6083,-3.7419,-3.6666,-3.7312,-3.8505,-3.6945,-3.7349,-3.8597,0.0,0.0,0.0,0.0,0.0,0.0,0.0,0.0,0.0,0.0,0.0,0.0,0.0,-1.1893,-1.1495,-1.1238,-1.1445,-1.1727,-1.1975,-1.2688,-1.3093,-1.3093,-1.3093,-1.3093,-1.3093,0.0,0.0,0.0,0.0,-1.4758,-1.716,-1.7683,-1.8864,-2.0535,-2.0203,-2.004,-1.9854,-1.7471,0.0,0.0,-1.6659,-1.7338,0.0,0.0,0.0,0.0,0.0,0.0,0.0,0.0,0.0,0.0,0.0,0.0,0.0,0.0,0.0,0.0,0.0,0.0,0.0,0.0,0.0,0.0,0.0,0.0,0.0,0.0,0.0,0.0,0.0,0.0,0.0,0.0,0.0,0.0,0.0,0.0,0.0,0.0,0.0,0.0,0.0,0.0,0.0,0.0,0.0,-3.1811,-3.2182,-3.2252,-3.2118,-3.1843,-3.1825,-3.1439,-3.0632,-3.0632,-3.0632,-3.0632,-3.1146,-3.1825,-3.2601,-3.2601,-3.3316,-3.4564,-3.4325,-3.4578,-3.511,-3.5023,-3.5665,-3.6703,-3.6413,-3.7276,-3.8579,-3.7459,-3.7753,-3.867,0.0,0.0,0.0,0.0,0.0,0.0,0.0,0.0,0.0,0.0,0.0,0.0,0.0,0.0,-1.3011,-1.277,-1.229,-1.2108,-1.2356,-1.2828,-1.3093,-1.3093,-1.3093,-1.3093,-1.3093,0.0,0.0,0.0,0.0,0.0,0.0,-1.7075,-1.8222,-1.9424,-1.9373,-1.9976,0.0,0.0,0.0,-1.8511,0.0,-1.9099,-1.9991,0.0,0.0,0.0,0.0,0.0,0.0,0.0,0.0,0.0,0.0,0.0,0.0,0.0,0.0,0.0,0.0,0.0,0.0,0.0,0.0,0.0,0.0,0.0,0.0,0.0,0.0,0.0,0.0,0.0,0.0,0.0,0.0,0.0,0.0,0.0,0.0,0.0,0.0,0.0,0.0,0.0,0.0,0.0,0.0,0.0,-3.1283,-3.1334,-3.1262,-3.0999,-3.0742,-3.0338,-2.9794,-2.9794,-2.9794,-2.9794,-3.0338,-3.1017,-3.1794,-3.2082,-3.2931,-3.4179,-3.3917,-3.4119,-3.4633,-3.4601,-3.544,-3.6652,-3.6083,-3.7037,-3.8579,-3.7492,-3.7771,-3.867,0.0,0.0,0.0,0.0,0.0,0.0,0.0,0.0,0.0,0.0,0.0,0.0,0.0,0.0,0.0,-1.4334,-1.2936,-1.2389,-1.3093,-1.3109,-1.3093,-1.3093,-1.3093,-1.3093,-1.3093,0.0,0.0,0.0,0.0,0.0,0.0,0.0,-1.7869,-1.8642,-1.8676,-1.9693,-2.1296,0.0,-2.0283,-2.0394,0.0,-2.0994,-2.0726,0.0,0.0,0.0,-2.1382,-2.0581,0.0,0.0,0.0,0.0,0.0,0.0,0.0,0.0,0.0,0.0,0.0,0.0,0.0,0.0,0.0,0.0,0.0,0.0,0.0,0.0,0.0,0.0,0.0,0.0,0.0,0.0,0.0,0.0,0.0,0.0,0.0,0.0,0.0,0.0,0.0,0.0,0.0,0.0,-2.9862,-3.0254,-3.1161,-3.1228,-3.0888,-3.0191,-2.9409,-2.9005,-2.9005,-2.9005,-2.9005,-2.9005,-2.9005,-2.9427,-3.0265,-3.1035,-3.1843,-3.2674,-3.3458,-3.4724,-3.6101,-3.4468,-3.5234,-3.7272,-3.5683,-3.6564,-3.8505,-3.6964,-3.7386,-3.8615,0.0,0.0,0.0,0.0,0.0,0.0,0.0,0.0,0.0,0.0,0.0,0.0,0.0,0.0,-1.6005,-1.5812,-1.4927,-1.4254,-1.392,-1.3391,-1.3093,-1.3093,-1.3093,-1.3093,-1.3093,0.0,0.0,0.0,0.0,0.0,0.0,0.0,0.0,0.0,-1.8325,-1.9231,-1.9838,-1.8989,0.0,0.0,-2.1872,-2.2427,0.0,0.0,0.0,0.0,0.0,-2.3397,0.0,0.0,-2.0315,-1.8157,0.0,0.0,0.0,0.0,0.0,0.0,-1.4112,0.0,0.0,0.0,0.0,0.0,0.0,-2.027,0.0,0.0,0.0,0.0,0.0,0.0,0.0,0.0,0.0,0.0,0.0,0.0,0.0,0.0,0.0,0.0,0.0,0.0,0.0,0.0,-2.9002,-2.9142,-2.9411,-2.9515,-2.9496,-2.9335,-2.9115,-2.9005,-2.9005,-2.9005,-2.9005,-2.9005,-2.9005,-2.9721,-3.1085,-3.1305,-3.2155,-3.3476,-3.3697,-3.4064,-3.4468,-3.399,-3.4559,-3.5775,-3.6523,-3.7569,-3.8726,-3.8854,-3.9184,-3.9441,0.0,0.0,0.0,0.0,0.0,0.0,0.0,0.0,0.0,0.0,0.0,0.0,0.0,0.0,0.0,-1.7287,-1.6072,-1.512,-1.4679,-1.3681,-1.3102,-1.3145,-1.34,-1.3556,-1.3556,0.0,0.0,0.0,0.0,0.0,0.0,0.0,0.0,0.0,0.0,0.0,0.0,0.0,0.0,0.0,-2.3077,0.0,0.0,-2.5564,-2.5967,0.0,0.0,0.0,-2.4119,-2.4068,-2.2116,0.0,0.0,0.0,0.0,0.0,0.0,0.0,0.0,0.0,0.0,0.0,0.0,0.0,-1.7997,-1.9307,-2.0491,0.0,0.0,0.0,0.0,0.0,0.0,0.0,0.0,0.0,0.0,0.0,0.0,0.0,0.0,0.0,0.0,-2.8147,-2.817,-2.8383,-2.8556,-2.8669,-2.8749,-2.887,-2.8952,-2.9005,-2.9005,-2.9005,-2.9005,-2.9005,-2.9005,-2.9005,-2.9005,-2.9482,-3.0411,-3.1091,-3.2082,-3.333,-3.3642,-3.399,-3.427,-3.3935,-3.427,-3.5133,-3.6486,-3.7492,-3.8303,-3.9093,-3.9405,-3.9331,0.0,0.0,-1.3681,-1.516,-1.4884,0.0,0.0,0.0,0.0,0.0,0.0,0.0,0.0,0.0,0.0,0.0,-1.6868,-1.5606,-1.5437,-1.4051,-1.3228,-1.3189,-1.3842,-1.4195,-1.4195,0.0,0.0,0.0,0.0,0.0,0.0,0.0,0.0,0.0,-1.5635,-1.6653,0.0,0.0,0.0,-2.1988,-2.4078,-2.4818,0.0,0.0,-2.6188,0.0,-2.6145,-2.6202,-2.6073,-2.5499,-2.3485,0.0,0.0,0.0,0.0,0.0,-1.6597,0.0,0.0,0.0,0.0,0.0,0.0,0.0,-1.8643,-1.8931,-1.9207,0.0,0.0,0.0,0.0,0.0,0.0,0.0,0.0,0.0,0.0,0.0,0.0,0.0,0.0,0.0,-2.7423,-2.766,-2.7843,-2.7959,-2.8368,-2.8662,-2.8785,-2.8923,-2.8994,-2.9005,-2.9005,-2.9005,-2.9005,-2.9005,-2.9005,-2.9005,-2.9005,-2.9097,-2.9317,-3.0742,-3.188,-3.2766,-3.3495,-3.4211,-3.4821,-3.41,-3.4215,-3.4968,-3.6028,-3.6868,-3.7603,-3.8505,-3.8836,-3.8817,-1.2886,-1.3473,-1.446,-1.5939,0.0,0.0,0.0,0.0,0.0,0.0,0.0,0.0,0.0,0.0,0.0,0.0,0.0,-1.7526,-1.6335,-1.4824,-1.3748,-1.3217,-1.3831,-1.4203,-1.4203,-1.4771,0.0,0.0,0.0,0.0,0.0,0.0,0.0,0.0,-1.4571,-1.482,0.0,0.0,0.0,-2.1302,-2.2707,0.0,-2.617,-2.7759,-2.8305,-2.8239,-2.8294,-2.7579,-2.6391,0.0,-2.3814,-2.257,0.0,0.0,0.0,0.0,0.0,0.0,0.0,0.0,0.0,0.0,0.0,0.0,-1.6298,-1.7031,-1.7778,0.0,0.0,0.0,0.0,0.0,0.0,0.0,0.0,0.0,0.0,0.0,0.0,0.0,0.0,0.0,-2.5815,-2.5905,-2.6277,-2.7152,-2.8126,-2.8724,-2.8785,-2.8881,-2.894,-2.9005,-2.9005,-2.9005,-2.9005,-2.9005,-2.9005,-2.9005,-2.9005,-2.9684,-3.0944,-3.1268,-3.2192,-3.3568,-3.3733,-3.3899,-3.4027,-3.3862,-3.3899,-3.4247,-3.6427,-3.7364,-3.7676,-3.9129,-3.9662,-3.957,-1.3722,-1.4245,-1.5332,-1.7127,0.0,0.0,0.0,0.0,0.0,0.0,0.0,0.0,0.0,0.0,0.0,0.0,0.0,0.0,0.0,0.0,-1.4111,-1.3814,-1.441,-1.4911,-1.5294,-1.5296,-1.5309,0.0,0.0,0.0,0.0,0.0,0.0,0.0,0.0,0.0,0.0,0.0,-1.8822,-2.1097,-2.344,0.0,-2.72,-2.8453,-2.8929,-2.8863,-2.867,-2.7893,-2.6802,-2.5853,-2.477,0.0,0.0,-2.2049,-2.1638,0.0,-1.9997,-2.0627,0.0,0.0,0.0,-1.8158,0.0,0.0,0.0,-1.698,-1.7354,-1.8414,0.0,0.0,0.0,0.0,0.0,0.0,0.0,0.0,0.0,0.0,0.0,0.0,0.0,0.0,-2.5129,-2.5302,-2.5906,-2.7117,-2.7761,-2.83,-2.8767,-2.887,-2.8929,-2.9005,-2.9005,-2.9005,-2.9005,-2.9005,-2.9005,-2.9005,-2.9005,-2.9427,-3.0228,-3.1017,-3.2063,-3.322,-3.3623,-3.4027,-3.4362,-3.3972,-3.3807,-3.4009,-3.6097,-3.6905,-3.7107,-3.8707,-3.9294,-3.9239,-1.4526,-1.5,-1.6127,-1.8158,0.0,0.0,0.0,0.0,0.0,0.0,0.0,0.0,0.0,0.0,0.0,0.0,0.0,0.0,0.0,0.0,0.0,-1.5071,-1.5375,-1.5908,-1.6636,-1.5932,-1.5684,0.0,0.0,0.0,0.0,0.0,0.0,0.0,0.0,0.0,0.0,0.0,0.0,-2.1562,0.0,-2.6301,-2.7291,-2.8278,-2.8656,-2.862,-2.8327,-2.7791,-2.7131,-2.6655,0.0,-2.4372,-2.3562,-2.3368,0.0,0.0,0.0,0.0,0.0,0.0,0.0,0.0,0.0,-1.8116,0.0,0.0,0.0,-1.9325,0.0,0.0,0.0,0.0,0.0,0.0,0.0,0.0,0.0,0.0,0.0,0.0,0.0,0.0,0.0,-2.4489,-2.53,-2.6748,-2.6964,-2.7482,-2.8506,-2.8778,-2.8929,-2.9005,-2.9005,-2.9005,-2.9005,-2.9005,-2.9005,-2.9005,-2.9005,-2.9078,-2.928,-3.0577,-3.1696,-3.2638,-3.3293,-3.4032,-3.4729,-3.4082,-3.3807,-3.3954,-3.5459,-3.6046,-3.6248,-3.7863,-3.8469,-3.8487,-1.5193,-1.5773,-1.674,-1.824,0.0,0.0,0.0,0.0,0.0,0.0,0.0,0.0,0.0,0.0,0.0,0.0,0.0,0.0,-2.2029,0.0,0.0,0.0,-1.6806,-1.6802,-1.7528,-1.677,-1.5739,-1.445,0.0,0.0,0.0,0.0,0.0,0.0,-1.5622,0.0,0.0,0.0,-2.0519,0.0,-2.4248,-2.4961,0.0,-2.6826,-2.7526,-2.7842,-2.7924,-2.7663,-2.7122,0.0,-2.5561,-2.5109,0.0,-2.412,0.0,0.0,0.0,0.0,0.0,0.0,0.0,0.0,-1.9909,0.0,0.0,0.0,-1.7112,-1.6132,0.0,0.0,0.0,0.0,0.0,0.0,0.0,0.0,0.0,0.0,0.0,0.0,0.0,0.0,0.0,-2.1931,-2.2952,-2.4784,-2.5201,-2.6059,-2.7649,-2.8486,-2.8929,-2.9005,-2.9005,-2.9005,-2.9005,-2.9005,-2.9005,-2.9005,-2.9005,-2.9372,-3.0081,-3.0246,-3.1164,-3.2601,-3.2693,-3.3201,-3.3935,-3.3844,-3.3807,-3.3899,-3.4784,-3.5151,-3.5353,-3.7019,-3.7639,-3.7749,-1.4659,-1.5597,-1.6707,-1.7739,0.0,0.0,0.0,0.0,0.0,0.0,0.0,0.0,0.0,0.0,0.0,0.0,0.0,-2.4799,0.0,0.0,0.0,0.0,0.0,0.0,-1.8282,-1.6697,-1.5754,-1.5539,-1.4205,0.0,0.0,0.0,0.0,0.0,-1.7496,0.0,-2.035,0.0,0.0,0.0,0.0,0.0,0.0,-2.7858,-2.8782,-2.8678,-2.8518,-2.7947,-2.7283,0.0,-2.6354,0.0,0.0,0.0,0.0,0.0,0.0,0.0,0.0,0.0,0.0,0.0,0.0,0.0,0.0,0.0,-1.6923,0.0,0.0,0.0,0.0,0.0,0.0,0.0,0.0,0.0,0.0,0.0,0.0,0.0,0.0,0.0,0.0,0.0,0.0,0.0,-2.4879,-2.5782,-2.7503,-2.7939,-2.8418,-2.8987,-2.9005,-2.9005,-2.9005,-2.9005,-2.9005,-2.9005,-2.9005,-2.9189,-2.9519,-2.9989,-3.0815,-3.1935,-3.2399,-3.3073,-3.3807,-3.3807,-3.3807,-3.3825,-3.4174,-3.4582,-3.5206,-3.6886,-3.7492,-3.7621,-1.4202,0.0,0.0,0.0,0.0,0.0,0.0,0.0,0.0,0.0,0.0,0.0,-2.7483,-2.7958,0.0,0.0,0.0,-2.7334,0.0,0.0,-2.2195,0.0,0.0,0.0,0.0,0.0,-1.5779,-1.5898,0.0,0.0,0.0,0.0,0.0,0.0,0.0,-2.0723,-2.2935,0.0,0.0,-2.4121,-2.6302,-2.7025,-2.7061,-2.9129,-2.9764,-2.9532,-2.9185,-2.8476,-2.7791,-2.8438,-2.7181,0.0,-2.7705,0.0,0.0,0.0,0.0,0.0,-2.2851,0.0,0.0,0.0,0.0,0.0,0.0,0.0,0.0,0.0,0.0,0.0,0.0,0.0,0.0,0.0,0.0,0.0,0.0,0.0,0.0,0.0,0.0,0.0,0.0,0.0,0.0,0.0,0.0,-2.5118,-2.6847,-2.7381,-2.7949,-2.8656,-2.8895,-2.9005,-2.9005,-2.8982,-2.8982,-2.9005,-2.897,-2.894,-2.8982,-2.9557,-3.0393,-3.1414,-3.2001,-3.2826,-3.3807,-3.3807,-3.3807,-3.3807,-3.3807,-3.4174,-3.4876,-3.6541,-3.718,-3.7327,-1.4202,-1.5398,0.0,0.0,0.0,0.0,0.0,0.0,0.0,0.0,0.0,0.0,0.0,0.0,0.0,0.0,0.0,-3.3288,-3.1089,0.0,-2.6488,0.0,0.0,-2.06,0.0,0.0,0.0,0.0,0.0,0.0,0.0,0.0,0.0,0.0,0.0,-2.099,-2.2642,-2.4483,-2.6366,-2.8115,-2.828,-2.9609,-3.1333,0.0,-2.9648,-2.9948,-2.9588,0.0,0.0,-2.8095,-2.7737,0.0,0.0,0.0,0.0,0.0,0.0,0.0,0.0,0.0,0.0,-2.0586,0.0,0.0,0.0,0.0,-1.8456,0.0,0.0,0.0,0.0,0.0,0.0,0.0,0.0,0.0,0.0,0.0,0.0,0.0,0.0,0.0,0.0,0.0,0.0,0.0,0.0,0.0,-2.5189,-2.6812,-2.7727,-2.7842,-2.8583,-2.9005,-2.9005,-2.894,-2.894,-2.9005,-2.8876,-2.8846,-2.8905,-2.8852,-2.974,-3.1302,-3.132,-3.2274,-3.3807,-3.3807,-3.3807,-3.3807,-3.3807,-3.3825,-3.4045,-3.5716,-3.634,-3.656,0.0,0.0,0.0,0.0,0.0,0.0,0.0,-2.1626,0.0,0.0,0.0,0.0,0.0,0.0,-3.5797,0.0,0.0,-3.5047,-3.2797,-3.0328,0.0,0.0,0.0,-2.2454,0.0,0.0,0.0,0.0,0.0,0.0,0.0,0.0,0.0,0.0,0.0,-2.2917,0.0,0.0,0.0,0.0,0.0,-3.0578,-3.2326,0.0,0.0,-3.069,-3.03,-2.9781,0.0,-2.9861,-2.9022,-2.7991,-2.9242,-2.8412,-2.7213,-2.8457,-2.8103,0.0,0.0,0.0,-2.6688,-2.2877,0.0,0.0,0.0,0.0,0.0,0.0,0.0,0.0,0.0,0.0,0.0,0.0,0.0,0.0,0.0,0.0,0.0,0.0,0.0,0.0,0.0,0.0,0.0,0.0,0.0,0.0,0.0,-2.6198,-2.7171,-2.7769,-2.8583,-2.9005,-2.9005,-2.8982,-2.897,-2.8929,-2.8893,-2.8858,-2.8834,-2.881,-2.971,-3.1302,-3.1302,-3.2256,-3.3807,-3.3807,-3.3807,-3.3807,-3.3807,-3.3807,-3.399,-3.5679,-3.6303,-3.6597,-1.7155,0.0,0.0,0.0,0.0,0.0,0.0,0.0,0.0,0.0,-3.009,0.0,-3.6721,0.0,-3.7973,0.0,-3.8396,-3.6891,-3.4349,-3.2611,0.0,-2.9018,-2.6674,0.0,0.0,0.0,0.0,0.0,0.0,-1.8302,0.0,0.0,0.0,0.0,0.0,0.0,0.0,0.0,-2.9418,0.0,0.0,-3.1685,0.0,0.0,-3.1695,-3.1255,0.0,-3.0443,-3.0167,-3.0946,-3.0226,-2.9279,-3.0734,-2.9852,-2.8513,-2.9998,-2.954,-2.8474,-2.8117,-2.8607,0.0,-2.481,-2.4324,0.0,-2.0506,0.0,0.0,0.0,0.0,0.0,0.0,0.0,0.0,0.0,0.0,0.0,0.0,-1.2124,0.0,0.0,0.0,0.0,0.0,0.0,0.0,0.0,0.0,0.0,0.0,0.0,-2.6779,-2.7346,-2.8436,-2.9005,-2.9005,-2.8982,-2.894,-2.8905,-2.8839,-2.881,-2.8761,-2.8737,-2.9496,-3.0856,-3.1148,-3.2078,-3.3403,-3.3678,-3.3807,-3.3807,-3.3807,-3.3807,-3.3972,-3.533,-3.6211,-3.6997,0.0,0.0,0.0,0.0,-1.9392,0.0,0.0,0.0,-2.7303,0.0,-3.1486,-3.4001,-3.7797,-3.8853,-3.9834,-4.1255,-4.0663,0.0,-3.6124,-3.5098,0.0,0.0,-2.9991,-2.9128,-2.9061,0.0,0.0,0.0,0.0,0.0,0.0,0.0,0.0,0.0,-2.1869,0.0,-2.6562,-2.809,-3.0116,-3.2325,-3.3071,-3.2959,-3.2334,-3.2317,-3.2056,-3.1657,-3.1329,-3.119,-3.119,-3.119,-3.119,-3.119,-3.119,-3.119,-3.1207,-3.1241,-3.1735,-3.1765,-2.9557,-2.9505,-2.9334,-2.6337,0.0,0.0,0.0,0.0,-2.3227,0.0,0.0,0.0,0.0,0.0,0.0,0.0,0.0,0.0,0.0,0.0,0.0,0.0,0.0,0.0,0.0,0.0,0.0,0.0,0.0,0.0,0.0,0.0,-2.6431,-2.6638,-2.818,-2.9005,-2.9005,-2.8929,-2.8905,-2.8905,-2.8755,-2.8694,-2.8694,-2.8637,-2.911,-3.0044,-3.0859,-3.1728,-3.2656,-3.3476,-3.3807,-3.3807,-3.3807,-3.3807,-3.3899,-3.4747,-3.6083,-3.7566,-1.9432,-2.0194,-2.1069,0.0,-2.1066,-2.1062,0.0,0.0,0.0,0.0,-3.5543,-3.8644,-4.2455,-4.3058,-4.3328,-4.3701,-4.2506,0.0,0.0,0.0,0.0,-3.5391,-3.2852,-3.0939,-2.9837,-2.7199,0.0,-2.3451,0.0,0.0,-2.1234,0.0,0.0,0.0,0.0,0.0,-2.7327,-2.7804,-2.9953,-3.3074,-3.2993,-3.2844,0.0,0.0,-3.2056,-3.1657,-3.1329,-3.119,-3.119,-3.119,-3.119,-3.119,-3.119,-3.119,-3.1309,-3.187,-3.1769,-3.1461,-3.1427,-3.1154,-3.0408,-2.8408,-2.7549,-2.6724,0.0,0.0,0.0,0.0,0.0,0.0,0.0,0.0,0.0,0.0,0.0,0.0,0.0,0.0,0.0,0.0,0.0,0.0,0.0,0.0,0.0,0.0,0.0,0.0,0.0,0.0,0.0,-2.7402,-2.8473,-2.9005,-2.9005,-2.8929,-2.8905,-2.8905,-2.8755,-2.8694,-2.8694,-2.8637,-2.911,-3.0044,-3.0859,-3.1728,-3.2656,-3.3476,-3.3807,-3.3807,-3.3807,-3.3807,-3.3972,-3.544,-3.6229,-3.6798,-2.0638,0.0,0.0,-2.3352,0.0,0.0,-2.528,0.0,0.0,-3.424,-3.6966,0.0,-4.2347,-4.3819,-4.4615,-4.4615,-4.321,0.0,0.0,0.0,0.0,-3.5881,-3.4815,-3.341,-3.1579,-2.9651,0.0,-2.5262,0.0,0.0,-2.1812,0.0,0.0,0.0,0.0,-2.3381,0.0,-2.8076,-3.0401,-3.2661,-3.2749,0.0,0.0,-3.2179,-3.1822,-3.1466,-3.1269,-3.119,-3.119,-3.119,-3.119,-3.119,-3.119,-3.119,-3.1275,-3.1701,-3.1532,-3.1275,-3.1718,-3.1532,-3.0987,-3.0068,-2.9561,-2.8869,-2.7246,-2.7194,-2.7378,0.0,0.0,0.0,0.0,0.0,0.0,0.0,0.0,0.0,0.0,0.0,0.0,0.0,0.0,0.0,0.0,0.0,0.0,0.0,0.0,0.0,0.0,0.0,0.0,-2.6646,-2.8546,-2.9354,-2.9005,-2.9288,-2.9253,-2.8905,-2.8755,-2.8694,-2.8694,-2.8637,-2.8911,-2.9521,-3.0336,-3.1216,-3.2137,-3.2944,-3.3476,-3.3807,-3.3807,-3.4009,-3.4504,-3.5807,-3.6064,-3.5973,0.0,0.0,0.0,0.0,0.0,0.0,0.0,-2.9727,0.0,-3.5492,0.0,-3.9225,-4.0417,-4.2871,-4.4412,-4.4327,0.0,-4.1373,-3.9546,-3.9774,-3.8505,-3.5216,-3.6203,-3.5797,-3.3592,-3.2002,0.0,0.0,0.0,0.0,0.0,0.0,0.0,0.0,0.0,0.0,0.0,-2.8661,-3.1016,0.0,-3.2451,-3.2626,-3.2529,-3.205,-3.1747,-3.1557,-3.1396,-3.1275,-3.119,-3.119,-3.119,-3.119,-3.119,-3.119,-3.119,-3.119,-3.119,-3.119,-3.119,-3.119,-3.119,-3.119,-3.119,-3.0816,-2.9422,-2.9119,-2.9099,-2.9038,-2.7391,-2.6468,0.0,0.0,0.0,0.0,0.0,0.0,0.0,0.0,0.0,0.0,0.0,0.0,0.0,0.0,0.0,0.0,0.0,0.0,0.0,0.0,0.0,-2.5732,-2.8553,-2.9812,-2.9317,0.0,-2.9704,-2.921,-2.8877,-2.8694,-2.8706,-2.8746,-2.8838,-2.9016,-2.9922,-3.0795,-3.1623,-3.243,-3.3183,-3.3807,-3.3807,-3.4215,-3.4949,-3.5807,-3.5646,-3.5243,0.0,0.0,0.0,0.0,0.0,-3.0828,-3.394,-3.5845,-3.7506,-3.9082,-4.1694,-4.3267,-4.2878,-4.3301,-4.3369,-4.2743,-4.1897,0.0,0.0,0.0,0.0,-3.8227,-3.7303,-3.6034,-3.4336,-3.2273,-2.9947,0.0,0.0,0.0,0.0,0.0,0.0,0.0,0.0,0.0,-2.6714,-2.8808,0.0,-3.302,-3.2212,-3.2788,-3.4017,-3.3053,-3.3035,-3.3399,-3.2448,-3.1718,-3.119,-3.119,-3.119,-3.119,-3.119,-3.119,-3.119,-3.119,-3.119,-3.119,-3.119,-3.119,-3.119,-3.119,-3.119,-3.1123,-3.0833,-3.0782,-3.0782,-3.0762,-2.9852,-2.8798,-2.7996,0.0,0.0,0.0,0.0,0.0,0.0,0.0,0.0,0.0,0.0,0.0,0.0,0.0,0.0,0.0,0.0,0.0,0.0,0.0,0.0,0.0,-2.889,0.0,0.0,0.0,-2.9728,-3.0931,-2.943,-2.8737,-2.8792,-2.9334,-2.965,-2.9867,-3.1339,-3.2135,-3.2449,-3.3256,-3.3678,-3.3807,-3.3807,-3.3899,-3.4119,-3.4931,-3.5133,-3.5243,0.0,0.0,0.0,0.0,0.0,0.0,0.0,-4.0113,0.0,-4.0257,-4.1339,-4.21,-4.1719,-4.2699,-4.324,-4.2912,-4.1847,-4.1356,-4.1711,-4.002,-3.8819,-3.8447,-3.7388,0.0,-3.4523,-3.3457,-3.1162,-2.7593,0.0,0.0,0.0,0.0,0.0,0.0,0.0,-2.4183,0.0,0.0,0.0,-3.3131,-3.2978,-3.3429,-3.415,-3.3431,-3.3393,-3.3625,-3.3083,-3.2412,-3.1718,-3.1326,-3.119,-3.119,-3.119,-3.119,-3.119,-3.119,-3.119,-3.119,-3.119,-3.119,-3.119,-3.119,-3.119,-3.119,-3.119,-3.119,-3.119,-3.119,-3.0538,-2.9366,-2.7429,-2.4845,0.0,0.0,0.0,0.0,0.0,0.0,0.0,0.0,0.0,0.0,0.0,0.0,0.0,0.0,0.0,0.0,0.0,0.0,0.0,0.0,0.0,0.0,0.0,0.0,0.0,-3.0088,-2.9544,-2.9099,-2.8785,-2.9914,-3.028,-3.0068,-3.1253,-3.2099,-3.2656,-3.3476,-3.3807,-3.3807,-3.3807,-3.3807,-3.3954,-3.522,-3.5665,-3.5862,0.0,-2.8301,0.0,0.0,-3.5137,0.0,-3.9792,-4.2642,-4.3741,-4.1373,-4.0899,-4.073,-4.0569,-4.1972,-4.2878,-4.2726,-4.1644,-4.0967,-4.0967,-3.958,-3.8514,-3.7939,-3.7026,-3.5977,-3.4759,-3.4573,-3.2549,0.0,0.0,0.0,0.0,0.0,0.0,0.0,0.0,0.0,0.0,0.0,-3.2237,-3.3284,-3.3711,-3.4051,-3.4285,-3.382,-3.3744,-3.3846,-3.3525,-3.3034,-3.2412,-3.1495,-3.119,-3.119,-3.119,-3.119,-3.119,-3.119,-3.119,-3.119,-3.119,-3.119,-3.119,-3.119,-3.119,-3.119,-3.119,-3.119,-3.119,-3.119,-3.0734,-2.9614,-2.7194,-2.5531,0.0,0.0,0.0,0.0,0.0,0.0,0.0,0.0,0.0,0.0,0.0,0.0,0.0,0.0,0.0,0.0,0.0,0.0,0.0,0.0,0.0,-2.936,-2.9208,0.0,-3.0002,-2.9905,-3.0028,-2.9782,-2.9257,-3.064,-3.1002,-3.0573,-3.1376,-3.2167,-3.2894,-3.3532,-3.3807,-3.3807,-3.3807,-3.3807,-3.3972,-3.5477,-3.6028,-3.6138,0.0,0.0,0.0,0.0,0.0,0.0,-3.9961,-4.2605,-4.4513,-4.4225,-4.3538,-4.2844,-4.2168,-4.1677,-4.1136,-4.0468,-4.0282,-4.0214,-4.0214,-3.8819,-3.7973,-3.7905,-3.6479,-3.5633,-3.5498,-3.4844,-3.3605,0.0,0.0,0.0,0.0,0.0,0.0,0.0,0.0,0.0,0.0,-3.1092,-3.2452,-3.4299,-3.3706,-3.4261,-3.5379,-3.468,-3.481,-3.5211,-3.3897,-3.3372,-3.3085,-3.1664,-3.119,-3.119,-3.119,-3.119,-3.119,-3.119,-3.119,-3.119,-3.119,-3.119,-3.119,-3.119,-3.119,-3.119,-3.119,-3.119,-3.119,-3.119,-3.114,-3.0374,-2.7931,-2.8453,-2.8387,0.0,0.0,0.0,0.0,0.0,0.0,0.0,0.0,0.0,0.0,0.0,0.0,0.0,0.0,0.0,0.0,0.0,0.0,-2.5811,0.0,-2.7826,-2.9892,-3.0082,-3.1168,-3.3145,-3.175,-3.1,-3.0898,-3.1769,-3.217,-3.2215,-3.309,-3.3542,-3.3697,-3.377,-3.3807,-3.3807,-3.3807,-3.3807,-3.3917,-3.4784,-3.5133,-3.5261,0.0,0.0,0.0,0.0,0.0,0.0,0.0,-4.3809,-4.4615,-4.4615,-4.391,-4.3274,-4.2997,-4.1914,-4.1085,-4.0781,-4.0367,-4.0096,-4.0096,-3.8717,-3.7905,-3.7905,-3.6411,-3.56,-3.56,-3.5295,-3.4175,0.0,0.0,0.0,0.0,0.0,0.0,0.0,0.0,-3.0367,-3.1834,-3.3246,-3.4353,-3.5126,-3.4839,-3.5059,-3.5566,-3.5261,-3.5329,-3.5515,-3.4923,-3.4167,-3.3389,-3.322,-3.229,-3.119,-3.119,-3.1495,-3.1769,-3.1326,-3.1495,-3.1769,-3.1309,-3.119,-3.119,-3.119,-3.119,-3.119,-3.119,-3.119,-3.119,-3.119,-3.119,-3.09,-2.9947,-2.9153,-2.8563,0.0,0.0,0.0,0.0,0.0,0.0,0.0,0.0,0.0,0.0,0.0,0.0,0.0,0.0,0.0,0.0,0.0,0.0,-2.5334,0.0,-2.9404,-3.0827,-3.0845,-3.1307,-3.2165,-3.196,-3.1565,-3.108,-3.2367,-3.3019,-3.3145,-3.3565,-3.378,-3.3807,-3.3807,-3.3807,-3.3844,-3.4325,-3.4509,-3.4619,-3.5477,-3.5789,-3.5844,-3.8405,0.0,-3.8715,0.0,-4.1673,-4.2098,-4.4265,-4.4412,-4.4231,-4.4231,-4.3369,-4.2844,-4.3064,-4.1762,-4.0882,-4.0882,-4.0417,-4.0096,-4.0096,-3.892,-3.8125,-3.7922,-3.6654,0.0,-3.56,-3.56,-3.48,-3.3208,-3.1479,0.0,0.0,0.0,0.0,0.0,-3.1263,-3.2583,-3.3309,-3.4918,-3.56,-3.56,-3.56,-3.56,-3.56,-3.56,-3.56,-3.5566,-3.5346,-3.4624,-3.3778,-3.4066,-3.3136,-3.1799,-3.1579,-3.1735,-3.1921,-3.1596,-3.1904,-3.2226,-3.1918,-3.1681,-3.1512,-3.1512,-3.136,-3.119,-3.119,-3.119,-3.119,-3.119,-3.119,-3.119,-3.119,-2.9886,-2.9006,-2.9668,0.0,0.0,0.0,0.0,0.0,0.0,0.0,-2.4197,-2.3673,0.0,0.0,0.0,0.0,0.0,0.0,0.0,0.0,0.0,0.0,0.0,0.0,-3.1424,-3.1725,-3.1887,-3.2411,-3.2319,-3.1745,-3.2911,-3.352,-3.3647,-3.3753,-3.3807,-3.3807,-3.3807,-3.3807,-3.3862,-3.4417,-3.4656,-3.4729,-3.5349,-3.5716,-3.5881,-4.06,-4.0987,-4.1714,-4.413,-4.4564,-4.4564,-4.4598,-4.3927,-4.3409,-4.3409,-4.2151,-4.1508,-4.2219,-4.101,-4.0113,-4.0113,-4.0113,-4.0096,-4.0096,-3.9394,-3.8667,0.0,0.0,-3.64,-3.5616,-3.56,-3.5583,-3.5566,0.0,0.0,-3.207,0.0,-2.9998,-3.2242,-3.2276,-3.3508,-3.5566,-3.5583,-3.56,-3.56,-3.56,-3.56,-3.56,-3.56,-3.56,-3.5498,-3.4776,-3.4489,-3.437,-3.366,-3.3406,-3.3254,-3.253,-3.1802,-3.1343,-3.209,-3.2293,-3.2462,-3.3186,-3.2831,-3.2293,-3.2293,-3.1752,-3.119,-3.119,-3.119,-3.119,-3.119,-3.119,-3.119,-3.119,-3.1173,-3.0683,-2.9247,0.0,0.0,0.0,0.0,0.0,0.0,-2.4416,-2.4399,-2.4382,0.0,0.0,0.0,0.0,0.0,0.0,0.0,0.0,-2.668,-2.8118,0.0,-3.0007,-3.1665,-3.283,-3.3473,-3.3473,-3.3448,-3.3375,-3.3534,-3.3629,-3.3698,-3.378,-3.3807,-3.3807,-3.3807,-3.3807,-3.3807,-3.3807,-3.3807,-3.3825,-3.3825,-3.4325,-3.4912,-4.3314,-4.3477,-4.3696,-4.4479,-4.4615,-4.4615,-4.4615,-4.3927,-4.3392,-4.3392,-4.2134,-4.1288,-4.1525,-4.0663,-4.0096,0.0,-4.0096,-4.0096,0.0,-3.9419,-3.8667,-3.7939,-3.7178,-3.6417,-3.5616,-3.56,-3.56,-3.56,0.0,0.0,0.0,-3.2283,-3.2857,-3.4556,-3.4556,-3.4923,-3.56,-3.56,-3.56,-3.56,-3.56,-3.56,-3.56,-3.56,-3.56,-3.5566,-3.5329,-3.4928,-3.4539,-3.4827,-3.4213,-3.3457,-3.3711,-3.3626,-3.3389,-3.3119,-3.3406,-3.3728,-3.3474,-3.3237,-3.2933,-3.2429,-3.2124,-3.1819,-3.1309,-3.119,-3.119,-3.119,-3.119,-3.119,-3.119,-3.0784,-3.0125,-2.9162,-2.8535,0.0,0.0,0.0,0.0,0.0,0.0,-2.5981,0.0,-2.5981,0.0,0.0,0.0,0.0,0.0,0.0,0.0,0.0,-2.9882,0.0,-3.2585,-3.3071,-3.3405,-3.3563,-3.352,-3.3466,-3.3393,-3.3534,-3.3619,-3.3647,-3.3753,-3.3807,-3.3807,-3.3807,-3.3807,-3.3844,-3.4399,-3.4981,-3.5495,-3.5495,-3.6009,-3.6505,-4.457,-4.4615,-4.4615,-4.4615,-4.4615,-4.4615,-4.4615,-4.3673,-4.2997,-4.2997,-4.1694,-4.0781,-4.0781,-4.0383,0.0,-4.0096,-4.0096,-4.0096,-4.0096,-3.9673,-3.9073,-3.8345,-3.7855,-3.7263,-3.6479,0.0,0.0,-3.6062,-3.4844,-3.4387,-3.4675,-3.437,-3.4721,-3.56,-3.56,-3.56,-3.56,-3.56,-3.56,-3.56,-3.56,-3.56,-3.56,-3.56,-3.56,-3.56,-3.56,-3.5295,-3.4979,-3.543,-3.4991,-3.432,-3.4776,-3.4912,-3.4776,-3.4032,-3.4134,-3.4455,-3.4286,-3.4032,-3.3643,-3.2903,-3.2513,-3.2107,-3.136,-3.141,-3.1532,-3.1258,-3.119,-3.119,-3.119,-3.0818,-3.0176,-2.9162,-2.8569,-2.7892,-2.6843,0.0,0.0,0.0,0.0,0.0,0.0,-2.5847,0.0,0.0,0.0,0.0,0.0,0.0,0.0,-2.9052,-3.1314,0.0,-3.3564,-3.3625,-3.3629,-3.3605,-3.38,-3.3887,-3.3905,-3.4313,-3.4513,-3.4556,-3.4669,-3.4559,-3.4252,-3.4252,-3.4082,-3.3844,-3.4344,-3.5059,-3.5807,-3.5807,-3.6523,-3.7309,-4.4615,-4.4615,0.0,0.0,-4.4615,0.0,-4.4615,-4.3318,-4.2371,-4.2371,-4.1145,-4.0248,-4.0248,-4.0248,-4.0231,-4.018,0.0,0.0,0.0,-4.0096,-3.9774,-3.9022,-3.8988,-3.865,-3.7922,-3.7905,-3.7533,-3.6795,-3.5994,-3.5994,-3.6711,-3.596,-3.56,-3.56,-3.56,-3.56,-3.56,-3.56,-3.56,-3.56,-3.56,-3.56,-3.56,-3.56,-3.56,-3.56,-3.56,-3.56,-3.56,-3.56,-3.56,-3.56,-3.56,-3.56,-3.5464,-3.4776,-3.4573,-3.4726,-3.5397,-3.5115,-3.4387,-3.366,-3.2916,-3.2209,-3.1512,-3.1887,-3.2175,-3.1427,-3.1275,-3.1258,-3.1207,-3.1157,-3.0649,-2.923,-2.8959,-2.84,-2.6911,0.0,0.0,0.0,0.0,0.0,0.0,-2.4685,-2.519,0.0,0.0,0.0,0.0,0.0,-2.846,-3.0716,-3.2305,-3.3139,-3.3136,-3.3412,-3.3595,-3.3682,-3.4286,-3.4652,-3.4811,-3.5617,-3.6039,-3.6113,-3.6237,-3.5793,-3.4962,-3.4962,-3.4467,-3.3753,-3.3776,-3.4307,-3.5026,-3.5109,-3.6149,-3.7396,0.0,0.0,-4.4615,-4.4615,-4.4615,-4.4615,-4.4615,-4.3758,-4.3149,-4.3149,-4.2337,-4.1788,-4.1788,-4.1788,-4.1542,-4.0984,-4.0409,-4.0096,-4.0096,-4.0096,-3.9774,-3.9022,-3.8988,-3.865,-3.7922,-3.7905,-3.7533,-3.6795,-3.5994,-3.5701,-3.5893,-3.5684,-3.56,-3.56,-3.56,-3.56,-3.56,-3.56,-3.56,-3.56,-3.56,-3.56,-3.56,-3.56,-3.56,-3.56,-3.56,-3.56,-3.56,-3.56,-3.56,-3.56,-3.56,-3.56,-3.5566,-3.538,-3.5329,-3.538,-3.5549,-3.5464,-3.5143,-3.4421,-3.3677,-3.3085,-3.2916,-3.3017,-3.2933,-3.2192,-3.2039,-3.187,-3.1292,-3.0734,-3.0057,-2.9145,-2.8484,-2.7774,-2.6826,-2.7182,0.0,0.0,-2.7536,-2.7909,-2.7909,-2.7367,-2.6657,0.0,0.0,0.0,0.0,-2.7538,-2.8887,-3.1461,-3.2022,-3.2401,-3.2665,-3.2988,-3.3545,-3.4362,-3.4531,-3.496,-3.5615,-3.5872,-3.6039,-3.6113,-3.6237,-3.5659,-3.4618,-3.4618,-3.3979,-3.3101,-3.3714,-3.4451,-3.5256,-3.6125,-3.6911,-3.7482,-4.444,-4.4542,-4.4615,-4.4615,-4.4615,-4.4615,-4.4615,-4.3927,-4.3392,-4.3392,-4.276,-4.2286,-4.2286,-4.2286,-4.2134,-4.1728,-4.1018,-4.0468,-4.013,-4.0096,-3.9926,-3.9537,-3.9503,-3.9334,-3.8903,-3.8903,-3.8531,-3.7811,-3.6688,-3.6146,-3.6146,-3.5769,-3.56,-3.5616,-3.5994,-3.5943,-3.5616,-3.5994,-3.5943,-3.56,-3.56,-3.56,-3.56,-3.56,-3.56,-3.56,-3.56,-3.56,-3.56,-3.56,-3.56,-3.56,-3.56,-3.56,-3.56,-3.56,-3.56,-3.56,-3.56,-3.56,-3.5414,-3.4675,-3.4201,-3.3812,-3.3491,-3.366,-3.3694,-3.2949,-3.2797,-3.2577,-3.1853,-3.1376,-3.0751,-2.9668,-2.8516,-2.7755,-2.774,-2.7451,0.0,-2.8264,-2.9025,-2.9499,-2.9499,-2.9414,-2.8872,-2.7687,-2.7959,0.0,-2.8737,-2.9465,-3.0529,-3.1989,-3.2305,-3.2717,-3.3229,-3.3563,-3.4097,-3.4824,-3.5002,-3.5481,-3.6177,-3.6369,-3.6513,-3.6614,-3.6681,-3.6113,-3.5124,-3.521,-3.4645,-3.3802,-3.4315,-3.4991,-3.5792,-3.6411,-3.7004,-3.7488,-4.4281,-4.444,-4.457,-4.4514,-4.4542,-4.4542,-4.4514,-4.3928,-4.3506,-4.3506,-4.2949,-4.2571,-4.2598,-4.2598,-4.2564,-4.2472,-4.1897,-4.117,-4.0333,-4.0282,-4.0231,-4.0096,-4.0096,-4.0096,-4.0096,-3.9994,-3.9639,-3.8988,-3.7523,-3.6795,-3.6778,-3.5994,-3.56,-3.5633,-3.6434,-3.6349,-3.565,-3.6451,-3.6332,-3.56,-3.56,-3.56,-3.56,-3.56,-3.56,-3.56,-3.56,-3.56,-3.56,-3.56,-3.56,-3.56,-3.56,-3.56,-3.5616,-3.5735,-3.5701,-3.56,-3.56,-3.56,-3.5447,-3.4827,-3.4675,-3.4506,-3.388,-3.4218,-3.4455,-3.3728,-3.3575,-3.3305,-3.2462,-3.2293,-3.1752,-3.0021,-2.88,-2.8192,-2.8568,0.0,-2.767,-2.9162,-2.9973,-3.048,-3.0598,-3.1055,-3.114,-3.0649,-3.1072,-3.141,-3.1529,-3.2141,-3.2513,-3.2632,-3.2916,-3.339,-3.4086,-3.4255,-3.4658,-3.5276,-3.5507,-3.6004,-3.6701,-3.6982,-3.7152,-3.7209,-3.7209,-3.6675,-3.584,-3.595,-3.5508,-3.4765,-3.4995,-3.5527,-3.6148,-3.6345,-3.6789,-3.7339,-4.4155,-4.44,-4.4514,-4.4229,-4.427,-4.431,-4.4184,-4.4054,-4.3987,-4.3987,-4.3887,-4.386,-4.3985,-4.3985,-4.3788,-4.3274,-4.3105,-4.2489,-4.1119,-4.1035,-4.0747,-4.013,-4.0096,-4.0096,-4.0096,-3.9503,-3.9106,-3.8988,-3.7523,-3.6795,-3.6778,-3.5994,-3.56,-3.5633,-3.6434,-3.6349,-3.565,-3.6451,-3.6332,-3.56,-3.56,-3.56,-3.56,-3.56,-3.56,-3.56,-3.56,-3.56,-3.56,-3.56,-3.56,-3.56,-3.56,-3.56,-3.5718,-3.64,-3.6129,-3.56,-3.56,-3.56,-3.5566,-3.5447,-3.543,-3.5397,-3.5278,-3.5346,-3.5211,-3.4472,-3.432,-3.3897,-3.2547,-3.2293,-3.1376,-2.8546,-2.9003,-2.909,-2.7231,0.0,-2.9886,-3.0751,-3.1515,-3.2188,-3.2831,-3.2425,-3.2324,-3.2848,-3.2408,-3.2412,-3.3034,-3.3169,-3.3508,-3.4134,-3.3626,-3.356,-3.4002,-3.3444,-3.4156,-3.6114,-3.5544,-3.606,-3.7524,-3.756,-3.745,-3.7209,-3.7209,-3.6543,-3.5477,-3.5496,-3.4923,-3.4133,-3.4754,-3.516,-3.5491,-3.6457,-3.6674,-3.6577,-4.3998,-4.4212,-4.431,-4.4126,-4.408,-4.4121,-4.4196,-4.4155,-4.4126,-4.4196,-4.4155,-4.4155,-4.4281,-4.431,-4.4232,-4.4062,-4.4045,-4.3758,-4.3064,-4.188,-4.0865,-4.013,-4.0096,-4.0096,-4.0096,-3.9774,-3.9394,-3.8988,-3.7922,-3.7381,-3.7381,-3.6603,-3.6468,-3.6867,-3.7635,-3.755,-3.6884,-3.7652,-3.7297,-3.6248,-3.6248,-3.5994,-3.56,-3.56,-3.56,-3.56,-3.56,-3.56,-3.56,-3.56,-3.5893,-3.6248,-3.6248,-3.6518,-3.6901,-3.728,-3.7127,-3.6648,-3.5819,-3.6208,-3.6732,-3.6349,-3.6552,-3.6834,-3.6834,-3.6535,-3.6146,-3.5814,-3.5385,-3.4759,-3.3698,-3.3173,-3.2442,-3.0996,-3.0,0.0,0.0,-2.9882,-3.0473,-3.1647,-3.2801,-3.3609,-3.3964,-3.4049,-3.4049,-3.3998,-3.3698,-3.3647,-3.3964,-3.3981,-3.4336,-3.5081,-3.4754,-3.4677,-3.4849,-3.4512,-3.5018,-3.6297,-3.5712,-3.5961,-3.6937,-3.6681,-3.6481,-3.6336,-3.6336,-3.6021,-3.5522,-3.5586,-3.5393,-3.5069,-3.5496,-3.5717,-3.5856,-3.6374,-3.6471,-3.6346,-4.3839,-4.4023,-4.4121,-4.401,-4.3935,-4.3977,-4.4167,-4.4126,-4.4097,-4.4224,-4.4126,-4.4126,-4.4281,-4.4281,-4.4355,-4.457,-4.4615,-4.453,-4.4316,-4.2675,-4.1457,-4.0882,-4.0553,-4.0282,-4.0096,-4.0096,-3.9825,-3.9242,-3.8514,-3.8159,-3.8142,-3.7398,-3.7347,-3.7922,-3.8481,-3.843,-3.7939,-3.8497,-3.7973,-3.6795,-3.6795,-3.6315,-3.56,-3.56,-3.56,-3.56,-3.56,-3.5718,-3.5893,-3.5893,-3.64,-3.7066,-3.7066,-3.7432,-3.7939,-3.8108,-3.8278,-3.8075,-3.6546,-3.6986,-3.777,-3.7218,-3.7483,-3.7905,-3.7905,-3.7449,-3.7066,-3.7066,-3.6569,-3.5904,-3.5165,-3.4421,-3.374,-3.3216,0.0,0.0,0.0,-3.1452,-3.1553,-3.2899,-3.4218,-3.5098,-3.5267,-3.5808,-3.591,-3.5334,-3.5284,-3.5216,-3.503,-3.5013,-3.5199,-3.5583,-3.56,-3.56,-3.56,-3.543,-3.5679,-3.6301,-3.5766,-3.5788,-3.6301,-3.5937,-3.5694,-3.56,-3.56,-3.56,-3.56,-3.5711,-3.5844,-3.6019,-3.6122,-3.6212,-3.6301,-3.6301,-3.6301,-3.6301,-4.3658,-4.3894,-4.401,-4.3687,-4.3793,-4.3898,-4.3927,-4.3927,-4.3969,-4.4097,-4.3998,-4.4027,-4.4281,-4.4196,-4.4258,-4.457,-4.4615,-4.4265,-4.3527,-4.3325,-4.3206,-4.3139,-4.1863,-4.0798,-4.0113,-4.0096,-4.0079,-4.0028,-3.9276,-3.892,-3.8903,-3.8159,-3.7855,-3.7905,-3.7973,-3.7956,-3.7905,-3.7973,-3.7516,-3.6795,-3.6795,-3.6315,-3.56,-3.56,-3.56,-3.56,-3.56,-3.6079,-3.6711,-3.6711,-3.7195,-3.7821,-3.7821,-3.7872,-3.8041,-3.8717,-3.9394,-3.9622,-3.8125,-3.7821,-3.7889,-3.7838,-3.7872,-3.7905,-3.7905,-3.7872,-3.7821,-3.7821,-3.777,-3.7516,-3.6778,-3.5977,-3.4732,-3.263,0.0,0.0,-3.1381,-3.2908,-3.4472,-3.5261,-3.6113,-3.6914,-3.7584,-3.7702,-3.7719,-3.7652,-3.7652,-3.7347,-3.6677,-3.6626,-3.6299,-3.5616,-3.56,-3.56,-3.56,-3.4928,-3.5151,-3.6284,-3.5576,-3.5611,-3.6301,-3.6259,-3.6002,-3.56,-3.56,-3.56,-3.56,-3.5622,-3.5778,-3.5997,-3.6019,-3.6148,-3.6301,-3.6301,-3.6301,-3.6301,-4.3628,-4.3717,-4.3747,-4.3628,-4.3658,-4.3763,-4.3868,-4.3898,-4.3956,-4.4068,-4.4056,-4.4097,-4.4281,-4.4184,-4.4241,-4.457,-4.4468,-4.4525,-4.4795,-4.3916,-4.3217,-4.2743,-4.2185,-4.1542,-4.0798,-4.0781,-4.0544,-4.0096,-3.9343,-3.9225,-3.9673,-3.892,-3.8819,-3.9242,-3.9242,-3.9242,-3.9242,-3.9242,-3.8836,-3.8142,-3.8142,-3.7702,-3.7019,-3.7019,-3.7019,-3.6975,-3.6518,-3.6823,-3.7398,-3.6965,-3.7584,-3.8582,-3.8582,-3.8886,-3.9334,-3.9605,-3.9893,-3.9977,-3.9436,-3.9242,-3.914,-3.87,-3.892,-3.9242,-3.9242,-3.8903,-3.8582,-3.8582,-3.8227,-3.7821,-3.7533,-3.6857,-3.6214,-3.5797,0.0,-3.4737,-3.4653,-3.5385,-3.6034,-3.6299,-3.7009,-3.7584,-3.7872,-3.7905,-3.7905,-3.7905,-3.7905,-3.7787,-3.7499,-3.7066,-3.666,-3.6349,-3.5853,-3.56,-3.56,-3.5312,-3.5423,-3.5871,-3.5581,-3.5581,-3.5871,-3.5871,-3.5778,-3.56,-3.56,-3.56,-3.56,-3.56,-3.5711,-3.5866,-3.5975,-3.6084,-3.6251,-3.6251,-3.6251,-3.6251,-4.3598,-4.3598,-4.3598,-4.3598,-4.3598,-4.3658,-4.3868,-4.3927,-4.3998,-4.4155,-4.4167,-4.4196,-4.431,-4.4184,-4.4184,-4.4429,-4.4355,-4.4557,-4.5211,-4.4339,-4.3335,-4.2337,-4.2523,-4.2185,-4.1221,-4.1204,-4.0832,-4.0096,-3.9605,-3.9605,-4.0096,-3.9588,-3.9622,-4.0096,-3.9859,-3.9893,-4.0079,-3.9859,-3.9469,-3.8988,-3.8988,-3.8565,-3.7905,-3.7905,-3.7905,-3.7838,-3.733,-3.7618,-3.8176,-3.7652,-3.8335,-3.9368,-3.9368,-3.9706,-4.0096,-4.0096,-4.0096,-4.0096,-4.0096,-4.0096,-3.9977,-3.9462,-3.974,-4.0096,-4.0096,-3.9723,-3.9368,-3.9368,-3.8937,-3.8582,-3.8582,-3.7973,-3.7675,-3.8159,-3.7178,-3.6518,-3.706,-3.7354,-3.7506,-3.7506,-3.8125,-3.8582,-3.8582,-3.8582,-3.8582,-3.8582,-3.8582,-3.8481,-3.8261,-3.7337,-3.6795,-3.6795,-3.6028,-3.56,-3.56,-3.56,-3.56,-3.56,-3.56,-3.56,-3.56,-3.56,-3.56,-3.56,-3.56,-3.56,-3.56,-3.56,-3.5667,-3.5817,-3.5905,-3.6014,-3.6144,-3.6144,-3.6144,-3.6144,-4.3598,-4.3598,-4.3598,-4.3598,-4.3598,-4.3658,-4.3868,-4.3998,-4.4155,-4.4281,-4.431,-4.431,-4.431,-4.4184,-4.4097,-4.4097,-4.4224,-4.431,-4.431,-4.4468,-4.3921,-4.2371,-4.3031,-4.2716,-4.1255,-4.1221,-4.0849,-4.0113,-4.0113,-4.0113,-4.0113,-4.0113,-4.0113,-4.0079,-3.9351,-3.9436,-4.0045,-3.9334,-3.9005,-3.9005,-3.9005,-3.8565,-3.7922,-3.7922,-3.7922,-3.7922,-3.7922,-3.8379,-3.9005,-3.8988,-3.9503,-4.0096,-4.0096,-4.0096,-4.0096,-4.0096,-4.0096,-4.0096,-4.0096,-4.0096,-4.0096,-4.0096,-4.0096,-4.0096,-4.0096,-4.0096,-4.0096,-4.0096,-4.0096,-4.0096,-4.0096,-3.9503,-3.9005,-3.9005,-3.8396,-3.7922,-3.7922,-3.8548,-3.9005,-3.9005,-3.9656,-4.0096,-4.0096,-4.0096,-4.0096,-4.0096,-4.0096,-3.9791,-3.9039,-3.7625,-3.6829,-3.6829,-3.6045,-3.5616,-3.5616,-3.56,-3.56,-3.56,-3.56,-3.56,-3.56,-3.56,-3.56,-3.56,-3.56,-3.56,-3.56,-3.56,-3.5667,-3.5795,-3.5795,-3.5883,-3.5997,-3.5997,-3.5997,-3.6019,-4.3598,-4.3598,-4.3598,-4.3598,-4.3598,-4.3628,-4.3687,-4.3852,-4.3998,-4.4155,-4.4155,-4.4241,-4.4468,-4.4172,-4.4027,-4.4224,-4.4196,-4.427,-4.4514,-4.457,-4.4395,-4.3938,-4.4113,-4.3775,-4.2777,-4.2733,-4.2134,-4.0865,-4.1373,-4.1373,-4.0865,-4.0865,-4.0865,-4.0832,-4.0113,-3.9893,-4.0096,-3.9876,-3.9774,-3.9774,-3.9774,-3.9656,-3.9453,-3.9453,-3.9453,-3.9377,-3.8853,-3.914,-3.9706,-3.9157,-3.9503,-4.0096,-4.0096,-4.0096,-4.0096,-4.0096,-4.0096,-4.0096,-4.0096,-4.0096,-4.0096,-4.0096,-4.0096,-4.0096,-4.0096,-4.0096,-4.0096,-4.0096,-4.0096,-4.0096,-4.0096,-3.9926,-3.9774,-3.9774,-3.9605,-3.9453,-3.9453,-3.9639,-3.9774,-3.9774,-3.9977,-4.0096,-4.0096,-4.0096,-4.0096,-4.0096,-4.0096,-4.0011,-3.9791,-3.8853,-3.8328,-3.8328,-3.7094,-3.6688,-3.7229,-3.614,-3.56,-3.56,-3.56,-3.56,-3.56,-3.56,-3.56,-3.56,-3.56,-3.56,-3.56,-3.56,-3.5622,-3.5667,-3.5773,-3.5817,-3.5861,-3.5861,-3.5861,-3.5861,-4.3628,-4.3813,-4.4042,-4.4042,-4.4042,-4.4042,-4.4042,-4.3975,-4.3956,-4.4068,-4.4155,-4.4241,-4.44,-4.4143,-4.3998,-4.4023,-4.4068,-4.4241,-4.4587,-4.4615,-4.4615,-4.4615,-4.4615,-4.4215,-4.3409,-4.3392,-4.2828,-4.1644,-4.2066,-4.2066,-4.1644,-4.1644,-4.1474,-4.1187,-4.1035,-4.0823,-4.0527,-4.0527,-4.0527,-4.0493,-4.0155,-4.0062,-4.0146,-4.0383,-4.0502,-4.0476,-4.002,-4.0155,-4.0409,-3.969,-3.9943,-4.0485,-4.0197,-4.0316,-4.0485,-4.0197,-4.0096,-4.0096,-4.0096,-4.0096,-4.0096,-4.0096,-4.0096,-4.0096,-4.0096,-4.0096,-4.0096,-4.0096,-4.0096,-4.0096,-4.0096,-4.0096,-4.0096,-4.0096,-4.0096,-4.0096,-4.0096,-4.0096,-4.0096,-4.0096,-4.0096,-4.0096,-4.0096,-4.0096,-4.0096,-4.0096,-4.0096,-4.0096,-4.0096,-3.9394,-3.8988,-3.8988,-3.7838,-3.7449,-3.7905,-3.6969,-3.6343,-3.6079,-3.6079,-3.591,-3.56,-3.56,-3.56,-3.56,-3.56,-3.56,-3.56,-3.56,-3.56,-3.56,-3.5706,-3.5728,-3.5728,-3.5728,-3.5728,-3.5728,-4.3711,-4.4241,-4.4735,-4.4771,-4.4721,-4.4688,-4.4688,-4.4228,-4.3927,-4.4068,-4.4167,-4.4196,-4.4126,-4.4068,-4.3952,-4.3658,-4.3894,-4.4229,-4.4514,-4.457,-4.457,-4.457,-4.4598,-4.4248,-4.3511,-4.3561,-4.3217,-4.2388,-4.2591,-4.2591,-4.2388,-4.2455,-4.21,-4.1424,-4.2033,-4.1931,-4.1279,-4.1305,-4.1279,-4.1212,-4.0424,-4.0163,-4.0333,-4.0879,-4.1158,-4.1279,-4.1279,-4.1279,-4.1204,-4.0536,-4.073,-4.1187,-4.0519,-4.0747,-4.117,-4.0502,-4.0299,-4.0299,-4.0299,-4.0299,-4.0282,-4.0214,-4.0248,-4.0265,-4.013,-4.0096,-4.0096,-4.0096,-4.0096,-4.0096,-4.0096,-4.0096,-4.0096,-4.0096,-4.0096,-4.0096,-4.0096,-4.0096,-4.0096,-4.0096,-4.0096,-4.0096,-4.0096,-4.0096,-4.0096,-4.0096,-4.0096,-4.0096,-4.0096,-3.9469,-3.9089,-3.9089,-3.8379,-3.8041,-3.8108,-3.8041,-3.7635,-3.6897,-3.6897,-3.6468,-3.5701,-3.5701,-3.5667,-3.56,-3.56,-3.56,-3.56,-3.56,-3.56,-3.56,-3.56,-3.56,-3.56,-3.56,-3.56,-3.5622,-4.4357,-4.4572,-4.487,-4.545,-4.5069,-4.4688,-4.4688,-4.4122,-4.3776,-4.4068,-4.3894,-4.3877,-4.4224,-4.3935,-4.3747,-4.3822,-4.3898,-4.4027,-4.42,-4.4327,-4.4367,-4.4367,-4.4514,-4.453,-4.4333,-4.4908,-4.4536,-4.3139,-4.4942,-4.4908,-4.32,-4.3792,-4.3673,-4.2885,-4.2489,-4.2148,-4.1907,-4.2013,-4.2013,-4.1907,-4.1685,-4.1644,-4.1661,-4.1711,-4.1789,-4.1907,-4.1907,-4.196,-4.2033,-4.1863,-4.1914,-4.2016,-4.1863,-4.1914,-4.2016,-4.1863,-4.1813,-4.1813,-4.1813,-4.1813,-4.1677,-4.1102,-4.139,-4.1534,-4.0367,-4.0096,-4.0096,-4.0096,-4.0096,-4.0096,-4.0096,-4.0096,-4.0096,-4.0096,-4.0096,-4.0096,-4.0096,-4.0096,-4.0096,-4.0096,-4.0096,-4.0096,-4.0096,-4.0096,-4.0096,-4.0096,-4.0096,-4.0096,-4.0096,-3.996,-3.9859,-3.9859,-3.914,-3.9039,-3.9622,-3.9039,-3.8396,-3.7669,-3.7669,-3.7263,-3.6535,-3.6535,-3.6197,-3.56,-3.56,-3.56,-3.56,-3.56,-3.56,-3.56,-3.56,-3.56,-3.56,-3.56,-3.56,-3.56,-4.4569,-4.497,-4.5334,-4.5715,-4.5467,-4.5102,-4.4738,-4.4075,-4.3687,-4.3969,-4.3852,-4.3852,-4.4068,-4.391,-4.3793,-4.3898,-4.3898,-4.3956,-4.4097,-4.4184,-4.4196,-4.4196,-4.4384,-4.4468,-4.4468,-4.5285,-4.5314,-4.4519,-4.5703,-4.5855,-4.5026,-4.5094,-4.4705,-4.3961,-4.3555,-4.3156,-4.2719,-4.2801,-4.2763,-4.2583,-4.2175,-4.1997,-4.202,-4.225,-4.2423,-4.2545,-4.26,-4.2473,-4.2286,-4.2286,-4.2523,-4.276,-4.2405,-4.254,-4.276,-4.2388,-4.2286,-4.2286,-4.2286,-4.2286,-4.2202,-4.1813,-4.1999,-4.1999,-4.0865,-4.0612,-4.0612,-4.0612,-4.035,-4.0096,-4.0096,-4.04,-4.0493,-4.0163,-4.0417,-4.0493,-4.0146,-4.0096,-4.0096,-4.0096,-4.0096,-4.0096,-4.0096,-4.0096,-4.0096,-4.0096,-4.0096,-4.0096,-4.0096,-4.0096,-4.0096,-4.0096,-3.974,-3.9723,-4.0096,-3.9723,-3.9326,-3.8937,-3.8582,-3.8041,-3.7313,-3.6965,-3.6552,-3.6146,-3.5752,-3.56,-3.56,-3.56,-3.56,-3.56,-3.56,-3.56,-3.56,-3.56,-3.56,-3.56,-4.4829,-4.5497,-4.6013,-4.6146,-4.5963,-4.5582,-4.497,-4.4158,-4.3658,-4.3868,-4.3868,-4.3868,-4.3898,-4.3868,-4.3868,-4.3898,-4.3868,-4.391,-4.4056,-4.4085,-4.4097,-4.4085,-4.4224,-4.431,-4.4281,-4.5064,-4.5488,-4.5517,-4.5771,-4.6143,-4.6599,-4.6126,-4.5483,-4.4801,-4.4891,-4.4423,-4.3567,-4.3821,-4.3788,-4.3525,-4.2763,-4.2456,-4.2496,-4.281,-4.3022,-4.3176,-4.3278,-4.3025,-4.2648,-4.2648,-4.3071,-4.3504,-4.2878,-4.3115,-4.3487,-4.2861,-4.2675,-4.2675,-4.2675,-4.2675,-4.2658,-4.2523,-4.2574,-4.2489,-4.1745,-4.1491,-4.139,-4.139,-4.0882,-4.0485,-4.0485,-4.0967,-4.1187,-4.0587,-4.0882,-4.0984,-4.0383,-4.018,-4.0096,-4.0096,-4.0096,-4.0096,-4.0096,-4.0096,-4.0096,-4.0096,-4.0096,-4.0096,-4.0096,-4.0096,-4.0096,-4.0096,-4.0096,-4.0096,-4.0096,-4.0096,-4.0096,-4.0096,-3.9486,-3.8802,-3.8075,-3.7449,-3.7117,-3.6948,-3.6146,-3.5825,-3.5785,-3.565,-3.56,-3.56,-3.56,-3.56,-3.56,-3.56,-3.56,-3.56,-4.5682,-4.6306,-4.6941,-4.7587,-4.6643,-4.5765,-4.5665,-4.4489,-4.3658,-4.3868,-4.3763,-4.3704,-4.3868,-4.3734,-4.3704,-4.3898,-4.3734,-4.3717,-4.391,-4.4027,-4.4056,-4.3927,-4.4184,-4.4253,-4.4126,-4.437,-4.4564,-4.475,-4.6024,-4.638,-4.5872,-4.6397,-4.6261,-4.5585,-4.6031,-4.5467,-4.4254,-4.5551,-4.569,-4.5089,-4.4871,-4.4763,-4.4654,-4.3826,-4.3614,-4.3777,-4.3806,-4.3879,-4.4035,-4.4035,-4.4204,-4.4429,-4.4327,-4.4378,-4.4429,-4.4327,-4.4293,-4.4293,-4.4293,-4.4293,-4.4141,-4.3436,-4.3775,-4.4062,-4.3274,-4.2608,-4.2151,-4.2151,-4.2066,-4.1982,-4.1982,-4.2066,-4.2117,-4.1999,-4.1542,-4.117,-4.1068,-4.0493,-4.0096,-4.0096,-4.0096,-4.0096,-4.0096,-4.0096,-4.0096,-4.0096,-4.0096,-4.0096,-4.0096,-4.0096,-4.0096,-4.0096,-4.0096,-4.0096,-4.0096,-4.0096,-4.0096,-4.0096,-3.9994,-3.9571,-3.8853,-3.8734,-3.8345,-3.7719,-3.6958,-3.6643,-3.6592,-3.5893,-3.56,-3.56,-3.56,-3.56,-3.56,-3.56,-3.56,-3.56,-4.6429,-4.647,-4.651,-4.7255,-4.6841,-4.6129,-4.5301,-4.497,-4.4569,-4.3833,-4.4066,-4.4165,-4.3783,-4.3658,-4.3717,-4.3998,-4.3747,-4.3704,-4.3898,-4.3852,-4.3776,-4.3734,-4.3952,-4.4056,-4.3998,-4.4196,-4.4327,-4.4315,-4.5566,-4.6447,-4.6938,-4.6836,-4.6853,-4.6908,-4.676,-4.625,-4.5572,-4.6228,-4.6193,-4.5678,-4.5217,-4.499,-4.4867,-4.4401,-4.4006,-4.3783,-4.4271,-4.4866,-4.5358,-4.5026,-4.5231,-4.5537,-4.4823,-4.4874,-4.5128,-4.4733,-4.4615,-4.4615,-4.4615,-4.4615,-4.4513,-4.4147,-4.4333,-4.4513,-4.4147,-4.3809,-4.3481,-4.3014,-4.2591,-4.2286,-4.2286,-4.2642,-4.2777,-4.2354,-4.2371,-4.2151,-4.1322,-4.0916,-4.0544,-4.0146,-4.0468,-4.0544,-4.0146,-4.0096,-4.0282,-4.0679,-4.0333,-4.0282,-4.0679,-4.0333,-4.0096,-4.0096,-4.0096,-4.0096,-4.0096,-4.0096,-4.0096,-4.0096,-4.0096,-3.9943,-3.9605,-3.9174,-3.8819,-3.8447,-3.7303,-3.6795,-3.6745,-3.5943,-3.56,-3.56,-3.56,-3.56,-3.56,-3.56,-3.56,-3.56]},{"header":{"parameterUnit":"m.s-1","parameterCategory":1,"la1":30.6,"la2":28.766,"lo1":-90.7593,"lo2":-88.6598,"dy":0.0162,"dx":0.0183,"nx":116,"ny":114,"refTime":"2024-03-11T18:00:00:Z","depth":0,"parameterNumber":3,"parameterNumberName":"V-component_of_WINDS"},"data":[0.0,0.0,0.0,0.0,0.0,0.0,0.0,0.0,0.0,0.0,0.0,0.0,0.0,0.0,0.0,0.0,0.0,0.0,0.0,0.0,0.0,0.0,0.0,0.0,0.0,0.0,0.0,0.0,0.0,0.0,0.0,0.0,0.0,0.0,0.0,0.0,0.0,0.0,0.0,0.0,0.0,0.0,0.0,0.0,0.0,0.0,0.0,0.0,0.0,0.0,0.0,0.0,0.0,0.0,0.0,0.0,0.0,0.0,0.0,0.0,0.0,0.0,0.0,0.0,0.0,0.0,0.0,0.0,0.0,0.0,0.0,0.0,0.0,0.0,0.0,0.0,0.0,0.0,0.0,0.0,0.0,0.0,0.0,0.0,0.0,0.0,0.0,0.0,0.0,0.0,0.0,0.0,0.0,0.0,0.0,0.0,0.0,0.0,0.0,0.0,0.0,0.0,0.0,0.0,0.0,0.0,0.0,0.0,0.0,0.0,0.0,0.0,0.0,0.0,0.0,0.0,0.0,0.0,0.0,0.0,0.0,0.0,0.0,0.0,0.0,0.0,0.0,0.0,0.0,0.0,0.0,0.0,0.0,0.0,0.0,0.0,0.0,0.0,0.0,0.0,0.0,0.0,0.0,0.0,0.0,0.0,0.0,0.0,0.0,0.0,0.0,0.0,0.0,0.0,0.0,0.0,0.0,0.0,0.0,0.0,0.0,0.0,0.0,0.0,0.0,0.0,0.0,0.0,0.0,0.0,0.0,0.0,0.0,0.0,0.0,0.0,0.0,0.0,0.0,0.0,0.0,0.0,0.0,0.0,0.0,0.0,0.0,0.0,0.0,0.0,0.0,0.0,0.0,0.0,0.0,0.0,0.0,0.0,0.0,0.0,0.0,0.0,0.0,0.0,0.0,0.0,0.0,0.0,0.0,0.0,0.0,0.0,0.0,0.0,0.0,0.0,0.0,0.0,0.0,0.0,0.0,0.0,0.0,0.0,0.0,0.0,0.0,0.0,0.0,0.0,0.0,0.0,0.0,0.0,0.0,0.0,0.0,0.0,0.0,0.0,0.0,0.0,0.0,0.0,0.0,0.0,0.0,0.0,0.0,0.0,0.0,0.0,0.0,0.0,0.0,0.0,0.0,0.0,0.0,0.0,0.0,0.0,0.0,0.0,0.0,0.0,0.0,0.0,0.0,0.0,0.0,0.0,0.0,0.0,0.0,0.0,0.0,0.0,0.0,0.0,0.0,0.0,0.0,0.0,0.0,0.0,0.0,0.0,0.0,0.0,0.0,0.0,0.0,0.0,0.0,0.0,0.0,0.0,0.0,0.0,0.0,0.0,0.0,0.0,0.0,0.0,0.0,0.0,0.0,0.0,0.0,0.0,0.0,0.0,0.0,0.0,0.0,0.0,0.0,0.0,0.0,0.0,0.0,0.0,0.0,0.0,0.0,0.0,0.0,0.0,0.0,0.0,0.0,0.0,0.0,0.0,0.0,0.0,0.0,0.0,0.0,0.0,0.0,0.0,0.0,0.0,0.0,0.0,0.0,0.0,0.0,0.0,0.0,0.0,0.0,0.0,0.0,0.0,0.0,0.0,0.0,0.0,0.0,0.0,0.0,0.0,0.0,0.0,0.0,0.0,0.0,0.0,0.0,0.0,0.0,0.0,0.0,0.0,0.0,0.0,0.0,0.0,0.0,0.0,0.0,0.0,0.0,0.0,0.0,0.0,0.0,0.0,0.0,0.0,0.0,0.0,0.0,0.0,0.0,0.0,0.0,0.0,0.0,0.0,0.0,0.0,0.0,0.0,0.0,0.0,0.0,0.0,0.0,0.0,0.0,0.0,0.0,0.0,0.0,0.0,0.0,0.0,0.0,0.0,0.0,0.0,0.0,0.0,0.0,0.0,0.0,0.0,0.0,0.0,0.0,0.0,0.0,0.0,0.0,0.0,0.0,0.0,0.0,0.0,0.0,0.0,0.0,0.0,0.0,0.0,0.0,0.0,0.0,0.0,0.0,0.0,0.0,0.0,0.0,0.0,0.0,0.0,0.0,0.0,0.0,0.0,0.0,0.0,0.0,0.0,0.0,0.0,0.0,0.0,0.0,0.0,0.0,0.0,0.0,0.0,0.0,0.0,0.0,0.0,0.0,0.0,0.0,0.0,0.0,0.0,0.0,0.0,0.0,0.0,0.0,0.0,0.0,0.0,0.0,0.0,0.0,0.0,0.0,0.0,0.0,0.0,0.0,0.0,0.0,0.0,0.0,0.0,0.0,0.0,0.0,0.0,0.0,0.0,0.0,0.0,0.0,0.0,0.0,0.0,0.0,0.0,0.0,0.0,0.0,0.0,0.0,0.0,0.0,0.0,0.0,0.0,0.0,0.0,0.0,0.0,0.0,0.0,0.0,0.0,0.0,0.0,0.0,0.0,0.0,0.0,0.0,0.0,0.0,0.0,0.0,0.0,0.0,0.0,0.0,0.0,0.0,0.0,0.0,0.0,0.0,0.0,0.0,0.0,0.0,0.0,0.0,0.0,0.0,0.0,0.0,0.0,0.0,0.0,0.0,0.0,0.0,0.0,0.0,0.0,0.0,0.0,0.0,0.0,0.0,0.0,0.0,0.0,0.0,0.0,0.0,0.0,0.0,0.0,0.0,0.0,0.0,0.0,0.0,0.0,0.0,0.0,0.0,0.0,0.0,0.0,0.0,0.0,0.0,0.0,0.0,0.0,0.0,0.0,0.0,0.0,0.0,0.0,0.0,0.0,0.0,0.0,0.0,0.0,0.0,0.0,0.0,0.0,0.0,0.0,0.0,0.0,0.0,0.0,0.0,0.0,0.0,0.0,0.0,0.0,0.0,0.0,0.0,0.0,0.0,0.0,0.0,0.0,0.0,0.0,0.0,0.0,0.0,0.0,0.0,0.0,0.0,0.0,0.0,0.0,0.0,0.0,0.0,0.0,0.0,0.0,0.0,0.0,0.0,0.0,0.0,0.0,0.0,0.0,0.0,0.0,0.0,0.0,0.0,0.0,0.0,0.0,0.0,0.0,0.0,0.0,0.0,0.0,0.0,0.0,0.0,0.0,0.0,0.0,0.0,0.0,0.0,0.0,0.0,0.0,0.0,0.0,0.0,0.0,0.0,0.0,0.0,0.0,0.0,0.0,0.0,0.0,0.0,0.0,0.0,0.0,0.0,0.0,0.0,0.0,0.0,0.0,0.0,0.0,0.0,0.0,0.0,0.0,0.0,0.0,0.0,0.0,0.0,0.0,0.0,0.0,0.0,0.0,0.0,0.0,0.0,0.0,0.0,0.0,0.0,0.0,0.0,0.0,0.0,0.0,0.0,0.0,0.0,0.0,0.0,0.0,0.0,0.0,0.0,0.0,0.0,0.0,0.0,0.0,0.0,0.0,0.0,0.0,0.0,0.0,0.0,0.0,0.0,0.0,0.0,0.0,0.0,0.0,0.0,0.0,0.0,0.0,0.0,0.0,0.0,0.0,0.0,0.0,0.0,0.0,0.0,0.0,0.0,0.0,0.0,0.0,0.0,0.0,0.0,0.0,0.0,0.0,0.0,0.0,0.0,0.0,0.0,0.0,0.0,0.0,0.0,0.0,0.0,0.0,0.0,0.0,0.0,0.0,0.0,0.0,0.0,0.0,0.0,0.0,0.0,0.0,0.0,0.0,0.0,0.0,0.0,0.0,0.0,0.0,0.0,0.0,0.0,0.0,0.0,0.0,0.0,0.0,0.0,0.0,0.0,0.0,0.0,0.0,0.0,0.0,0.0,0.0,0.0,0.0,0.0,0.0,0.0,0.0,0.0,0.0,0.0,0.0,0.0,0.0,0.0,0.0,0.0,0.0,0.0,0.0,0.0,0.0,0.0,0.0,0.0,0.0,0.0,0.0,0.0,0.0,0.0,0.0,0.0,0.0,0.0,0.0,0.0,0.0,0.0,0.0,0.0,0.0,0.0,0.0,0.0,0.0,0.0,0.0,0.0,0.0,0.0,0.0,0.0,0.0,0.0,0.0,0.0,0.0,0.0,0.0,0.0,0.0,0.0,0.0,0.0,0.0,0.0,0.0,0.0,0.0,0.0,0.0,0.0,0.0,0.0,0.0,0.0,0.0,0.0,0.0,0.0,0.0,0.0,0.0,0.0,0.0,0.0,0.0,0.0,0.0,0.0,0.0,0.0,0.0,0.0,0.0,0.0,0.0,0.0,0.0,0.0,0.0,0.0,0.0,0.0,0.0,0.0,0.0,0.0,0.0,0.0,0.0,0.0,0.0,0.0,0.0,0.0,0.0,0.0,0.0,0.0,0.0,0.0,0.0,0.0,0.0,0.0,0.0,0.0,0.0,0.0,0.0,0.0,0.0,0.0,0.0,0.0,0.0,0.0,0.0,0.0,0.0,0.0,0.0,0.0,0.0,0.0,0.0,0.0,0.0,0.0,0.0,0.0,0.0,0.0,0.0,0.0,0.0,0.0,0.0,0.0,0.0,0.0,0.0,0.0,0.0,0.0,0.0,0.0,0.0,0.0,0.0,0.0,0.0,0.0,0.0,0.0,0.0,0.0,0.0,0.0,0.0,0.0,0.0,0.0,0.0,0.0,0.0,0.0,0.0,0.0,0.0,0.0,0.0,0.0,0.0,0.0,0.0,0.0,0.0,0.0,0.0,0.0,0.0,0.0,0.0,0.0,0.0,0.0,0.0,0.0,0.0,0.0,0.0,0.0,0.0,0.0,0.0,0.0,0.0,0.0,0.0,0.0,0.0,0.0,0.0,0.0,0.0,0.0,0.0,0.0,0.0,0.0,0.0,0.0,0.0,0.0,0.0,0.0,0.0,0.0,0.0,0.0,0.0,0.0,0.0,0.0,0.0,0.0,0.0,0.0,0.0,0.0,0.0,0.0,0.0,0.0,0.0,0.0,0.0,0.0,0.0,0.0,0.0,0.0,0.0,0.0,0.0,0.0,0.0,0.0,0.0,0.0,0.0,0.0,0.0,0.0,0.0,0.0,0.0,0.0,0.0,0.0,0.0,0.0,0.0,0.0,0.0,0.0,0.0,0.0,0.0,0.0,0.0,0.0,0.0,0.0,0.0,0.0,0.0,0.0,0.0,0.0,0.0,0.0,0.0,0.0,0.0,0.0,0.0,0.0,0.0,0.0,0.0,0.0,0.0,0.0,0.0,0.0,0.0,0.0,0.0,0.0,0.0,0.0,0.0,0.0,0.0,0.0,0.0,0.0,0.0,0.0,0.0,0.0,0.0,0.0,0.0,0.0,0.0,0.0,0.0,0.0,0.0,0.0,0.0,0.0,0.0,0.0,0.0,0.0,0.0,0.0,0.0,0.0,0.0,0.0,0.0,0.0,0.0,0.0,0.0,0.0,0.0,0.0,0.0,0.0,0.0,0.0,0.0,0.0,0.0,0.0,0.0,0.0,0.0,0.0,0.0,0.0,0.0,0.0,0.0,0.0,0.0,0.0,0.0,0.0,0.0,0.0,0.0,0.0,0.0,0.0,0.0,0.0,0.0,0.0,0.0,0.0,0.0,0.0,0.0,0.0,0.0,0.0,0.0,0.0,0.0,0.0,0.0,0.0,0.0,0.0,0.0,0.0,0.0,0.0,0.0,0.0,0.0,0.0,0.0,0.0,0.0,0.0,0.0,0.0,0.0,0.0,0.0,0.0,0.0,0.0,0.0,0.0,0.0,0.0,0.0,0.0,0.0,0.0,0.0,0.0,0.0,0.0,0.0,0.0,0.0,0.0,0.0,0.0,0.0,0.0,0.0,0.0,0.0,0.0,0.0,0.0,0.0,0.0,0.0,0.0,0.0,0.0,0.0,0.0,0.0,0.0,0.0,0.0,0.0,0.0,0.0,0.0,0.0,0.0,0.0,0.0,0.0,0.0,0.0,0.0,0.0,0.0,0.0,0.0,0.0,0.0,0.0,0.0,0.0,0.0,0.0,0.0,0.0,0.0,0.0,0.0,0.0,0.0,0.0,0.0,0.0,0.0,0.0,0.0,0.0,0.0,0.0,0.0,0.0,0.0,0.0,0.0,0.0,0.0,0.0,0.0,0.0,0.0,0.0,0.0,0.0,0.0,0.0,0.4179,0.0,0.0,0.0,0.0,0.0,0.0,0.0,0.0,0.0,0.0,0.0,0.0,0.0,0.0,0.0,0.0,0.0,0.0,0.0,0.0,0.0,0.0,0.0,0.0,0.0,0.0,0.0,0.2788,0.2467,0.2627,0.2542,0.2484,0.2477,0.2642,0.2697,0.2634,0.276,0.3113,0.3686,0.3508,0.4364,0.6151,0.6098,0.0,0.0,0.0,0.0,0.0,0.0,0.0,0.0,0.0,0.0,0.0,0.0,0.0,0.0,0.0,0.0,0.0,0.0,0.0,0.0,0.0,0.0,0.0,0.0,0.0,0.0,0.0,0.0,0.0,0.0,0.0,0.0,0.0,0.0,0.0,0.0,0.0,0.0,0.0,0.0,0.0,0.0,0.0,0.0,0.0,0.0,0.0,0.0,0.0,0.0,0.0,0.0,0.0,0.0,0.0,0.0,0.0,0.0,0.0,0.0,0.0,0.0,0.0,0.0,0.0,0.0,0.0,0.0,0.0,0.0,0.0,0.0,0.0,0.4604,0.0,0.0,0.0,0.0,0.0,0.0,0.0,0.0,0.0,0.0,0.0,0.0,0.0,0.0,0.0,0.0,0.0,0.0,0.0,0.0,0.0,0.0,0.0,0.3096,0.3059,0.3454,0.2824,0.2569,0.2963,0.2898,0.2915,0.3053,0.3138,0.3153,0.3107,0.3303,0.3681,0.4224,0.4878,0.6177,0.8079,0.0,0.0,0.0,0.0,0.0,0.0,0.0,0.0,0.0,0.0,0.0,0.0,0.0,0.0,0.0,0.0,0.0,0.0,0.0,0.0,0.0,0.0,0.0,0.0,0.0,0.0,0.0,0.0,0.0,0.0,0.0,0.0,0.0,0.0,0.0,0.0,0.0,0.0,0.0,0.0,0.0,0.0,0.0,0.0,0.0,0.0,0.0,0.0,0.0,0.0,0.0,0.0,0.0,0.0,0.0,0.0,0.0,0.0,0.0,0.0,0.0,0.0,0.0,0.0,0.0,0.0,0.0,0.3716,0.3807,0.3916,0.393,0.4538,0.554,0.4571,0.5087,0.6463,0.4783,0.0,0.0,0.0,0.0,0.0,0.0,0.0,0.0,0.0,0.0,0.0,0.0,0.0,0.0,0.0,0.0,0.0,0.0,0.0,0.0,0.0,0.3096,0.3155,0.3782,0.2957,0.2663,0.3298,0.29,0.2724,0.2921,0.3045,0.3107,0.31,0.3355,0.3884,0.4711,0.7967,1.0186,1.1401,1.2612,1.2885,1.225,0.99,0.0,0.0,0.0,0.0,0.0,0.0,0.0,0.0,0.0,0.0,0.0,0.0,0.0,0.0,0.0,0.0,0.0,0.0,0.0,0.0,0.0,0.0,0.0,0.0,0.0,0.0,0.0,0.0,0.0,0.0,0.0,0.0,0.0,0.0,0.0,0.0,0.0,0.0,0.0,0.0,0.0,0.0,0.0,0.5932,0.5932,0.0,0.0,0.0,0.0,0.0,0.0,0.0,0.0,0.0,0.0,0.0,0.0,0.0,0.4153,0.3931,0.4054,0.4147,0.4197,0.5073,0.5212,0.4771,0.538,0.5506,0.5169,0.5188,0.0,0.6126,0.5535,0.0,0.0,0.0,0.0,0.0,0.0,0.0,0.0,0.0,0.0,0.0,0.0,0.0,0.0,0.0,0.0,0.0,0.0,0.0,0.0,0.0,0.4053,0.4332,0.5218,0.5594,0.5439,0.4632,0.5029,0.4746,0.3515,0.3633,0.367,0.3552,0.4109,0.5159,0.6715,0.9975,1.2037,1.2987,1.4482,1.511,1.4975,1.3636,1.2143,1.0504,0.8995,0.0,0.0,0.0,0.0,0.0,0.0,0.0,0.0,0.0,0.0,0.0,0.0,0.0,0.0,0.0,0.0,0.0,0.0,0.0,0.0,0.0,0.0,0.0,0.0,0.0,0.0,0.0,0.0,0.0,0.0,0.0,0.0,0.0,0.0,0.0,0.0,0.0,0.0,0.0,0.5325,0.5622,0.5839,0.5378,0.4958,0.0,0.0,0.0,0.0,0.0,0.0,0.0,0.0,0.0,0.6637,0.6574,0.6365,0.6032,0.6015,0.564,0.4931,0.5377,0.5463,0.5327,0.6002,0.603,0.5506,0.5829,0.5908,0.5789,0.5355,0.5351,0.5531,0.0,0.0,0.0,0.0,0.3792,0.4039,0.0,0.0,0.0,0.0,0.0,0.0,0.0,0.0,0.0,0.0,0.0,0.0,0.4961,0.5268,0.5914,0.7162,0.7815,0.7643,0.642,0.6544,0.5899,0.4201,0.4042,0.3999,0.4008,0.534,0.7081,0.9213,1.1935,1.3776,1.4813,1.6232,1.6977,1.7139,1.6755,1.5139,1.2563,1.1176,0.987,0.0,0.0,0.0,0.0,0.0,0.0,0.0,0.0,0.0,0.0,0.0,0.0,0.0,0.0,0.0,0.0,0.0,0.0,0.0,0.0,0.0,0.0,0.0,0.0,0.0,0.0,0.0,0.0,0.0,0.0,0.0,0.0,0.0,0.0,0.0,0.0,0.0,0.0,0.5672,0.5955,0.6081,0.5865,0.5574,0.0,0.0,0.0,0.0,0.0,0.0,0.63,0.6576,0.729,0.8494,0.8475,0.8269,0.7851,0.7693,0.7108,0.6109,0.6109,0.6177,0.6298,0.6692,0.6706,0.6382,0.6404,0.6328,0.6175,0.5531,0.5812,0.6487,0.5268,0.4678,0.4517,0.4397,0.4479,0.4744,0.0,0.0,0.0,0.0,0.0,0.0,0.0,0.0,0.0,0.0,0.0,0.499,0.5671,0.6538,0.7767,0.9478,0.8288,0.7782,0.8579,0.6135,0.4682,0.4747,0.3909,0.3703,0.4276,0.712,0.9739,1.2,1.4176,1.6116,1.7779,1.8276,1.8811,1.9419,1.8953,1.8171,1.694,1.3388,1.2687,1.3507,0.0,0.0,0.0,0.0,0.0,0.0,0.0,0.0,0.0,0.0,0.0,0.0,0.0,0.0,0.0,0.0,0.0,0.0,0.0,0.0,0.0,0.0,0.0,0.0,0.0,0.0,0.0,0.0,0.0,0.0,0.0,0.0,0.0,0.0,0.0,0.0,0.0,0.0,0.0,0.721,0.7604,0.0,0.0,0.0,0.0,0.6663,0.6905,0.753,0.865,0.8909,0.9145,0.9421,0.9249,0.8874,0.8285,0.8078,0.8005,0.8063,0.8063,0.8072,0.8077,0.7848,0.7822,0.7943,0.6862,0.6967,0.7809,0.6768,0.5919,0.5328,0.5691,0.5443,0.4893,0.5015,0.5129,0.5418,0.0,0.0,0.0,0.0,0.0,0.0,0.0,0.0,0.39,0.39,0.4796,0.5758,0.6614,0.7917,0.948,1.1318,1.1378,1.1067,1.0456,0.8767,0.7335,0.632,0.5014,0.5085,0.6782,0.8747,1.0781,1.2854,1.498,1.6607,1.7673,1.8318,1.8877,1.9396,1.9229,1.9047,1.8668,1.6026,1.4433,1.3457,1.0645,0.8964,0.0,0.0,0.0,0.0,0.0,0.0,0.0,0.0,0.0,0.0,0.0,0.0,0.0,0.0,0.0,0.0,0.0,0.0,0.0,0.0,0.0,0.0,0.0,0.0,0.0,0.0,0.0,0.0,0.0,0.0,0.0,0.0,0.0,0.0,0.0,0.0,0.0,0.8337,0.8738,0.0,0.8725,0.854,0.8496,0.8653,0.9252,0.9796,1.024,0.9954,1.0276,1.1333,1.0695,0.9966,0.9128,0.9416,0.869,0.699,0.7384,0.7543,0.7539,0.7398,0.7404,0.753,0.7421,0.7075,0.6621,0.7053,0.6802,0.6129,0.5834,0.5567,0.5361,0.5551,0.5743,0.5924,0.0,0.0,0.0,0.0,0.0,0.0,0.0,0.0,0.3975,0.4175,0.5414,0.668,0.777,0.9384,1.1075,1.2718,1.2867,1.2428,1.1343,0.976,0.8298,0.7016,0.6209,0.6769,0.886,1.0615,1.242,1.4364,1.6209,1.7546,1.8338,1.881,1.9307,1.9744,1.9561,1.9428,1.9147,1.7644,1.6034,1.4336,1.2195,1.1008,1.0211,0.0,0.0,0.0,0.0,0.0,0.0,0.0,0.0,0.0,0.0,0.0,0.0,0.0,0.0,0.0,0.0,0.0,0.0,0.0,0.0,0.0,0.0,0.0,0.0,0.0,0.0,0.0,0.0,0.0,0.0,0.0,0.0,0.0,0.0,0.0,0.9342,0.9322,0.9949,1.032,1.016,1.0279,1.047,1.0721,1.1263,1.1655,1.1737,1.1358,1.1626,1.2622,1.1934,1.1055,1.0037,1.0258,0.9263,0.7099,0.7509,0.7709,0.7704,0.7562,0.7681,0.7929,0.7875,0.7315,0.6473,0.7043,0.6878,0.6245,0.6095,0.593,0.5837,0.6,0.614,0.6317,0.0,0.0,0.0,0.0,0.0,0.0,0.0,0.39,0.4108,0.4726,0.6224,0.7727,0.9075,1.0909,1.2485,1.3651,1.2499,1.1566,1.1288,0.8861,0.7214,0.6764,0.7399,0.8578,1.036,1.2614,1.472,1.6641,1.7931,1.901,1.9912,1.9912,2.0146,2.0586,2.0089,1.944,1.864,1.8144,1.7466,1.6435,1.3359,1.273,1.3299,0.0,0.0,0.0,0.0,0.0,0.0,0.0,0.0,0.0,0.0,0.0,0.0,0.0,0.0,0.0,0.0,0.0,0.0,0.0,0.0,0.0,0.0,0.0,0.0,0.0,0.0,0.0,0.0,0.0,0.0,0.0,0.0,0.0,0.8447,0.9504,1.0235,1.0207,1.1229,1.1739,1.1142,1.1631,1.2201,1.2784,1.2817,1.2951,1.322,1.3187,1.3187,1.32,1.2796,1.2061,1.0924,1.0556,0.9816,0.8718,0.8708,0.8703,0.8732,0.8407,0.8707,0.934,0.824,0.7755,0.7661,0.6835,0.6083,0.5528,0.6502,0.6597,0.6207,0.6346,0.6387,0.6613,0.0,0.0,0.0,0.0,0.0,0.0,0.0,0.3931,0.4138,0.4785,0.6654,0.8334,0.938,1.1436,1.3248,1.4596,1.2945,1.2151,1.2815,0.97,0.7823,0.7777,0.8603,1.0136,1.2349,1.3272,1.4889,1.7235,1.7877,1.8767,1.9912,1.9912,2.0146,2.0566,1.9809,1.9684,1.9888,1.7657,1.6928,1.709,1.5169,1.4353,1.408,0.0,0.0,0.0,0.0,0.0,0.0,0.0,0.0,0.0,0.0,0.0,0.0,0.0,0.0,0.0,0.0,0.0,0.0,0.0,0.0,0.0,0.0,0.0,0.0,0.0,0.0,0.0,0.0,0.0,0.0,0.0,0.0,0.9266,0.9266,1.0685,1.1899,1.2311,1.2794,1.318,1.3233,1.3186,1.3313,1.3694,1.352,1.3527,1.3834,1.3019,1.2877,1.3537,1.2655,1.1943,1.1497,1.1474,1.0686,0.9133,0.8841,0.9003,0.9533,0.8301,0.8468,0.9743,0.9382,0.8825,0.8162,0.8314,0.7555,0.6313,0.6046,0.5871,0.5813,0.6134,0.6317,0.6548,0.0,0.0,0.0,0.0,0.0,0.0,0.0,0.397,0.4275,0.519,0.7014,0.8627,0.9702,1.1696,1.3153,1.3631,1.2322,1.1556,1.172,0.9713,0.8655,0.0,0.0,1.1639,1.3415,1.4512,1.5941,1.7842,1.8471,1.9297,2.0185,2.0185,2.0322,2.0566,2.005,1.9726,1.9383,1.7678,1.6837,1.6557,1.5881,1.5525,1.5226,1.4207,1.3244,1.2313,1.1812,1.1175,1.0439,0.9723,0.0,0.0,0.0,0.0,0.0,0.0,0.0,0.0,0.0,0.0,0.0,0.0,0.0,0.0,0.0,0.0,0.0,0.0,0.0,0.0,0.0,0.0,0.0,0.0,0.995,1.0705,1.107,1.1992,1.2906,1.3507,1.3728,1.3901,1.4068,1.3928,1.3901,1.4075,1.3928,1.3908,1.4082,1.3455,1.3316,1.3864,1.313,1.2389,1.1733,1.1693,1.0862,0.9216,0.8979,0.9053,0.9349,0.8437,0.8652,0.9718,0.9683,0.9244,0.8586,0.8899,0.8207,0.0,0.0,0.0,0.0,0.0,0.6129,0.632,0.0,0.0,0.0,0.0,0.0,0.0,0.0,0.4009,0.4475,0.5801,0.7253,0.8676,0.9981,1.1674,1.2476,1.1915,1.1174,1.0354,0.9361,0.9302,0.0,1.031,1.1792,1.2996,1.3952,1.5815,1.7298,1.8323,1.9345,2.0109,2.0605,2.0605,2.0605,2.0605,2.0489,1.9638,1.8278,1.7997,1.7033,1.5726,1.5938,1.6182,1.6398,1.5774,1.5195,1.4585,1.4009,1.2413,1.062,1.0688,0.0,0.0,0.0,0.0,0.0,0.0,0.0,0.0,0.0,0.0,0.0,0.0,0.0,0.0,0.0,0.0,0.0,0.0,0.0,0.0,0.0,0.0,0.0,0.0,1.1546,1.2325,1.3186,1.3307,1.35,1.4028,1.4088,1.4088,1.4088,1.4088,1.4088,1.4088,1.4088,1.4088,1.4088,0.0,0.0,0.0,0.0,1.3144,1.1975,1.1685,1.0833,0.9473,0.933,0.9169,0.9004,0.8928,0.9183,0.9692,0.9692,0.9477,0.9085,0.9057,0.844,0.7427,0.6777,0.6241,0.5864,0.6036,0.6095,0.6276,0.0,0.0,0.0,0.0,0.0,0.0,0.0,0.4071,0.4591,0.6241,0.7013,0.8171,1.0124,1.1051,1.1869,1.2668,1.1068,0.9787,0.9251,0.0,1.0472,1.1725,1.2612,1.3638,1.4903,1.5685,1.6896,1.8534,1.9134,1.9808,2.0605,2.0605,2.0605,2.0566,1.9854,1.9736,1.9962,1.7868,1.7147,1.7391,1.6078,1.5805,1.6197,1.6359,1.5855,1.5005,1.4974,1.4934,1.4735,1.3708,1.3429,1.3212,1.1567,0.0,0.0,0.0,0.0,0.0,0.0,0.0,0.0,0.0,0.0,0.0,0.0,0.0,0.0,0.0,0.0,0.0,0.0,0.0,0.0,1.1546,1.2409,1.318,1.3828,1.3921,1.3961,1.4075,1.4088,1.4088,1.4088,1.4088,1.4088,1.4088,1.4088,1.4088,1.4088,1.4088,1.4088,1.4088,1.3828,1.3493,1.3098,1.2671,1.2176,1.1659,0.0,0.0,1.0948,1.0279,1.0297,1.0773,1.0773,1.0633,1.0331,1.0124,0.9263,0.8048,0.74,0.7233,0.7381,0.741,0.7364,0.7424,0.0,0.0,0.0,0.0,0.0,0.0,0.0,0.3996,0.4381,0.5858,0.6485,0.7375,0.889,0.9684,1.0189,1.0431,0.9475,0.8958,0.0,1.0241,1.1376,1.2537,1.3437,1.4432,1.5537,1.6381,1.7477,1.8786,1.9584,2.0167,2.0605,2.0605,2.0605,2.0566,2.0128,1.9932,1.9854,1.8069,1.7594,1.7836,1.6113,1.5808,1.642,1.6603,1.6118,1.5309,1.5803,1.5842,1.5514,1.4695,1.4457,1.4312,1.3001,1.153,0.9973,0.0,0.0,0.0,0.0,0.0,0.0,0.0,0.0,0.0,0.0,0.0,0.0,0.0,0.0,0.9698,1.0284,0.0,1.1943,1.2977,1.3273,1.3681,1.4422,1.4396,1.4249,1.4108,1.4088,1.4088,1.4088,1.4088,1.4088,1.4088,1.4088,1.4088,1.4088,1.4088,1.4088,1.4088,1.3955,1.3737,1.3398,1.3258,1.291,1.2312,1.1887,1.1693,1.1682,1.1154,1.1064,1.1279,1.1172,1.096,1.0665,1.04,0.9956,0.94,0.9015,0.8353,0.7663,0.7733,0.7785,0.789,0.0,0.0,0.0,0.0,0.0,0.0,0.0,0.396,0.42,0.5379,0.5891,0.6509,0.7501,0.8083,0.819,0.7661,0.7861,0.8382,0.0,1.0799,1.2211,1.3343,1.436,1.5337,1.6245,1.7314,1.827,1.9045,2.0089,2.0605,2.0605,2.0605,2.0605,2.0605,2.0605,2.0206,1.9499,1.8607,1.8238,1.8078,1.6353,1.6064,1.669,1.6423,1.5962,1.5499,1.6103,1.5738,1.4944,1.4719,1.456,1.4313,1.3875,1.3014,1.1807,1.0252,0.9536,0.0,0.0,0.0,0.0,0.0,0.0,0.0,0.0,0.0,0.8672,0.9676,1.0487,1.13,1.2254,1.252,1.3024,1.4212,1.4052,1.4039,1.4901,1.4756,1.4496,1.4208,1.4222,1.4235,1.4175,1.4168,1.4148,1.4088,1.4088,1.4088,1.4088,1.4088,1.4088,1.4088,1.4088,1.387,1.3483,1.361,1.3277,1.2516,1.2729,1.2546,1.2033,1.1766,1.1582,1.1477,1.1232,1.096,1.0665,1.0454,1.0445,1.0516,1.0463,0.9473,0.8104,0.8169,0.8287,0.8456,0.0,0.0,0.0,0.0,0.0,0.0,0.0,0.0,0.4447,0.5532,0.5375,0.5688,0.711,0.6708,0.64,0.656,0.7708,0.0,0.9673,1.1131,1.2836,1.4767,1.5559,1.6439,1.7478,1.8172,1.8767,1.9262,2.0167,2.0605,2.0605,2.0605,2.0605,2.0605,2.0605,2.0566,2.0411,1.9529,1.9143,1.9015,1.7269,1.6617,1.6585,1.5493,1.5215,1.5387,1.5175,1.4675,1.4159,1.4423,1.433,1.4132,1.4468,1.3977,1.3027,1.1585,0.0,0.9121,0.7195,0.6563,0.6874,0.8489,0.8466,0.8787,0.0,0.0,1.1487,1.2753,1.3323,1.3585,1.3614,1.3866,1.4151,1.4441,1.4442,1.4549,1.4955,1.4981,1.4803,1.4502,1.471,1.4763,1.4496,1.4476,1.4362,1.4108,1.4088,1.4088,1.4088,1.4088,1.4088,1.4088,1.4088,1.3955,1.3652,1.3695,1.3548,1.3262,1.3305,1.3075,1.2599,1.2327,1.1954,1.1477,1.1232,1.096,1.0719,1.0653,1.0538,1.0361,1.0504,1.0436,1.0227,1.0072,0.9947,0.9888,0.0,0.0,0.0,0.0,0.0,0.0,0.0,0.0,0.0,0.4952,0.4857,0.4942,0.5564,0.5155,0.4944,0.5205,0.0,0.0,0.9563,1.1148,1.2829,1.4687,1.5746,1.6714,1.7683,1.8439,1.9164,1.9863,2.0372,2.0605,2.0605,2.0605,2.0605,2.0605,2.0605,2.0752,2.0898,1.976,1.9718,2.0242,1.8244,1.7755,1.8017,1.6087,1.5227,1.4965,1.4334,1.3923,0.0,0.0,1.3528,1.347,1.3873,1.3359,1.2438,1.1507,1.0872,0.0,0.9348,0.8954,0.0,0.0,1.0269,1.0807,1.2372,1.2555,1.2723,1.3836,1.4318,1.4514,1.455,1.4698,1.4837,0.0,1.4865,1.4883,1.5177,1.5115,1.4961,1.4796,1.489,1.4827,1.4315,1.4269,1.4215,1.4095,1.4088,1.4088,1.4088,1.4088,1.4088,1.4088,1.4088,1.3955,1.3695,1.3864,1.3743,1.3398,1.3525,1.3117,1.2271,1.1944,1.1449,1.0939,1.116,1.1199,1.1095,1.0985,1.0882,1.0785,1.1002,1.1047,1.0972,1.075,1.0659,1.0699,0.0,0.0,0.0,0.0,0.0,0.0,0.0,0.0,0.0,0.0,0.4533,0.4396,0.4136,0.3963,0.398,0.0,0.0,0.0,0.0,1.0792,1.252,1.4291,1.5504,1.6758,1.8095,1.8727,1.9441,2.0372,2.0527,2.0605,2.0605,2.0605,2.0605,2.0605,2.0605,2.0742,2.0986,2.0065,2.0191,2.0847,1.8926,1.8496,1.8649,1.6126,1.4892,1.437,1.3442,1.2862,0.0,0.0,1.2262,1.238,1.2621,1.2328,1.178,1.1128,1.0718,1.0432,1.047,0.0,0.0,1.1123,1.1851,1.2536,1.3039,1.3338,1.377,1.4567,1.4918,1.5022,1.4998,1.5007,1.5116,1.5215,1.5098,1.5109,1.5357,1.5217,1.5068,1.4863,1.4843,1.4643,1.4135,1.4162,1.4175,1.4095,1.4162,1.4208,1.4208,1.4282,1.4289,1.4208,1.4208,1.4083,1.3822,1.3997,1.3913,1.361,1.3737,1.3349,1.2467,1.2022,1.1536,1.1006,1.1414,1.1521,1.1378,1.1309,1.1264,1.1226,1.1414,1.1484,1.1424,1.1246,1.1233,1.1307,0.0,0.0,0.0,0.0,0.0,0.0,0.0,0.0,0.0,0.0,0.0,0.0,0.0,0.0,0.0,0.0,0.0,0.0,0.0,0.9977,1.1992,1.3947,1.4918,1.6632,1.9204,1.9085,1.952,2.0605,2.0605,2.0605,2.0605,2.0605,2.0605,2.0605,2.0605,2.0615,2.0625,2.0576,2.0576,2.0508,1.9141,1.8353,1.7742,1.4863,1.3754,1.3579,1.2462,0.0,0.0,0.0,1.0397,1.066,1.0675,1.1122,0.0,1.0821,0.9724,0.0,0.0,0.0,1.0492,1.2072,1.2958,1.3704,1.4615,1.4834,1.4944,1.5287,1.5367,1.5242,1.4783,1.4699,1.4781,1.5003,1.5008,1.5109,1.5357,1.5391,1.517,1.4603,1.4536,1.4416,0.0,1.4342,1.4389,1.4108,1.4349,1.4502,1.4502,1.4783,1.4803,1.4516,1.4502,1.4369,1.4088,1.4088,1.4088,1.4088,1.4088,1.3913,1.3639,1.314,1.2667,1.2145,1.2184,1.1866,1.1434,1.1669,1.167,1.1516,1.1715,1.178,1.182,1.1901,1.1916,1.1857,0.0,0.0,0.0,0.0,0.0,0.0,0.0,0.0,0.0,0.0,0.0,0.0,0.0,0.0,0.0,0.0,0.0,0.0,0.0,0.898,1.0507,1.2001,1.4433,1.5841,1.61,1.8136,1.9052,1.8741,1.9678,2.0137,2.0137,2.0468,2.0605,2.0605,2.0605,2.0732,2.0986,2.0693,2.0439,2.003,1.9016,1.8209,1.7377,1.5101,1.3597,1.2538,0.0,0.0,0.0,0.9324,0.9238,0.9329,0.9329,0.95,0.0,0.942,0.9314,0.949,0.0,0.0,1.1992,1.3192,1.3975,1.4557,1.5104,1.5228,1.5151,1.4919,1.4605,1.4173,1.368,1.3734,1.3952,1.3994,1.4697,1.515,1.4856,1.515,1.5104,1.4329,1.4402,0.0,0.0,0.0,0.0,1.4095,1.4355,1.4522,1.4522,1.4803,1.4961,1.4861,1.4816,1.4669,1.4376,1.4376,1.4282,1.4088,1.3483,1.3037,1.285,1.2645,1.2363,1.2097,1.2504,1.257,1.2402,1.2348,1.2307,1.2234,1.2313,1.2425,1.2537,1.259,1.2685,1.2705,0.0,0.0,0.0,0.0,0.0,0.0,0.0,0.0,0.0,0.0,0.0,0.0,0.0,0.0,0.0,0.0,0.0,0.0,0.0,0.0,0.879,1.019,1.2342,1.3564,1.372,1.5617,1.6684,1.685,1.7523,1.8198,1.884,1.8932,1.9167,1.946,1.946,1.9668,2.0021,1.9619,1.9216,1.8736,1.7875,1.6958,1.5859,1.4016,1.2553,0.0,0.0,0.0,0.0,0.8237,0.8148,0.8297,0.8048,0.8312,0.8714,0.8848,0.938,1.0199,0.0,1.2299,1.3279,1.4253,1.4896,1.5301,1.5513,1.5382,1.5078,1.455,1.4029,1.3452,1.2838,1.2822,1.2928,1.3063,1.3749,1.4309,1.4355,1.4596,1.4676,1.4429,1.4469,1.4489,0.0,0.0,0.0,1.4249,1.4609,1.4836,1.4836,1.511,1.5224,1.5169,1.5117,1.4977,1.4683,1.4569,1.4376,1.4088,1.3483,1.3121,1.3029,1.2958,1.2807,1.2578,1.2993,1.3061,1.2902,1.288,1.2798,1.2758,1.2838,1.2919,1.3026,1.3008,1.3094,1.3153,0.0,0.0,0.0,0.0,0.0,0.0,0.0,0.0,0.0,0.0,0.0,0.0,0.0,0.0,0.0,0.0,0.0,0.0,0.0,0.0,0.0,0.8473,0.8962,1.0099,1.2039,1.1884,1.2778,1.4869,1.4385,1.5034,1.6712,1.6224,1.6447,1.7249,1.7269,1.7471,1.7822,1.7441,1.7076,1.666,1.5812,1.4686,1.3367,1.171,0.0,0.0,0.0,0.0,0.0,0.0,0.0,0.0,0.0,0.0,0.8833,0.9214,0.9999,1.0989,1.227,1.3338,1.4304,1.5206,1.5694,1.5913,1.5899,1.5345,1.4736,1.423,1.3626,1.2949,0.0,0.0,1.1861,1.2181,1.2338,1.2812,1.3948,1.3908,1.4013,0.0,0.0,0.0,0.0,0.0,0.0,1.4609,0.0,1.5398,1.5398,1.5671,1.5705,1.5431,1.5418,1.5284,1.5035,1.4689,1.4396,1.4108,1.4108,1.4102,1.4088,1.4088,1.3935,1.3626,1.3626,1.3386,1.2994,1.3222,1.3209,1.3086,1.3251,1.3339,1.3348,1.328,1.3253,1.3253,0.0,0.0,0.0,0.0,0.0,0.0,0.0,0.0,0.0,0.0,0.0,0.0,0.0,0.0,0.0,0.0,0.0,0.0,0.0,0.0,0.0,0.0,0.0,0.0,0.0,0.0,0.0,0.0,0.0,1.3615,1.4076,1.4594,1.4943,1.517,1.5418,1.5586,1.5694,1.585,1.5303,1.4314,0.0,1.2792,1.1526,0.0,0.0,0.0,0.0,0.0,0.0,0.0,0.0,0.0,0.0,0.0,0.9585,1.0674,1.1633,1.2621,1.3682,1.4684,1.554,1.6009,1.6023,1.5848,1.5564,1.505,1.4277,1.314,1.2117,1.1094,0.0,0.0,0.0,1.1303,1.2806,0.0,1.4369,1.4865,0.0,0.0,0.0,1.5117,1.5022,1.5157,0.0,0.0,1.5438,1.5398,1.5398,1.5671,1.5751,1.5718,1.5718,1.5578,1.5291,1.4997,1.4703,1.4409,1.4409,1.4295,1.4088,1.4088,1.4048,1.3975,1.3975,1.3893,1.3785,1.3858,1.3891,1.38,1.3891,1.3891,1.3878,1.3895,1.3861,1.3861,0.0,0.0,0.0,0.0,0.0,0.0,0.0,0.0,0.0,0.0,0.0,0.0,0.0,0.0,0.0,0.0,0.0,0.0,0.0,0.0,0.0,0.0,0.0,0.0,0.0,0.0,0.0,0.0,0.0,0.0,0.0,1.1691,1.2126,1.2692,1.2897,1.3179,1.3546,1.3554,0.0,0.0,0.0,0.0,0.0,0.0,0.0,0.0,0.0,0.0,0.0,0.0,0.0,0.898,0.9622,1.0201,1.0879,1.2072,0.0,1.3865,1.4838,1.5701,1.6367,1.658,1.625,1.571,1.5056,1.4314,1.3295,1.1722,1.0748,0.0,0.0,0.0,0.0,0.0,0.0,0.0,1.3979,1.4512,1.4943,0.0,1.5411,0.0,1.5591,1.5798,1.6039,0.0,1.5825,1.5645,1.5772,1.5812,1.5784,1.5784,1.5784,1.5691,1.5398,1.5237,1.4943,1.4522,1.4522,1.4369,1.4088,1.4088,1.4088,1.4088,0.0,1.4088,1.4088,1.4088,1.4088,1.4088,1.4088,1.4088,1.4088,1.4088,1.4088,1.4088,0.0,0.0,0.0,0.0,0.0,0.0,0.0,0.0,0.0,0.0,0.0,0.0,0.0,0.0,0.0,0.0,0.0,0.0,0.0,0.0,0.0,0.0,0.0,0.0,0.0,0.0,0.0,0.0,0.0,0.0,0.0,0.0,0.0,0.0,0.0,0.0,0.0,0.0,0.0,0.0,0.0,0.0,0.0,0.0,0.0,0.0,0.0,0.0,0.0,0.0,1.0043,1.0546,1.05,1.1288,1.2448,1.3462,1.4187,1.486,1.5789,1.6469,1.6954,1.691,1.6345,1.5549,1.4485,1.3389,1.2085,1.0298,0.0,0.9118,0.84,0.0,0.9112,1.0027,0.0,1.1817,1.348,1.3786,1.4213,1.5277,1.5685,1.5985,1.6246,1.6533,1.672,1.676,1.6259,1.6059,1.6319,1.6052,1.5872,1.5784,1.5784,1.5705,1.5458,1.5451,1.5157,1.4583,1.4583,1.4402,1.4088,1.4088,1.4088,1.4088,1.4088,0.0,1.4088,1.4088,1.4088,1.4088,1.4088,1.4088,1.4088,1.4088,1.4088,1.4088,0.0,0.0,0.0,0.0,0.0,0.0,0.0,0.0,0.0,0.0,0.4587,0.3525,0.0,0.0,0.0,0.0,0.0,0.0,0.0,0.0,0.0,0.0,0.0,0.0,0.0,0.0,0.0,0.0,0.0,0.0,0.0,0.0,0.0,0.0,0.0,0.0,0.0,0.0,0.0,0.0,0.0,0.0,0.0,0.0,0.0,0.0,0.0,0.0,0.0,0.0,1.0402,1.1523,1.2266,1.3031,1.3836,1.4809,1.5365,1.5818,1.6551,1.696,1.7179,1.6969,1.6177,1.5221,1.4135,1.2725,0.0,0.0,0.0,0.8266,0.7758,0.827,0.0,1.0332,0.0,0.0,0.0,0.0,1.5164,0.0,0.0,0.0,0.0,0.0,0.0,0.0,0.0,1.6573,1.6627,1.6353,1.6086,1.5791,1.5784,1.5758,1.5752,1.5752,1.5464,1.4928,1.4928,1.4646,1.4088,1.4088,1.4088,1.4088,1.4088,0.0,1.4088,1.4088,1.4088,1.4088,1.4088,1.4088,1.4088,1.4088,1.4088,1.4088,0.0,0.0,0.0,0.0,0.0,0.0,0.0,0.5441,0.6242,0.6437,0.6324,0.5775,0.4549,0.3803,0.3356,0.0,0.0,0.0,0.0,0.0,0.0,0.0,0.0,0.0,0.0,0.0,0.0,0.0,0.0,0.0,0.0,0.0,0.0,0.0,0.0,0.0,0.0,0.0,0.0,0.0,0.0,0.0,0.0,0.0,0.0,0.0,0.0,0.0,0.0,0.0,1.0147,1.1578,1.266,1.3689,1.464,1.5445,1.5906,1.6294,1.693,1.7216,1.7252,1.6983,1.6009,1.4747,1.3172,0.0,0.0,0.0,0.0,0.7709,0.731,0.0,0.0,0.0,0.0,0.0,0.0,0.0,0.0,0.0,0.0,0.0,0.0,0.0,0.0,0.0,0.0,1.7094,1.6947,1.6563,1.6206,1.6066,1.5912,1.5784,1.5784,1.5784,1.5538,1.5008,1.5008,1.47,1.4088,1.4088,1.4168,1.4302,1.4155,0.0,1.4559,1.4215,1.4311,1.4529,1.4376,1.4409,1.4586,1.4586,1.4442,1.4309,0.0,0.0,0.0,0.0,0.0,0.0,0.0,0.6148,0.7119,0.7615,0.8156,0.8032,0.6829,0.5328,0.4315,0.0,0.0,0.0,0.0,0.0,0.0,0.0,0.0,0.0,0.0,0.0,0.0,0.0,0.0,0.0,0.0,0.0,0.0,0.0,0.0,0.0,0.0,0.0,0.0,0.0,0.0,0.0,0.0,0.0,0.0,0.0,0.0,0.0,0.0,0.0,0.9522,1.0843,1.1936,1.3185,1.4448,1.535,1.5826,1.6228,1.7018,1.7274,1.7238,1.6895,1.5789,1.4309,1.2347,1.0922,0.0,0.0,0.7413,0.7389,0.7131,0.0,0.0,0.0,0.0,0.0,0.0,0.0,0.0,0.0,0.0,0.0,0.0,0.0,0.0,0.0,0.0,0.0,1.7125,1.6663,1.6306,1.6179,1.5952,1.5784,1.5784,1.5784,1.5571,1.5102,1.5035,1.4689,1.4182,1.4182,1.4302,1.4509,1.4342,0.0,0.0,1.4512,1.4593,1.4988,1.4703,1.4716,1.4914,1.4914,1.4683,1.4429,0.0,0.0,0.0,0.0,0.0,0.0,0.0,0.6855,0.8187,1.0249,0.986,0.919,0.8699,0.669,0.5032,0.0,0.0,0.0,0.0,0.0,0.0,0.0,0.0,0.0,0.0,0.0,0.0,0.0,0.0,0.0,0.0,0.0,0.0,0.0,0.0,0.0,0.0,0.0,0.0,0.0,0.0,0.0,0.0,0.0,0.0,0.0,0.0,0.0,0.0,0.0,0.0,0.9051,0.9703,1.0989,1.2572,1.415,0.0,0.0,1.6609,1.7106,1.7179,1.6609,1.5494,1.4077,1.2222,0.0,0.0,0.0,0.7566,0.7405,0.7377,0.754,0.8041,0.0,0.0,0.0,0.0,0.0,0.0,0.0,0.0,0.0,0.0,0.0,0.0,0.0,0.0,0.0,1.6774,1.6693,1.642,1.5838,1.5798,1.5784,1.5784,1.5784,1.5671,1.5351,1.5135,1.4796,1.4482,1.4482,1.4496,1.4536,1.4821,0.0,0.0,1.4948,1.4961,1.5008,1.4981,1.4776,1.4563,1.4563,1.4376,1.4128,0.0,0.0,0.0,0.0,0.0,0.0,0.6014,0.6938,0.8321,1.0611,1.0561,1.0159,0.9722,0.8408,0.6846,0.5096,0.0,0.0,0.0,0.0,0.0,0.0,0.0,0.0,0.0,0.0,0.0,0.0,0.0,0.0,0.0,0.0,0.0,0.0,0.0,0.0,0.0,0.0,0.0,0.0,0.0,0.0,0.0,0.0,0.0,0.0,0.0,0.0,0.0,0.0,0.0,0.0,0.8398,0.89,0.0,0.0,1.4231,1.5141,1.6309,1.6938,1.7172,1.6528,1.5303,1.3748,1.2058,0.0,0.0,0.7844,0.749,0.7398,0.7398,0.7514,0.7827,0.0,0.0,0.0,0.0,0.0,0.0,0.0,0.0,0.0,0.0,0.0,0.0,0.0,0.0,0.0,1.674,1.6707,1.652,1.6112,1.5925,1.5784,1.5784,1.5784,1.5685,1.5398,1.5284,1.507,1.4783,1.4783,1.4883,1.5044,1.499,0.0,0.0,1.511,1.517,1.5471,1.5291,1.515,1.5044,1.5044,1.475,1.4349,0.0,0.0,0.0,0.0,0.0,0.4758,0.6003,0.6938,0.8214,1.0211,1.0479,1.0303,0.9867,0.9015,0.78,0.6066,0.5659,0.0,0.0,0.0,0.0,0.0,0.0,0.0,0.0,0.0,0.0,0.0,0.0,0.0,0.0,0.0,0.0,0.0,0.0,0.0,0.0,0.0,0.0,0.0,0.0,0.0,0.0,0.0,0.0,0.0,0.0,0.0,0.0,0.0,0.0,0.0,0.0,0.0,0.0,0.0,1.3105,1.4294,1.5496,1.6345,1.6777,1.6228,1.4955,1.3411,0.0,0.0,0.8647,0.7752,0.7438,0.7368,0.7461,0.7524,0.7692,0.0,0.0,0.0,0.0,0.0,0.0,0.0,0.0,0.0,0.0,0.0,0.0,0.0,0.0,0.0,1.6734,1.662,1.6446,1.6152,1.5939,1.5784,1.5784,1.5784,1.5732,1.5524,1.5438,1.5291,1.5135,1.5135,1.5204,1.5391,1.5271,0.0,0.0,1.5391,1.5464,1.5758,1.5605,1.5418,1.5271,1.5271,1.4897,1.4396,0.0,0.0,0.0,0.0,0.0,0.0,0.6066,0.6938,0.7976,0.9344,0.9503,0.9355,0.8958,0.8073,0.7353,0.6922,0.6034,0.0,0.0,0.0,0.0,0.0,0.0,0.0,0.0,0.0,0.0,0.0,0.0,0.0,0.0,0.0,0.0,0.0,0.0,0.0,0.0,0.0,0.0,0.0,0.0,0.0,0.0,0.0,0.0,0.0,0.0,0.0,0.0,0.0,0.0,0.0,0.0,0.0,0.0,0.0,1.1304,1.2383,1.4086,1.5189,1.5848,1.5476,1.4465,1.3075,0.0,0.0,0.8509,0.7829,0.7435,0.7311,0.7632,0.76,0.7674,0.8213,0.0,0.0,0.0,0.0,0.0,0.0,0.0,0.0,0.0,0.0,0.0,0.0,0.0,0.0,1.672,1.6433,1.6139,1.5798,1.5784,1.5784,1.5784,1.5784,1.5784,1.5771,1.5531,1.5398,1.5391,1.5391,1.5391,0.0,0.0,0.0,0.0,1.5771,1.5771,1.5784,1.5778,1.5471,1.5015,1.5015,1.464,1.4088,0.0,0.0,0.0,0.0,0.0,0.0,0.0,0.5473,0.6367,0.8352,0.8328,0.8204,0.8408,0.7866,0.7183,0.6428,0.5826,0.0,0.0,0.0,0.0,0.0,0.0,0.0,0.0,0.0,0.6831,0.7752,0.8199,0.0,0.0,0.0,0.0,0.0,0.0,0.0,0.0,0.0,0.0,0.0,0.0,0.0,0.0,0.0,0.0,0.0,0.0,0.0,0.0,0.0,0.0,0.0,0.0,0.0,0.0,0.8585,1.0108,0.0,1.231,1.3192,1.3792,1.3214,1.2299,1.126,1.0294,0.0,0.7902,0.745,0.7282,0.7238,0.7341,0.7428,0.7709,0.8329,0.8164,0.0,0.0,0.0,0.0,0.0,0.0,0.0,0.0,0.0,0.0,0.0,0.0,0.0,1.6426,1.6375,1.6139,1.5791,1.5784,1.5784,1.5784,1.5784,1.5784,1.5784,1.5684,1.5691,1.5691,1.5691,1.5691,0.0,0.0,0.0,0.0,1.5784,1.5784,1.5764,1.5611,1.5424,1.5211,1.481,1.4543,1.4355,0.0,0.0,0.0,0.0,0.0,0.0,0.0,0.4591,0.5315,0.673,0.6656,0.6781,0.7576,0.6967,0.6459,0.6407,0.5847,0.0,0.0,0.0,0.0,0.0,0.0,0.0,0.0,0.62,0.7019,0.8471,0.8648,0.9159,0.9922,0.9268,0.0,0.0,0.0,0.0,0.0,0.0,0.0,0.0,0.0,0.0,0.7294,0.0,0.0,0.0,0.0,0.0,0.0,0.0,0.0,0.0,0.0,0.0,0.0,0.0,0.8588,0.9826,0.0,1.1665,1.2182,1.1772,1.1033,0.0,0.0,0.0,0.0,0.7246,0.7019,0.6917,0.7165,0.7303,0.758,0.8203,0.8241,0.0,0.0,0.0,0.0,0.0,0.0,0.0,0.0,0.0,0.0,0.0,0.0,0.0,1.6335,1.6166,1.6019,1.5791,1.5784,1.5784,1.5784,1.5784,1.5784,1.5784,1.5784,1.5784,1.5784,1.5784,1.5784,0.0,0.0,0.0,0.0,1.5712,1.5732,1.5751,1.5504,1.5331,1.519,1.4823,1.4549,1.4335,0.0,0.0,0.0,0.0,0.0,0.0,0.0,0.4194,0.4719,0.475,0.4782,0.5264,0.6479,0.5557,0.5366,0.664,0.0,0.0,0.0,0.0,0.0,0.0,0.0,0.0,0.0,0.6045,0.6742,0.8896,0.816,0.842,0.9664,1.0035,0.9288,0.0,0.0,0.0,0.6126,0.6602,0.6356,0.5753,0.6998,0.7255,0.0,0.0,0.0,0.0,0.0,0.0,0.0,0.0,0.0,0.0,0.0,0.0,0.0,0.0,0.0,0.0,0.0,1.0338,1.0865,1.0865,1.0382,0.9775,0.0,0.0,0.0,0.0,0.668,0.6478,0.7085,0.7209,0.7388,0.796,0.8204,0.0,0.0,0.0,0.0,0.0,0.0,0.0,0.0,0.0,0.0,0.0,0.0,0.0,1.6239,1.5979,1.5784,1.5784,1.5758,1.5758,1.5784,1.5784,1.5784,1.5784,1.5784,1.5784,1.5784,1.5784,1.5784,0.0,0.0,0.0,0.0,1.5538,1.5585,1.5751,1.5484,1.5211,1.5028,1.4968,1.4569,1.4115,0.0,0.0,0.0,0.0,0.0,0.0,0.0,0.0,0.0,0.0,0.4609,0.4784,0.4736,0.5096,0.5324,0.0,0.0,0.0,0.0,0.0,0.0,0.0,0.0,0.0,0.0,0.6959,0.8004,0.8896,1.0067,1.0803,1.1085,1.0487,0.9777,0.8983,0.7811,0.685,0.6126,0.6602,0.6893,0.7061,0.7369,0.7649,0.0,0.0,0.0,0.0,0.8183,0.8457,0.0,0.0,0.0,0.0,0.0,0.0,0.0,0.0,0.6946,0.6922,0.7378,0.0,0.8502,0.8502,0.8392,0.815,0.0,0.0,0.0,0.0,0.0,0.0,0.0,0.0,0.7501,0.8383,0.8486,0.0,0.0,0.0,0.0,0.0,0.0,0.0,0.0,0.0,0.0,0.0,0.0,1.5932,1.5932,1.5818,1.5784,1.5784,1.5611,1.5605,1.5778,1.5784,1.5784,1.5784,1.5784,1.5784,1.5784,1.5784,1.5784,0.0,0.0,0.0,1.5778,1.5711,1.5718,1.5731,1.5264,1.5157,1.5211,1.4543,1.4342,1.4389,0.0,0.0,0.0,0.0,0.0,0.0,0.0,0.0,0.0,0.0,0.0,0.0,0.0,0.0,0.0,0.0,0.0,0.0,0.0,0.0,0.0,0.0,0.0,0.0,0.5775,0.6754,0.7775,0.8815,1.0069,1.0974,1.1548,1.1481,1.085,0.9747,0.7925,0.6986,0.6757,0.7005,0.7017,0.6912,0.7566,0.0,0.0,0.0,0.0,0.0,0.8201,0.8502,0.0,0.9028,0.9497,0.9906,0.0,0.0,0.0,0.0,0.6833,0.656,0.6518,0.7104,0.7691,0.7691,0.7691,0.7647,0.7472,0.0,0.0,0.0,0.0,0.0,0.0,0.0,0.0,0.0,0.0,0.0,0.0,0.0,0.0,0.0,0.0,0.0,0.0,0.0,0.0,0.0,0.0,1.5691,1.5771,1.5705,1.5631,1.5631,1.5351,1.5398,1.5778,1.5565,1.5565,1.5784,1.5698,1.5698,1.5778,1.5691,1.5705,0.0,0.0,0.0,1.5758,1.5538,1.5585,1.5738,1.5337,1.5223,1.5137,1.4707,1.4416,1.4302,0.0,0.0,0.0,0.0,0.0,0.0,0.0,0.0,0.0,0.0,0.0,0.0,0.0,0.0,0.0,0.0,0.0,0.0,0.0,0.0,0.0,0.0,0.0,0.5753,0.6302,0.6366,0.7228,0.8927,0.958,1.0449,1.1528,1.2467,1.1902,1.0015,0.8363,0.7566,0.7504,0.7504,0.709,0.653,0.7721,0.0,0.0,0.0,0.0,0.0,0.0,0.0,0.0,0.9216,0.9935,1.0526,0.9508,0.0,0.0,0.0,0.0,0.0,0.6385,0.7122,0.7888,0.7668,0.7691,0.7742,0.0,0.0,0.0,0.0,0.0,0.0,0.0,0.0,0.0,0.0,0.0,0.0,0.0,0.0,0.0,0.0,0.0,0.0,0.0,0.0,0.0,0.0,0.0,1.5438,1.5685,1.5464,1.5331,1.5331,1.505,1.5157,1.5691,1.5211,1.5237,1.5758,1.5518,1.5524,1.5752,1.5504,1.5504,1.5671,0.0,0.0,1.5658,1.5209,1.5251,1.5665,1.5378,1.511,1.4934,1.4894,1.4559,1.4088,0.0,0.0,0.0,0.0,0.0,0.0,0.0,0.0,0.0,0.0,0.0,0.0,0.0,0.0,0.0,0.0,0.0,0.0,0.0,0.0,0.0,0.0,0.5502,0.6066,0.7255,0.7297,0.8174,0.9963,1.0855,1.1388,1.1593,1.249,1.1716,0.9571,0.8549,0.788,0.7504,0.7504,0.7638,0.79,0.8118,0.0,0.0,0.0,0.0,0.0,0.0,0.0,0.0,0.8508,0.9247,1.0059,0.8726,0.0,0.0,0.0,0.0,0.0,0.668,0.7783,0.8701,0.7554,0.7698,0.7982,0.0,0.0,0.0,0.0,0.0,0.0,0.0,0.0,0.0,0.0,0.0,0.0,0.0,0.0,0.0,0.0,0.0,0.0,0.0,0.0,0.0,0.0,0.0,1.5095,1.5142,1.5102,1.5075,1.5075,1.4743,1.475,1.5142,1.5055,1.5182,1.5464,1.5418,1.5418,1.5464,1.5418,1.5291,1.5135,0.0,1.5062,1.5135,1.5042,1.5062,1.507,1.477,1.4623,1.4556,1.4315,1.4162,1.4088,0.0,0.0,0.0,0.0,0.0,0.0,0.0,0.0,0.0,0.0,0.0,0.0,0.0,0.0,0.0,0.0,0.0,0.0,0.0,0.0,0.0,0.66,0.6358,0.6604,0.7483,0.8002,0.8945,1.035,1.1695,1.2285,1.2146,1.2442,1.1623,0.9829,0.8704,0.8087,0.7835,0.7338,0.7535,0.8201,0.0,0.0,0.0,0.0,0.0,0.0,0.0,0.0,0.0,0.0,0.9305,1.0004,0.889,0.0,0.0,0.0,0.0,0.0,0.6436,0.7256,0.8076,0.7452,0.8412,0.0,0.0,0.0,0.0,0.0,0.0,0.0,0.0,0.0,0.0,0.0,0.0,0.0,0.0,0.0,0.0,0.0,0.0,0.0,0.0,0.0,0.0,0.0,0.0,0.0,1.5001,1.481,1.4723,1.4723,1.4436,1.4355,1.4489,1.4489,1.4716,1.5164,1.4997,1.501,1.5157,1.4997,1.4937,1.5001,0.0,1.4816,1.5008,1.5008,1.5008,1.4995,1.481,1.4663,1.4482,1.4195,1.4088,1.4088,0.0,0.0,0.0,0.0,0.0,0.0,0.0,0.0,0.0,0.0,0.0,0.0,0.0,0.0,0.0,0.0,0.0,0.0,0.0,0.0,0.6045,0.722,0.7191,0.7558,0.845,0.8806,0.9667,1.1017,1.2412,1.3113,1.3145,1.2574,1.1612,1.0293,0.8849,0.8201,0.8139,0.7204,0.7338,0.8201,0.0,0.0,0.0,0.0,0.0,0.0,0.0,0.0,0.0,0.0,0.0,0.0,0.0,0.0,0.0,0.8049,0.736,0.7064,0.6618,0.717,0.7858,0.7706,0.0,0.0,0.0,0.0,0.0,0.0,0.0,0.0,0.0,0.0,0.0,0.0,0.0,0.0,0.0,0.0,0.0,0.0,0.0,0.0,0.0,0.0,0.0,0.0,0.0,0.0,1.4794,1.4543,1.4422,1.4422,1.4202,1.4088,1.4088,1.4088,1.4349,1.4901,1.4629,1.4636,1.485,1.4623,1.4609,1.4787,1.4516,1.4549,1.48,1.48,1.48,1.48,1.48,1.4616,1.4389,1.4168,1.4128,1.4188,0.0,0.0,0.0,0.0,0.0,0.0,0.0,0.0,0.0,0.0,0.0,0.0,0.0,0.0,0.0,0.0,0.0,0.0,0.0,0.0,0.5811,0.6285,0.7524,0.9166,1.1249,0.997,1.0343,1.2551,1.3113,1.3868,1.48,1.308,1.1788,1.0776,0.8994,0.8201,0.8139,0.7204,0.7338,0.8201,0.8201,0.0,0.0,0.0,0.0,0.0,0.0,0.0,0.0,0.0,0.0,0.0,0.0,0.0,0.9998,0.905,0.8243,0.7688,0.789,0.8633,0.9203,0.8565,0.0,0.0,0.0,0.0,0.0,0.0,0.0,0.0,0.0,0.0,0.0,0.0,0.0,0.0,0.0,0.0,0.0,0.0,0.0,0.0,0.0,0.0,0.0,0.0,0.0,0.0,1.4148,1.4128,1.4122,1.4122,1.4095,1.4088,1.4088,1.4088,1.4242,1.4556,1.4529,1.4529,1.4549,1.4529,1.4382,1.4148,1.4128,1.4128,1.4148,1.4148,1.4148,1.4148,1.4148,1.4135,1.4115,1.4095,1.4255,1.4489,0.0,0.0,0.0,0.0,0.0,0.0,0.0,0.0,0.0,0.0,0.0,0.0,0.0,0.0,0.0,0.0,0.0,0.0,0.0,0.0,0.6478,0.7461,0.8258,0.9451,1.1137,1.1049,1.1955,1.3954,1.4119,1.4331,1.4542,1.3269,1.1871,1.0417,0.9437,0.9004,0.8958,0.8052,0.8183,0.8968,0.8415,0.8201,0.0,0.0,0.0,0.0,0.0,0.0,0.0,0.0,0.8927,0.9417,0.0,0.9392,0.9975,0.8905,0.8338,0.8066,0.7995,0.8692,0.9386,0.912,0.0,0.0,0.0,0.0,0.0,0.0,0.0,0.0,0.0,0.0,0.0,0.0,0.0,0.0,0.0,0.0,0.0,0.0,0.0,0.0,0.0,0.0,0.0,0.0,0.0,0.0,1.4088,1.4088,1.4088,1.4088,1.4088,1.4088,1.4088,1.4088,1.4142,1.4249,1.4249,1.4249,1.4249,1.4249,1.4195,1.4095,1.4282,1.4255,1.4102,1.4282,1.4249,1.4088,1.4088,1.4088,1.4088,1.4088,1.4155,1.4249,0.0,0.0,0.0,0.0,0.0,0.0,0.0,0.0,0.0,0.0,0.0,0.0,0.0,0.0,0.0,0.0,0.0,0.0,0.0,0.5993,0.6648,0.7837,0.8419,0.9399,1.0879,1.162,1.2619,1.384,1.4138,1.4301,1.4283,1.3338,1.2171,1.0828,1.0211,0.9943,0.987,0.8849,0.8849,0.9427,0.8549,0.8201,0.0,0.0,0.0,0.0,0.0,0.0,0.0,0.0,0.8818,0.0,0.0,0.0,0.0,0.9211,0.8948,0.8868,0.8522,0.9049,0.9703,0.0,0.0,0.0,0.0,0.0,0.0,0.0,0.0,0.0,0.0,0.0,0.0,0.0,0.0,0.0,0.0,0.0,0.0,0.0,0.0,0.0,0.0,0.0,0.0,0.0,0.0,0.0,0.0,1.4088,1.4088,1.4088,1.4088,1.4088,1.4088,1.4088,1.4088,1.4088,1.4088,1.4088,1.4088,1.4088,1.4088,1.4095,1.4295,1.4269,1.4102,1.4302,1.4269,1.4088,1.4088,1.4088,1.4088,1.4088,1.4142,1.4222,0.0,0.0,0.0,0.0,0.0,0.0,0.0,0.0,0.0,0.0,0.0,0.0,0.0,0.0,0.0,0.0,0.0,0.0,0.0,0.5739,0.6093,0.6956,0.7837,0.9104,1.0848,1.1601,1.1984,1.2003,1.2958,1.3715,1.4283,1.3328,1.2679,1.2266,1.1333,1.0921,1.0828,0.9497,0.9149,0.9447,0.857,0.8211,0.8211,0.0,0.0,0.0,0.0,0.0,0.0,0.0,0.8885,0.9051,0.0,0.0,0.0,1.019,1.024,1.0205,0.9728,0.9951,0.0,0.0,0.0,0.0,0.0,0.0,0.0,0.0,0.0,0.0,0.0,0.0,0.0,0.0,0.0,0.0,0.0,0.0,0.0,0.0,0.0,0.0,0.0,0.0,0.0,0.0,0.0,0.0,0.0,1.4088,1.4088,1.4088,1.4088,1.4088,1.4088,1.4088,1.4088,1.4088,1.4088,1.4088,1.4088,1.4088,1.4088,1.4088,1.4088,1.4088,1.4088,1.4088,1.4088,1.4088,1.4088,1.4088,1.4088,1.4088,1.4269,1.4516,0.0,0.0,0.0,0.0,0.0,0.0,0.0,0.0,0.0,0.0,0.0,0.0,0.0,0.0,0.0,0.0,0.0,0.0,0.5739,0.5974,0.6361,0.6905,0.7767,0.862,0.947,1.0311,1.148,1.2972,1.3686,1.3965,1.3796,1.2886,1.2411,1.2297,1.2006,1.1705,1.1333,1.0619,1.0384,1.0396,0.9478,0.8937,0.8688,0.0,0.0,0.0,0.0,0.0,0.0,0.0,0.0,0.0,0.0,0.0,0.0,0.9901,0.9947,1.013,0.9656,0.0,0.0,0.0,0.0,0.0,0.0,0.0,0.0,0.0,0.0,0.0,0.0,0.0,0.0,0.0,0.0,0.0,0.0,0.0,0.0,0.0,0.0,0.0,0.0,0.0,0.0,0.0,0.0,0.0,0.0,1.4088,1.4088,1.4088,1.4088,1.4088,1.4088,1.4088,1.4088,1.4088,1.4088,1.4088,1.4088,1.4088,1.4088,1.4088,1.4088,1.4088,1.4088,1.4088,1.4088,1.4088,1.4088,1.4088,1.4088,1.4088,1.4142,1.4215,0.0,0.0,0.0,0.0,0.0,0.0,0.0,0.0,0.0,0.0,0.5757,0.5765,0.0,0.0,0.0,0.5756,0.5756,0.0,0.5701,0.6072,0.6562,0.7155,0.7845,0.8663,0.9677,1.0391,1.1297,1.2411,1.2973,1.3165,1.3072,1.2886,1.2919,1.3105,0.0,1.3012,1.2348,1.1716,1.1354,1.1106,1.0149,0.964,0.9398,0.0,0.0,0.0,0.0,0.0,0.0,0.0,0.0,0.0,0.0,0.0,0.0,0.9839,1.0108,1.0489,1.0524,0.0,0.0,0.0,0.0,0.0,0.0,0.0,0.0,0.0,0.0,0.0,0.0,0.0,0.0,0.0,0.0,0.0,0.0,0.0,0.0,0.0,0.0,0.0,0.0,0.0,0.0,0.0,0.0,0.0,0.0,1.4088,1.4088,1.4088,1.4088,1.4088,1.4088,1.4088,1.4088,1.4088,1.4088,1.4088,1.4088,1.4088,1.4088,1.4088,1.4088,1.4088,1.4088,1.4088,1.4088,1.4088,1.4088,1.4088,1.4088,1.4088,1.4088,1.4088,0.0,0.0,0.2983,0.3552,0.0,0.0,0.0,0.0,0.0,0.5774,0.5728,0.572,0.0,0.0,0.0,0.5692,0.5692,0.5692,0.5682,0.6062,0.6689,0.7558,0.8105,0.916,1.0807,1.1209,1.1199,1.0757,1.1323,1.183,1.2256,1.3082,1.3776,1.4324,0.0,1.4376,1.3473,1.2649,1.1996,1.1467,1.0611,1.0242,1.0149,0.9685,0.0,0.0,0.0,0.0,0.0,0.0,0.0,0.0,0.8751,0.8927,0.9113,0.9867,1.0458,1.1056,0.0,0.0,0.0,0.0,0.0,0.0,0.0,0.0,0.0,0.0,0.0,0.0,0.0,0.0,0.0,0.0,0.0,0.0,0.0,0.0,0.0,0.0,0.0,0.0,0.0,0.0,0.0,0.0,0.0,0.0,0.0,1.4088,1.4088,1.4088,1.4088,1.4088,1.4088,1.4088,1.4088,1.4088,1.4088,1.4088,1.4088,1.4088,1.4088,1.4088,1.4088,1.4088,1.4088,1.4088,1.4088,1.4088,1.4088,1.4088,1.4088,1.4088,1.4088,1.4088,0.0,0.0,0.3069,0.3915,0.0,0.0,0.0,0.0,0.5623,0.5642,0.5633,0.5623,0.5642,0.5633,0.0,0.5623,0.5623,0.5595,0.554,0.5971,0.6609,0.7478,0.8973,0.9943,1.0334,1.0087,0.9901,0.9808,1.1002,1.1643,0.0,0.0,0.0,1.4293,0.0,1.3576,1.3018,1.2514,1.182,1.1024,1.0838,1.052,1.0149,0.9685,0.9247,0.0,0.0,0.0,0.0,0.0,0.0,0.0,0.8751,0.9118,0.935,0.9222,0.9991,1.0869,0.0,0.0,0.0,0.0,0.0,0.0,0.0,0.0,0.0,0.0,0.0,0.0,0.0,0.0,0.0,0.0,0.0,0.0,0.0,0.0,0.0,0.0,0.0,0.0,0.0,0.0,0.0,0.0,0.0,0.0,1.4075,1.4088,1.4088,1.4088,1.4088,1.4088,1.4088,1.4088,1.4088,0.0,1.4088,1.4088,1.4088,1.4088,1.4088,1.4088,1.4088,1.4088,1.4088,1.4088,1.4088,1.4088,1.4088,1.4088,1.4088,1.4088,1.4088,1.4088,0.0,0.0,0.0,0.0,0.0,0.0,0.0,0.0,0.5567,0.5605,0.5594,0.5594,0.5594,0.5594,0.0,0.0,0.5548,0.5634,0.5826,0.6275,0.7116,0.84,0.9571,1.02,1.02,0.9747,0.9493,0.9493,0.0,0.0,0.0,0.0,0.0,1.4293,0.0,1.3545,1.2874,1.2473,1.1882,1.124,1.124,1.0952,1.0479,1.0015,0.9443,0.8834,0.8367,0.0,0.0,0.0,0.0,0.0,0.0,0.0,0.8916,0.9123,0.9681,1.0365,0.0,0.0,0.0,0.0,0.0,0.0,0.0,0.0,0.0,0.0,0.0,0.0,0.0,0.0,0.0,0.0,0.0,0.0,0.0,0.0,0.0,0.0,0.0,0.0,0.0,0.0,0.0,0.0,0.0,1.3527,1.3854,1.3874,1.3941,1.4082,1.4088,1.4088,1.4088,1.4088,1.4088,1.4088,1.4088,1.4015,1.3881,1.4021,1.4088,1.4088,1.4088,1.4088,1.4088,1.4088,1.4088,1.4088,1.4088,1.4088,1.4088,1.4088,1.4088,1.4088,0.0,0.0,0.0,0.0,0.0,0.0,0.0,0.0,0.0,0.5576,0.5586,0.5586,0.5586,0.5586,0.5558,0.0,0.0,0.0,0.6149,0.6774,0.78,0.9324,0.9839,1.0077,1.0077,0.9633,0.9437,0.0,0.0,0.0,0.0,0.0,0.0,1.4304,0.0,1.36,1.275,1.2276,1.1737,1.1239,1.1239,1.1012,1.0592,1.011,0.9489,0.8787,0.8323,0.8158,0.8183,0.8158,0.0,0.0,0.0,0.0,0.8342,0.9056,0.9386,0.9839,0.0,0.0,0.0,0.0,0.0,0.0,0.0,0.0,0.0,0.0,0.0,0.0,0.0,0.0,0.0,0.0,0.0,0.0,0.0,0.0,0.0,0.0,0.0,0.0,0.0,0.0,0.0,0.0,0.0,1.326,1.3513,1.3527,1.364,1.3928,1.3935,1.3935,1.3935,1.3935,1.3935,1.3935,1.3935,1.3808,1.354,1.3821,1.3961,1.4008,1.4008,1.4008,1.4008,1.4008,1.4008,1.4015,1.4068,1.4088,1.4088,1.4088,1.4088,1.4088,0.0,0.0,0.0,0.0,0.0,0.0,0.0,0.0,0.0,0.0,0.5511,0.5511,0.5511,0.5511,0.5511,0.5502,0.5502,0.567,0.6085,0.0,0.0,0.8958,0.9381,0.9585,0.9585,0.9201,0.916,0.0,0.0,0.0,0.0,0.0,0.0,1.4273,0.0,0.0,1.2317,1.1457,1.059,0.9777,0.9777,0.9702,0.9555,0.9078,0.8786,0.8587,0.8102,0.8019,0.8097,0.798,0.8062,0.0,0.0,0.0,0.0,0.8332,0.8916,0.0,0.0,0.0,0.0,0.0,0.0,0.0,0.0,0.0,0.0,0.0,0.0,0.0,0.0,0.0,0.0,0.0,0.0,0.0,0.0,0.0,0.0,0.0,0.0,0.0,0.0,0.0,0.0,0.0,1.3062,1.2985,1.3253,1.3267,1.3287,1.3327,1.3327,1.3327,1.3327,1.3327,1.3327,1.3327,1.3327,1.3307,1.3267,1.3307,1.3467,1.366,1.366,1.366,1.366,1.366,1.366,1.3686,1.3988,1.4088,1.4088,1.4088,1.4088,1.4088,0.0,0.0,0.0,0.0,0.0,0.0,0.0,0.0,0.0,0.0,0.0,0.5982,0.6211,0.6024,0.5878,0.5837,0.5629,0.5785,0.6447,0.7566,0.8408,0.8875,0.9067,0.917,0.917,0.8999,0.8989,0.0,0.0,0.0,0.0,1.1819,1.2628,0.0,0.0,0.0,0.0,0.0,1.0244,0.9808,0.9552,0.9361,0.0,0.0,0.8572,0.8431,0.8034,0.7937,0.7976,0.7912,0.7956,0.8048,0.8082,0.0,0.0,0.0,0.0,0.0,0.0,0.0,0.0,0.0,0.0,0.0,0.0,0.0,0.0,0.0,0.0,0.0,0.0,0.0,0.0,0.0,0.0,0.0,0.0,0.0,0.0,0.0,0.0,0.0,0.0,0.0,0.0,0.0,1.2798,1.2783,1.2978,1.2991,1.3033,1.3206,1.3213,1.3126,1.2991,1.2991,1.2991,1.2991,1.3126,1.312,1.2998,1.3133,1.328,1.336,1.336,1.336,1.3373,1.3533,1.36,1.3613,1.3746,1.3941,1.4068,1.3901,1.3941,1.4088,0.0,0.0,0.0,0.0,0.0,0.0,0.0,0.0,0.0,0.0,0.0,0.646,0.6769,0.0,0.0,0.0,0.5931,0.6159,0.6934,0.7742,0.8357,0.8709,0.872,0.872,0.872,0.872,0.0,0.0,0.0,0.0,1.1591,1.1591,1.2306,0.0,1.2782,0.0,0.0,0.0,0.0,0.0,0.0,0.0,0.0,0.0,0.0,0.0,0.0,0.8078,0.8169,0.7934,0.7869,0.7912,0.8015,0.0,0.0,0.0,0.0,0.0,0.0,0.0,0.0,0.0,0.0,0.0,0.0,0.0,0.0,0.0,0.0,0.0,0.0,0.0,0.0,0.0,0.0,0.0,0.0,0.0,0.0,0.0,0.0,0.0,0.0,0.0,0.0,0.0,1.2483,1.2546,1.2656,1.267,1.2744,1.2866,1.2872,1.2719,1.2449,1.2449,1.2449,1.2449,1.2645,1.2672,1.2569,1.2766,1.2913,1.2986,1.306,1.318,1.3327,1.3387,1.3467,1.3593,1.352,1.3761,1.4041,1.3633,1.3768,1.4075,0.0,0.0,0.0,0.0,0.0,0.0,0.0,0.0,0.0,0.0,0.0,0.6767,0.6798,0.6778,0.6581,0.6137,0.6488,0.6945,0.7431,0.7918,0.8211,0.8243,0.8243,0.0,0.8243,0.0,0.0,0.0,0.0,0.0,1.1591,1.1591,1.2253,1.3399,1.3034,1.2345,1.1399,0.0,0.0,0.0,0.0,0.8409,0.0,0.0,0.0,0.0,0.0,0.0,0.8898,0.8013,0.7802,0.0,0.0,0.0,0.0,0.0,0.0,0.0,0.0,0.0,0.0,0.0,0.0,0.0,0.0,0.0,0.0,0.0,0.0,0.0,0.0,0.0,0.0,0.0,0.0,0.0,0.0,0.0,0.0,0.0,0.0,0.0,0.0,0.0,0.0,0.0,1.2239,1.2191,1.2311,1.2325,1.2204,1.1986,1.1973,1.1797,1.1462,1.1462,1.1462,1.1462,1.1475,1.1657,1.1953,1.1966,1.2127,1.2365,1.2683,1.3093,1.354,1.3065,1.3133,1.3573,1.33,1.3581,1.4015,1.3447,1.3594,1.4048,0.0,0.0,0.0,0.0,0.0,0.0,0.0,0.0,0.0,0.0,0.0,0.0,0.0,0.7431,0.7183,0.7005,0.7152,0.7328,0.7483,0.7928,0.8201,0.8201,0.8201,0.8201,0.8201,0.0,0.0,0.0,0.0,0.9222,1.0723,1.0916,1.1532,1.243,1.2411,1.2341,1.2196,1.0628,0.0,0.0,0.9022,0.8692,0.0,0.0,0.0,0.0,0.0,0.0,0.0,0.0,0.0,0.0,0.0,0.0,0.0,0.0,0.0,0.0,0.0,0.0,0.0,0.0,0.0,0.0,0.0,0.0,0.0,0.0,0.0,0.0,0.0,0.0,0.0,0.0,0.0,0.0,0.0,0.0,0.0,0.0,0.0,0.0,0.0,0.0,0.0,0.0,0.0,1.2013,1.1913,1.1779,1.169,1.159,1.1583,1.1443,1.1149,1.1149,1.1149,1.1149,1.1336,1.1583,1.1906,1.1906,1.2167,1.2623,1.2536,1.2585,1.2779,1.279,1.3025,1.3313,1.3253,1.3567,1.4041,1.3634,1.3741,1.4075,0.0,0.0,0.0,0.0,0.0,0.0,0.0,0.0,0.0,0.0,0.0,0.0,0.0,0.0,0.8111,0.798,0.768,0.7566,0.7721,0.8035,0.8201,0.8201,0.8201,0.8201,0.8201,0.0,0.0,0.0,0.0,0.0,0.0,1.0489,1.1084,1.17,1.1785,1.2033,0.0,0.0,0.0,1.0633,0.0,0.9136,0.967,0.0,0.0,0.0,0.0,0.0,0.0,0.0,0.0,0.0,0.0,0.0,0.0,0.0,0.0,0.0,0.0,0.0,0.0,0.0,0.0,0.0,0.0,0.0,0.0,0.0,0.0,0.0,0.0,0.0,0.0,0.0,0.0,0.0,0.0,0.0,0.0,0.0,0.0,0.0,0.0,0.0,0.0,0.0,0.0,0.0,1.1696,1.156,1.1417,1.1283,1.1189,1.1042,1.0881,1.0881,1.0881,1.0881,1.1042,1.1289,1.1611,1.1677,1.2027,1.2482,1.2345,1.2418,1.2605,1.2636,1.2899,1.334,1.3133,1.348,1.4041,1.36,1.3748,1.4075,0.0,0.0,0.0,0.0,0.0,0.0,0.0,0.0,0.0,0.0,0.0,0.0,0.0,0.0,0.0,0.8979,0.8083,0.7742,0.8201,0.8211,0.8201,0.8201,0.8201,0.8201,0.8201,0.0,0.0,0.0,0.0,0.0,0.0,0.0,1.095,1.1257,1.1277,1.1398,1.1533,0.0,1.0984,1.0901,0.0,0.965,1.0732,0.0,0.0,0.0,1.0516,1.0714,0.0,0.0,0.0,0.0,0.0,0.0,0.0,0.0,0.0,0.0,0.0,0.0,0.0,0.0,0.0,0.0,0.0,0.0,0.0,0.0,0.0,0.0,0.0,0.0,0.0,0.0,0.0,0.0,0.0,0.0,0.0,0.0,0.0,0.0,0.0,0.0,0.0,0.0,1.1801,1.1765,1.1689,1.1676,1.1472,1.0989,1.074,1.0593,1.0593,1.0593,1.0593,1.0593,1.0593,1.0747,1.1015,1.1296,1.159,1.1933,1.2178,1.2639,1.314,1.2545,1.2781,1.352,1.3032,1.3353,1.4015,1.3454,1.3607,1.4055,0.0,0.0,0.0,0.0,0.0,0.0,0.0,0.0,0.0,0.0,0.0,0.0,0.0,0.0,0.9953,0.9857,0.9282,0.8885,0.872,0.8388,0.8201,0.8201,0.8201,0.8201,0.8201,0.0,0.0,0.0,0.0,0.0,0.0,0.0,0.0,0.0,1.0875,1.0908,1.0576,1.0257,0.0,0.0,0.9795,0.9549,0.0,0.0,0.0,0.0,0.0,1.1285,0.0,0.0,1.0801,1.0775,0.0,0.0,0.0,0.0,0.0,0.0,0.8818,0.0,0.0,0.0,0.0,0.0,0.0,1.215,0.0,0.0,0.0,0.0,0.0,0.0,0.0,0.0,0.0,0.0,0.0,0.0,0.0,0.0,0.0,0.0,0.0,0.0,0.0,0.0,1.1534,1.1443,1.14,1.1182,1.0955,1.0713,1.0633,1.0593,1.0593,1.0593,1.0593,1.0593,1.0593,1.0854,1.1275,1.1355,1.1703,1.2184,1.2265,1.2398,1.2545,1.2371,1.2579,1.3065,1.3293,1.3674,1.4095,1.4142,1.4262,1.4355,0.0,0.0,0.0,0.0,0.0,0.0,0.0,0.0,0.0,0.0,0.0,0.0,0.0,0.0,0.0,1.0776,0.9994,0.9379,0.9128,0.8549,0.8187,0.8154,0.8373,0.8491,0.8491,0.0,0.0,0.0,0.0,0.0,0.0,0.0,0.0,0.0,0.0,0.0,0.0,0.0,0.0,0.0,0.9915,0.0,0.0,1.0654,1.0956,0.0,0.0,0.0,1.2589,1.1869,1.1698,0.0,0.0,0.0,0.0,0.0,0.0,0.0,0.0,0.0,0.0,0.0,0.0,0.0,1.1002,1.163,1.2161,0.0,0.0,0.0,0.0,0.0,0.0,0.0,0.0,0.0,0.0,0.0,0.0,0.0,0.0,0.0,0.0,1.2458,1.2358,1.2011,1.1646,1.1365,1.1216,1.0902,1.0681,1.0593,1.0593,1.0593,1.0593,1.0593,1.0593,1.0593,1.0593,1.0767,1.1069,1.1316,1.1677,1.2131,1.2245,1.2371,1.2516,1.2351,1.2516,1.2831,1.328,1.36,1.3941,1.4229,1.4342,1.4315,0.0,0.0,0.8549,0.9427,0.9278,0.0,0.0,0.0,0.0,0.0,0.0,0.0,0.0,0.0,0.0,0.0,1.0489,0.9634,0.946,0.8695,0.8206,0.8082,0.8587,0.887,0.887,0.0,0.0,0.0,0.0,0.0,0.0,0.0,0.0,0.0,0.9511,1.0055,0.0,0.0,0.0,1.0429,0.9851,1.0312,0.0,0.0,1.1184,0.0,1.1334,1.2253,1.3573,1.2852,1.2619,0.0,0.0,0.0,0.0,0.0,1.0296,0.0,0.0,0.0,0.0,0.0,0.0,0.0,1.1481,1.1459,1.1455,0.0,0.0,0.0,0.0,0.0,0.0,0.0,0.0,0.0,0.0,0.0,0.0,0.0,0.0,0.0,1.3412,1.2825,1.2469,1.2448,1.1896,1.1435,1.1122,1.0814,1.0624,1.0593,1.0593,1.0593,1.0593,1.0593,1.0593,1.0593,1.0593,1.0626,1.0707,1.1189,1.1603,1.1966,1.2191,1.2452,1.2717,1.2412,1.2496,1.277,1.3113,1.3373,1.364,1.4015,1.4135,1.4128,0.8052,0.844,0.9036,0.9912,0.0,0.0,0.0,0.0,0.0,0.0,0.0,0.0,0.0,0.0,0.0,0.0,0.0,1.0687,0.9864,0.904,0.8404,0.7961,0.8455,0.8746,0.8746,0.9163,0.0,0.0,0.0,0.0,0.0,0.0,0.0,0.0,0.8929,0.8971,0.0,0.0,0.0,0.968,0.9232,0.0,1.0408,1.069,1.0901,1.1017,1.0932,1.1707,1.2943,0.0,1.3714,1.3328,0.0,0.0,0.0,0.0,0.0,0.0,0.0,0.0,0.0,0.0,0.0,0.0,1.011,1.0411,1.0761,0.0,0.0,0.0,0.0,0.0,0.0,0.0,0.0,0.0,0.0,0.0,0.0,0.0,0.0,0.0,1.2521,1.2425,1.2323,1.2053,1.1614,1.1279,1.1122,1.087,1.0713,1.0593,1.0593,1.0593,1.0593,1.0593,1.0593,1.0593,1.0593,1.0841,1.1263,1.1342,1.1717,1.2218,1.2278,1.2338,1.2385,1.2325,1.2338,1.2465,1.3214,1.3553,1.3666,1.4242,1.4436,1.4402,0.8595,0.8901,0.9557,1.0702,0.0,0.0,0.0,0.0,0.0,0.0,0.0,0.0,0.0,0.0,0.0,0.0,0.0,0.0,0.0,0.0,0.8521,0.8219,0.8744,0.916,0.9395,0.9466,0.952,0.0,0.0,0.0,0.0,0.0,0.0,0.0,0.0,0.0,0.0,0.0,0.9565,0.9754,0.9859,0.0,1.0237,1.0567,1.0744,1.0863,1.1257,1.2309,1.3693,1.4553,1.4518,0.0,0.0,1.3248,1.3098,0.0,1.2224,1.2579,0.0,0.0,0.0,1.1374,0.0,0.0,0.0,1.0456,1.0556,1.1256,0.0,0.0,0.0,0.0,0.0,0.0,0.0,0.0,0.0,0.0,0.0,0.0,0.0,0.0,1.2804,1.2546,1.2149,1.1545,1.1216,1.1076,1.1115,1.0902,1.0744,1.0593,1.0593,1.0593,1.0593,1.0593,1.0593,1.0593,1.0593,1.0747,1.1002,1.1289,1.167,1.2091,1.2238,1.2385,1.2549,1.2365,1.2305,1.2378,1.3094,1.3387,1.346,1.4088,1.4302,1.4282,0.9077,0.935,1.0053,1.1374,0.0,0.0,0.0,0.0,0.0,0.0,0.0,0.0,0.0,0.0,0.0,0.0,0.0,0.0,0.0,0.0,0.0,0.8856,0.9261,0.9701,1.0195,0.9811,0.9729,0.0,0.0,0.0,0.0,0.0,0.0,0.0,0.0,0.0,0.0,0.0,0.0,1.0141,0.0,1.066,1.0272,1.0643,1.075,1.0843,1.1842,1.3144,1.454,1.508,0.0,1.45,1.3914,1.3972,0.0,0.0,0.0,0.0,0.0,0.0,0.0,0.0,0.0,1.1293,0.0,0.0,0.0,1.19,0.0,0.0,0.0,0.0,0.0,0.0,0.0,0.0,0.0,0.0,0.0,0.0,0.0,0.0,0.0,1.2511,1.1831,1.1114,1.0791,1.0756,1.0978,1.0867,1.0744,1.0593,1.0593,1.0593,1.0593,1.0593,1.0593,1.0593,1.0593,1.062,1.0693,1.1129,1.1536,1.1919,1.2118,1.2429,1.2683,1.2405,1.2305,1.2358,1.2906,1.312,1.3193,1.3781,1.4001,1.4008,0.9447,0.9808,1.0435,1.1426,0.0,0.0,0.0,0.0,0.0,0.0,0.0,0.0,0.0,0.0,0.0,0.0,0.0,0.0,1.2782,0.0,0.0,0.0,0.9875,0.9996,1.0532,1.0201,0.9716,0.9051,0.0,0.0,0.0,0.0,0.0,0.0,0.8839,0.0,0.0,0.0,1.0147,0.0,1.0891,1.0627,0.0,1.1078,1.1016,1.0583,1.2287,1.3455,1.4307,0.0,1.4907,1.4827,0.0,1.435,0.0,0.0,0.0,0.0,0.0,0.0,0.0,0.0,1.2441,0.0,0.0,0.0,1.0615,1.0007,0.0,0.0,0.0,0.0,0.0,0.0,0.0,0.0,0.0,0.0,0.0,0.0,0.0,0.0,0.0,1.163,1.104,1.0937,1.0407,1.0265,1.0648,1.0757,1.0744,1.0593,1.0593,1.0593,1.0593,1.0593,1.0593,1.0593,1.0593,1.0727,1.0949,1.1009,1.1343,1.1906,1.194,1.2084,1.2351,1.2318,1.2305,1.2338,1.2703,1.2837,1.2911,1.3474,1.3653,1.3693,0.916,0.9722,1.0415,1.1085,0.0,0.0,0.0,0.0,0.0,0.0,0.0,0.0,0.0,0.0,0.0,0.0,0.0,1.439,0.0,0.0,0.0,0.0,0.0,0.0,1.0985,1.0132,0.9654,0.9593,0.8854,0.0,0.0,0.0,0.0,0.0,0.9649,0.0,1.0735,0.0,0.0,0.0,0.0,0.0,0.0,1.1079,1.1556,1.1915,1.3109,1.3896,1.4545,0.0,1.533,0.0,0.0,0.0,0.0,0.0,0.0,0.0,0.0,0.0,0.0,0.0,0.0,0.0,0.0,0.0,1.0549,0.0,0.0,0.0,0.0,0.0,0.0,0.0,0.0,0.0,0.0,0.0,0.0,0.0,0.0,0.0,0.0,0.0,0.0,0.0,1.0369,1.0221,1.0592,1.0655,1.066,1.0586,1.0593,1.0593,1.0593,1.0593,1.0593,1.0593,1.0593,1.066,1.078,1.0915,1.1216,1.1623,1.1832,1.2037,1.2305,1.2305,1.2305,1.2311,1.2438,1.263,1.2857,1.338,1.36,1.3646,0.8896,0.0,0.0,0.0,0.0,0.0,0.0,0.0,0.0,0.0,0.0,0.0,1.6108,1.6223,0.0,0.0,0.0,1.5781,0.0,0.0,1.2846,0.0,0.0,0.0,0.0,0.0,0.9575,0.9718,0.0,0.0,0.0,0.0,0.0,0.0,0.0,1.099,1.156,0.0,0.0,1.0551,1.1848,1.1856,1.1174,1.1584,1.2405,1.3381,1.4077,1.4666,1.5247,1.6212,1.5772,0.0,1.6076,0.0,0.0,0.0,0.0,0.0,1.4072,0.0,0.0,0.0,0.0,0.0,0.0,0.0,0.0,0.0,0.0,0.0,0.0,0.0,0.0,0.0,0.0,0.0,0.0,0.0,0.0,0.0,0.0,0.0,0.0,0.0,0.0,0.0,0.0,0.9989,1.0339,1.0476,1.0519,1.0466,1.0553,1.0593,1.0593,1.0656,1.0656,1.0593,1.0688,1.0713,1.0656,1.0904,1.1175,1.1512,1.1727,1.2029,1.2305,1.2305,1.2305,1.2305,1.2305,1.2438,1.2737,1.33,1.3487,1.354,0.8896,0.9598,0.0,0.0,0.0,0.0,0.0,0.0,0.0,0.0,0.0,0.0,0.0,0.0,0.0,0.0,0.0,1.9219,1.7949,0.0,1.5293,0.0,0.0,1.2014,0.0,0.0,0.0,0.0,0.0,0.0,0.0,0.0,0.0,0.0,0.0,1.1605,1.2166,1.2307,1.2225,1.2043,1.2004,1.2721,1.3705,0.0,1.355,1.4607,1.5239,0.0,0.0,1.6221,1.6176,0.0,0.0,0.0,0.0,0.0,0.0,0.0,0.0,0.0,0.0,1.2832,0.0,0.0,0.0,0.0,1.156,0.0,0.0,0.0,0.0,0.0,0.0,0.0,0.0,0.0,0.0,0.0,0.0,0.0,0.0,0.0,0.0,0.0,0.0,0.0,0.0,0.0,0.9701,1.0158,1.0332,1.0134,1.0439,1.0593,1.0593,1.0713,1.0713,1.0593,1.094,1.0965,1.0807,1.1003,1.1305,1.1703,1.171,1.1946,1.2305,1.2305,1.2305,1.2305,1.2305,1.2311,1.2392,1.2999,1.3227,1.3307,0.0,0.0,0.0,0.0,0.0,0.0,0.0,1.3415,0.0,0.0,0.0,0.0,0.0,0.0,2.0615,0.0,0.0,2.0234,1.8936,1.751,0.0,0.0,0.0,1.3062,0.0,0.0,0.0,0.0,0.0,0.0,0.0,0.0,0.0,0.0,0.0,1.2314,0.0,0.0,0.0,0.0,0.0,1.294,1.4308,0.0,0.0,1.5135,1.5858,1.6086,0.0,1.7067,1.6841,1.6283,1.6968,1.6569,1.5989,1.6763,1.6595,0.0,0.0,0.0,1.5917,1.3916,0.0,0.0,0.0,0.0,0.0,0.0,0.0,0.0,0.0,0.0,0.0,0.0,0.0,0.0,0.0,0.0,0.0,0.0,0.0,0.0,0.0,0.0,0.0,0.0,0.0,0.0,0.0,1.0122,1.0091,1.0107,1.0439,1.0593,1.0593,1.0656,1.0688,1.0744,1.0839,1.0933,1.0996,1.1059,1.133,1.1703,1.1703,1.194,1.2305,1.2305,1.2305,1.2305,1.2305,1.2305,1.2371,1.2986,1.3213,1.332,1.0694,0.0,0.0,0.0,0.0,0.0,0.0,0.0,0.0,0.0,1.7724,0.0,2.1201,0.0,2.1924,0.0,2.2168,2.1299,1.9881,1.8828,0.0,1.6965,1.5439,0.0,0.0,0.0,0.0,0.0,0.0,1.1215,0.0,0.0,0.0,0.0,0.0,0.0,0.0,0.0,1.2868,0.0,0.0,1.3531,0.0,0.0,1.5075,1.5968,0.0,1.6788,1.6722,1.7687,1.7451,1.6904,1.7744,1.7279,1.6628,1.7494,1.7271,1.6773,1.6686,1.6893,0.0,1.4834,1.4543,0.0,1.2628,0.0,0.0,0.0,0.0,0.0,0.0,0.0,0.0,0.0,0.0,0.0,0.0,0.7576,0.0,0.0,0.0,0.0,0.0,0.0,0.0,0.0,0.0,0.0,0.0,0.0,0.9912,0.9953,1.0385,1.0593,1.0593,1.0656,1.0713,1.0807,1.0926,1.1059,1.1185,1.1247,1.1396,1.1613,1.1723,1.1914,1.2158,1.2258,1.2305,1.2305,1.2305,1.2305,1.2365,1.2859,1.318,1.342,0.0,0.0,0.0,0.0,1.2088,0.0,0.0,0.0,1.6486,0.0,1.8547,1.9779,2.1877,2.2432,2.2998,2.3818,2.3477,0.0,2.0909,2.0264,0.0,0.0,1.7272,1.6775,1.6736,0.0,0.0,0.0,0.0,0.0,0.0,0.0,0.0,0.0,1.3467,0.0,1.3171,1.3738,1.3606,1.306,1.3403,1.4374,1.564,1.5675,1.6202,1.701,1.7725,1.8008,1.8008,1.8008,1.8008,1.8008,1.8008,1.8008,1.8018,1.8037,1.8276,1.834,1.7281,1.7293,1.7236,1.5591,0.0,0.0,0.0,0.0,1.4129,0.0,0.0,0.0,0.0,0.0,0.0,0.0,0.0,0.0,0.0,0.0,0.0,0.0,0.0,0.0,0.0,0.0,0.0,0.0,0.0,0.0,0.0,0.0,0.9784,0.9729,1.0291,1.0593,1.0593,1.0744,1.0807,1.0807,1.1146,1.1303,1.1303,1.1498,1.1577,1.1495,1.1769,1.1902,1.1926,1.2184,1.2305,1.2305,1.2305,1.2305,1.2338,1.269,1.3133,1.3626,1.2172,1.2649,1.3165,0.0,1.3132,1.3065,0.0,0.0,0.0,0.0,2.078,2.248,2.4512,2.4797,2.4953,2.5167,2.4541,0.0,0.0,0.0,0.0,2.0381,1.8919,1.7818,1.7227,1.5703,0.0,1.3986,0.0,0.0,1.3269,0.0,0.0,0.0,0.0,0.0,1.3476,1.3523,1.3493,1.3447,1.4047,1.4537,0.0,0.0,1.6202,1.701,1.7725,1.8008,1.8008,1.8008,1.8008,1.8008,1.8008,1.8008,1.8076,1.8354,1.8295,1.8164,1.8144,1.8032,1.7644,1.6692,1.6187,1.5703,0.0,0.0,0.0,0.0,0.0,0.0,0.0,0.0,0.0,0.0,0.0,0.0,0.0,0.0,0.0,0.0,0.0,0.0,0.0,0.0,0.0,0.0,0.0,0.0,0.0,0.0,0.0,0.9973,1.0399,1.0593,1.0593,1.0744,1.0807,1.0807,1.1146,1.1303,1.1303,1.1498,1.1577,1.1495,1.1769,1.1902,1.1926,1.2184,1.2305,1.2305,1.2305,1.2305,1.2365,1.2899,1.3186,1.3394,1.2896,0.0,0.0,1.4486,0.0,0.0,1.5378,0.0,0.0,2.0068,2.1558,0.0,2.4387,2.5235,2.5693,2.5693,2.4884,0.0,0.0,0.0,0.0,2.0664,2.005,1.9241,1.8232,1.7119,0.0,1.5067,0.0,0.0,1.3597,0.0,0.0,0.0,0.0,1.333,0.0,1.3317,1.3496,1.378,1.4367,0.0,0.0,1.5913,1.6698,1.7442,1.7872,1.8008,1.8008,1.8008,1.8008,1.8008,1.8008,1.8008,1.8057,1.8256,1.8159,1.8057,1.8266,1.8159,1.7891,1.7491,1.7196,1.6794,1.6049,1.6098,1.6248,0.0,0.0,0.0,0.0,0.0,0.0,0.0,0.0,0.0,0.0,0.0,0.0,0.0,0.0,0.0,0.0,0.0,0.0,0.0,0.0,0.0,0.0,0.0,0.0,0.9764,1.0425,1.072,1.0593,1.0841,1.0937,1.0807,1.1146,1.1303,1.1303,1.1498,1.1498,1.1332,1.1607,1.171,1.1697,1.1991,1.2184,1.2305,1.2305,1.2378,1.2559,1.3033,1.3126,1.3093,0.0,0.0,0.0,0.0,0.0,0.0,0.0,1.7686,0.0,2.075,0.0,2.2646,2.3276,2.469,2.5577,2.5528,0.0,2.3887,2.2832,2.2906,2.2175,2.0332,2.0849,2.0615,1.9394,1.8477,0.0,0.0,0.0,0.0,0.0,0.0,0.0,0.0,0.0,0.0,0.0,1.3403,1.389,0.0,1.4746,1.53,1.5953,1.6684,1.7417,1.8036,1.8081,1.8057,1.8008,1.8008,1.8008,1.8008,1.8008,1.8008,1.8008,1.8008,1.8008,1.8008,1.8008,1.8008,1.8008,1.8008,1.8008,1.7836,1.7202,1.7024,1.7098,1.7276,1.6377,1.5904,0.0,0.0,0.0,0.0,0.0,0.0,0.0,0.0,0.0,0.0,0.0,0.0,0.0,0.0,0.0,0.0,0.0,0.0,0.0,0.0,0.0,0.9589,1.0463,1.0888,1.0707,0.0,1.1069,1.0885,1.1157,1.1303,1.1272,1.1541,1.1469,1.1175,1.1486,1.1552,1.151,1.1804,1.2078,1.2305,1.2305,1.2496,1.2764,1.3033,1.3018,1.2871,0.0,0.0,0.0,0.0,0.0,1.8432,2.0192,2.1114,2.1873,2.2621,2.4072,2.498,2.4756,2.5,2.5039,2.4678,2.4189,0.0,0.0,0.0,0.0,2.207,2.1483,2.0752,1.9824,1.8633,1.7465,0.0,0.0,0.0,0.0,0.0,0.0,0.0,0.0,0.0,1.4242,1.4917,0.0,1.6016,1.6369,1.6616,1.6822,1.7252,1.7704,1.8181,1.8405,1.8266,1.8008,1.8008,1.8008,1.8008,1.8008,1.8008,1.8008,1.8008,1.8008,1.8008,1.8008,1.8008,1.8008,1.8008,1.8008,1.7969,1.7846,1.7817,1.7817,1.785,1.7628,1.7261,1.6697,0.0,0.0,0.0,0.0,0.0,0.0,0.0,0.0,0.0,0.0,0.0,0.0,0.0,0.0,0.0,0.0,0.0,0.0,0.0,0.0,0.0,1.0622,0.0,0.0,0.0,1.1004,1.1296,1.1297,1.1247,1.116,1.1703,1.1754,1.1465,1.1991,1.2095,1.181,1.2104,1.2258,1.2305,1.2305,1.2338,1.2418,1.2757,1.2831,1.2871,0.0,0.0,0.0,0.0,0.0,0.0,0.0,2.3334,0.0,2.3242,2.3867,2.4307,2.4147,2.4715,2.5028,2.4775,2.416,2.3877,2.4082,2.3105,2.2412,2.2197,2.1531,0.0,1.9932,1.9316,1.8173,1.6497,0.0,0.0,0.0,0.0,0.0,0.0,0.0,1.4245,0.0,0.0,0.0,1.7018,1.7396,1.7588,1.7683,1.8246,1.8558,1.8783,1.8909,1.8666,1.8266,1.8086,1.8008,1.8008,1.8008,1.8008,1.8008,1.8008,1.8008,1.8008,1.8008,1.8008,1.8008,1.8008,1.8008,1.8008,1.8008,1.8008,1.8008,1.8008,1.7809,1.7298,1.6238,1.5002,0.0,0.0,0.0,0.0,0.0,0.0,0.0,0.0,0.0,0.0,0.0,0.0,0.0,0.0,0.0,0.0,0.0,0.0,0.0,0.0,0.0,0.0,0.0,0.0,0.0,1.11,1.1489,1.1499,1.123,1.1935,1.1966,1.1542,1.1997,1.2081,1.1926,1.2184,1.2305,1.2305,1.2305,1.2305,1.2358,1.2819,1.3025,1.3053,0.0,1.7513,0.0,0.0,2.0853,0.0,2.3032,2.4619,2.5254,2.3887,2.3613,2.3516,2.3482,2.4294,2.4756,2.4668,2.4043,2.3652,2.3652,2.2852,2.2236,2.1904,2.1377,2.0771,2.0068,1.9961,1.8935,0.0,0.0,0.0,0.0,0.0,0.0,0.0,0.0,0.0,0.0,0.0,1.7458,1.8025,1.8303,1.8536,1.8761,1.9232,1.9482,1.9541,1.9355,1.9072,1.8666,1.8184,1.8008,1.8008,1.8008,1.8008,1.8008,1.8008,1.8008,1.8008,1.8008,1.8008,1.8008,1.8008,1.8008,1.8008,1.8008,1.8008,1.8008,1.8008,1.7744,1.7184,1.6059,1.5265,0.0,0.0,0.0,0.0,0.0,0.0,0.0,0.0,0.0,0.0,0.0,0.0,0.0,0.0,0.0,0.0,0.0,0.0,0.0,0.0,0.0,1.0759,1.0776,0.0,1.1329,1.1255,1.1753,1.1844,1.1525,1.2224,1.2212,1.1698,1.2005,1.2067,1.2013,1.2204,1.2305,1.2305,1.2305,1.2305,1.2365,1.2913,1.3113,1.3153,0.0,0.0,0.0,0.0,0.0,0.0,2.3363,2.4722,2.5635,2.5469,2.5137,2.4736,2.4346,2.4062,2.375,2.3305,2.3198,2.3159,2.3159,2.2412,2.1924,2.1885,2.1114,2.0625,2.0546,2.0117,1.9451,0.0,0.0,0.0,0.0,0.0,0.0,0.0,0.0,0.0,0.0,1.7906,1.8595,1.9653,1.9314,1.9681,2.0323,1.9972,2.0098,2.038,1.957,1.9268,1.9102,1.8281,1.8008,1.8008,1.8008,1.8008,1.8008,1.8008,1.8008,1.8008,1.8008,1.8008,1.8008,1.8008,1.8008,1.8008,1.8008,1.8008,1.8008,1.8008,1.7978,1.7625,1.6617,1.6886,1.6805,0.0,0.0,0.0,0.0,0.0,0.0,0.0,0.0,0.0,0.0,0.0,0.0,0.0,0.0,0.0,0.0,0.0,0.0,1.0923,0.0,1.0404,1.14,1.1172,1.1614,1.2682,1.2228,1.2055,1.221,1.2554,1.2551,1.2326,1.2496,1.2458,1.2265,1.2291,1.2305,1.2305,1.2305,1.2305,1.2345,1.2703,1.2831,1.2878,0.0,0.0,0.0,0.0,0.0,0.0,0.0,2.5293,2.5693,2.5693,2.5352,2.5047,2.4824,2.4199,2.3721,2.3545,2.3247,2.3091,2.3091,2.2353,2.1885,2.1885,2.1075,2.0605,2.0605,2.0429,1.983,0.0,0.0,0.0,0.0,0.0,0.0,0.0,0.0,1.7754,1.8611,1.9291,1.9834,2.0331,2.0165,2.0292,2.0586,2.041,2.0449,2.0556,2.0214,1.9727,1.9277,1.918,1.8643,1.8008,1.8008,1.8184,1.8295,1.8086,1.8184,1.8295,1.8076,1.8008,1.8008,1.8008,1.8008,1.8008,1.8008,1.8008,1.8008,1.8008,1.8008,1.7885,1.7465,1.7044,1.6699,0.0,0.0,0.0,0.0,0.0,0.0,0.0,0.0,0.0,0.0,0.0,0.0,0.0,0.0,0.0,0.0,0.0,0.0,1.0494,0.0,1.0811,1.1411,1.1418,1.1744,1.2347,1.2389,1.2434,1.2439,1.2954,1.3006,1.2682,1.2508,1.2378,1.2305,1.2305,1.2305,1.2318,1.2536,1.2603,1.2643,1.2913,1.3026,1.3046,2.2848,0.0,2.2862,0.0,2.4303,2.4428,2.5557,2.5577,2.5537,2.5537,2.5039,2.4736,2.4863,2.4111,2.3603,2.3603,2.3276,2.3091,2.3091,2.2471,2.2012,2.1894,2.1162,0.0,2.0605,2.0605,2.0193,1.9318,1.8404,0.0,0.0,0.0,0.0,0.0,1.8232,1.8954,1.9377,2.0262,2.0605,2.0605,2.0605,2.0605,2.0605,2.0605,2.0605,2.0586,2.0458,1.999,1.9502,1.9668,1.9131,1.8359,1.8232,1.8276,1.8383,1.8242,1.8373,1.8559,1.8428,1.8291,1.8193,1.8193,1.8105,1.8008,1.8008,1.8008,1.8008,1.8008,1.8008,1.8008,1.8008,1.7298,1.6831,1.7129,0.0,0.0,0.0,0.0,0.0,0.0,0.0,1.4182,1.384,0.0,0.0,0.0,0.0,0.0,0.0,0.0,0.0,0.0,0.0,0.0,0.0,1.171,1.202,1.236,1.2685,1.2812,1.2826,1.3172,1.3119,1.279,1.2452,1.2305,1.2305,1.2305,1.2305,1.2325,1.2569,1.2656,1.2683,1.2866,1.2999,1.306,2.3856,2.4083,2.4388,2.5478,2.5664,2.5664,2.5684,2.5361,2.5125,2.5125,2.4336,2.3965,2.4375,2.3617,2.3101,2.3101,2.3101,2.3091,2.3091,2.2744,2.2324,0.0,0.0,2.1016,2.0615,2.0605,2.0595,2.0586,0.0,0.0,1.8749,0.0,1.7494,1.8568,1.8588,1.9346,2.0586,2.0595,2.0605,2.0605,2.0605,2.0605,2.0605,2.0605,2.0605,2.0546,2.0078,1.9912,1.9844,1.9434,1.9287,1.9199,1.8734,1.8315,1.8096,1.8481,1.8598,1.8695,1.916,1.8955,1.8598,1.8598,1.8286,1.8008,1.8008,1.8008,1.8008,1.8008,1.8008,1.8008,1.8008,1.7998,1.7715,1.6843,0.0,0.0,0.0,0.0,0.0,0.0,1.431,1.4301,1.4291,0.0,0.0,0.0,0.0,0.0,0.0,0.0,0.0,1.2477,1.1325,0.0,1.1481,1.1957,1.252,1.3185,1.3185,1.3302,1.3484,1.3083,1.2783,1.2599,1.2378,1.2305,1.2305,1.2305,1.2305,1.2305,1.2305,1.2305,1.2311,1.2311,1.2536,1.275,2.5134,2.5165,2.5292,2.5615,2.5693,2.5693,2.5693,2.5361,2.5116,2.5116,2.4326,2.3838,2.3975,2.3477,2.3091,0.0,2.3091,2.3091,0.0,2.2701,2.2324,2.1904,2.1465,2.1025,2.0615,2.0605,2.0605,2.0605,0.0,0.0,0.0,1.8733,1.9066,1.9951,1.9951,2.0214,2.0605,2.0605,2.0605,2.0605,2.0605,2.0605,2.0605,2.0605,2.0605,2.0586,2.0449,2.0166,1.9941,2.0107,1.9803,1.9316,1.9463,1.9414,1.9277,1.9121,1.9287,1.9473,1.9326,1.9189,1.9014,1.8676,1.85,1.8325,1.8076,1.8008,1.8008,1.8008,1.8008,1.8008,1.8008,1.7773,1.7393,1.6794,1.6475,0.0,0.0,0.0,0.0,0.0,0.0,1.5038,0.0,1.5038,0.0,0.0,0.0,0.0,0.0,0.0,0.0,0.0,1.2377,0.0,1.2062,1.2324,1.2656,1.301,1.3119,1.3309,1.3492,1.3083,1.2863,1.279,1.2452,1.2305,1.2305,1.2305,1.2305,1.2318,1.2563,1.2732,1.2919,1.2919,1.3106,1.3287,2.5732,2.5693,2.5693,2.5693,2.5693,2.5693,2.5693,2.5215,2.4824,2.4824,2.4072,2.3545,2.3545,2.3257,0.0,2.3091,2.3091,2.3091,2.3091,2.2847,2.2559,2.2139,2.1855,2.1514,2.1114,0.0,0.0,2.082,2.0117,1.9853,2.0019,1.9844,2.0096,2.0605,2.0605,2.0605,2.0605,2.0605,2.0605,2.0605,2.0605,2.0605,2.0605,2.0605,2.0605,2.0605,2.0605,2.0429,2.0195,2.0507,2.0253,1.9814,2.0078,2.0156,2.0078,1.9648,1.9707,1.9893,1.9795,1.9648,1.9424,1.8948,1.8724,1.849,1.8105,1.8135,1.8159,1.8047,1.8008,1.8008,1.8008,1.7793,1.7422,1.6794,1.6494,1.6103,1.5498,0.0,0.0,0.0,0.0,0.0,0.0,1.4998,0.0,0.0,0.0,0.0,0.0,0.0,0.0,1.3857,1.3454,0.0,1.2842,1.2739,1.2783,1.29,1.3314,1.352,1.3527,1.3344,1.3205,1.3092,1.279,1.2579,1.2509,1.2509,1.2405,1.2318,1.2543,1.2804,1.3033,1.3033,1.3293,1.3533,2.5693,2.5693,0.0,0.0,2.5693,0.0,2.5693,2.501,2.4463,2.4463,2.3695,2.3179,2.3179,2.3179,2.3169,2.314,0.0,0.0,0.0,2.3091,2.2906,2.2529,2.251,2.2314,2.1894,2.1885,2.167,2.119,2.0781,2.0781,2.1142,2.0762,2.0605,2.0605,2.0605,2.0605,2.0605,2.0605,2.0605,2.0605,2.0605,2.0605,2.0605,2.0605,2.0605,2.0605,2.0605,2.0605,2.0605,2.0605,2.0605,2.0605,2.0605,2.0605,2.0527,2.0078,1.9961,2.0049,2.0488,2.0273,1.9853,1.9434,1.9004,1.8549,1.8193,1.8364,1.8529,1.8144,1.8057,1.8047,1.8018,1.7988,1.7695,1.6833,1.6677,1.6356,1.5537,0.0,0.0,0.0,0.0,0.0,0.0,1.4432,1.469,0.0,0.0,0.0,0.0,0.0,1.4697,1.5905,1.4595,1.3854,1.381,1.3288,1.298,1.2972,1.3679,1.3869,1.3625,1.3761,1.3699,1.3502,1.3279,1.3072,1.2898,1.2898,1.2716,1.2452,1.2502,1.2699,1.3008,1.2952,1.3291,1.375,0.0,0.0,2.5693,2.5693,2.5693,2.5693,2.5693,2.5264,2.4912,2.4912,2.4443,2.4066,2.4066,2.4066,2.3984,2.3662,2.333,2.3091,2.3091,2.3091,2.2906,2.2529,2.251,2.2314,2.1894,2.1885,2.167,2.119,2.0781,2.0664,2.0723,2.0654,2.0605,2.0605,2.0605,2.0605,2.0605,2.0605,2.0605,2.0605,2.0605,2.0605,2.0605,2.0605,2.0605,2.0605,2.0605,2.0605,2.0605,2.0605,2.0605,2.0605,2.0605,2.0605,2.0586,2.0478,2.0449,2.0478,2.0576,2.0527,2.0341,1.9873,1.9443,1.9102,1.9004,1.9062,1.9014,1.8539,1.8451,1.8354,1.8066,1.7744,1.7353,1.6785,1.6445,1.6035,1.5488,1.5693,0.0,0.0,1.5938,1.6113,1.6113,1.584,1.5507,0.0,0.0,0.0,0.0,1.566,1.5848,1.6421,1.5965,1.5411,1.4843,1.4258,1.3895,1.3752,1.3908,1.3992,1.3984,1.386,1.3699,1.3502,1.3279,1.3377,1.3636,1.3636,1.3815,1.4093,1.4398,1.4712,1.4965,1.455,1.5054,1.5718,2.5917,2.5781,2.5693,2.5693,2.5693,2.5693,2.5693,2.5361,2.5116,2.5116,2.4687,2.4414,2.4414,2.4414,2.4326,2.4092,2.3682,2.3305,2.311,2.3091,2.2994,2.2769,2.275,2.2652,2.2461,2.2461,2.2246,2.1775,2.1182,2.0869,2.0869,2.0703,2.0605,2.0615,2.0781,2.0752,2.0615,2.0781,2.0752,2.0605,2.0605,2.0605,2.0605,2.0605,2.0605,2.0605,2.0605,2.0605,2.0605,2.0605,2.0605,2.0605,2.0605,2.0605,2.0605,2.0605,2.0605,2.0605,2.0605,2.0605,2.0498,2.0019,1.9746,1.9521,1.9336,1.9434,1.9453,1.9023,1.8936,1.8809,1.8344,1.8115,1.7754,1.7129,1.6547,1.6146,1.6016,1.5929,0.0,1.6318,1.6758,1.7031,1.7031,1.6982,1.6711,1.6106,1.6183,0.0,1.6633,1.7012,1.7316,1.7504,1.6997,1.6625,1.6432,1.574,1.5181,1.4782,1.5356,1.5382,1.4939,1.5391,1.5452,1.5213,1.51,1.5144,1.5272,1.5173,1.5199,1.5315,1.5413,1.5671,1.5936,1.5643,1.6042,1.6544,2.6149,2.5917,2.5732,2.583,2.5781,2.5781,2.583,2.5554,2.5308,2.5308,2.4984,2.4702,2.4656,2.4656,2.4636,2.4521,2.4189,2.3769,2.3227,2.3198,2.3169,2.3091,2.3091,2.3091,2.3091,2.3033,2.2828,2.251,2.1609,2.119,2.1181,2.0781,2.0605,2.0625,2.1035,2.0986,2.0635,2.1045,2.0977,2.0605,2.0605,2.0605,2.0605,2.0605,2.0605,2.0605,2.0605,2.0605,2.0605,2.0605,2.0605,2.0605,2.0605,2.0605,2.0615,2.0683,2.0664,2.0605,2.0605,2.0605,2.0517,2.0107,2.0019,1.9922,1.9561,1.9756,1.9893,1.9473,1.9385,1.9228,1.8695,1.8598,1.8286,1.7376,1.6796,1.6482,1.6535,0.0,1.6136,1.6794,1.7305,1.7598,1.7666,1.793,1.7978,1.7695,1.7939,1.8135,1.8203,1.851,1.8724,1.8792,1.7965,1.7661,1.7933,1.7219,1.6485,1.5798,1.6746,1.6789,1.6006,1.7049,1.7423,1.7302,1.7302,1.7199,1.7047,1.6859,1.6652,1.6442,1.6319,1.6425,1.6665,1.6563,1.6766,1.7066,2.64,2.6024,2.583,2.6314,2.6207,2.61,2.6352,2.634,2.63,2.63,2.624,2.6094,2.5844,2.5844,2.56,2.5047,2.4949,2.4531,2.374,2.3691,2.3525,2.311,2.3091,2.3091,2.3091,2.275,2.2578,2.251,2.1609,2.119,2.1181,2.0781,2.0605,2.0625,2.1035,2.0986,2.0635,2.1045,2.0977,2.0605,2.0605,2.0605,2.0605,2.0605,2.0605,2.0605,2.0605,2.0605,2.0605,2.0605,2.0605,2.0605,2.0605,2.0605,2.0674,2.1016,2.0859,2.0605,2.0605,2.0605,2.0586,2.0517,2.0507,2.0488,2.0419,2.0458,2.038,1.9902,1.9814,1.957,1.8744,1.8598,1.8115,1.6689,1.6914,1.688,1.592,0.0,1.7298,1.7754,1.8149,1.8584,1.8955,1.8721,1.8662,1.8965,1.8711,1.8666,1.9072,1.915,1.9346,1.9707,1.9219,1.8699,1.8175,1.7643,1.6937,1.6126,1.5965,1.6055,1.6316,1.6527,1.687,1.7302,1.7302,1.7479,1.7833,1.7795,1.789,1.8053,1.8382,1.845,1.8279,1.788,1.8235,1.8687,2.6699,2.6304,2.61,2.6448,2.6486,2.638,2.6294,2.64,2.6448,2.6294,2.64,2.64,2.6149,2.61,2.5925,2.5439,2.543,2.5264,2.4863,2.418,2.3594,2.311,2.3091,2.3091,2.3091,2.2906,2.2744,2.251,2.1894,2.1582,2.1582,2.1133,2.1055,2.1339,2.1728,2.168,2.1349,2.1738,2.1533,2.0928,2.0928,2.0781,2.0605,2.0605,2.0605,2.0605,2.0605,2.0605,2.0605,2.0605,2.0723,2.0928,2.0928,2.1084,2.1359,2.1523,2.1435,2.1212,2.0732,2.0957,2.1261,2.0986,2.1103,2.1319,2.1319,2.1094,2.0869,2.0625,2.043,2.0068,1.9407,1.9104,1.873,1.8031,1.7452,0.0,0.0,1.7383,1.7727,1.8271,1.889,1.9404,1.9609,1.9658,1.9658,1.9629,1.9407,1.9377,1.9609,1.9619,1.9824,2.0254,2.0116,1.982,1.9516,1.9278,1.8718,1.7851,1.8147,1.8175,1.7965,1.8439,1.8789,1.9067,1.9067,1.9203,1.9388,1.9271,1.9217,1.924,1.9273,1.9192,1.9015,1.8784,1.8935,1.9173,2.6996,2.6582,2.638,2.664,2.6726,2.662,2.6342,2.6448,2.6496,2.6245,2.6448,2.6448,2.6149,2.6149,2.6062,2.5732,2.5693,2.5645,2.5586,2.4639,2.3935,2.3603,2.3354,2.3198,2.3091,2.3091,2.2935,2.2656,2.2236,2.2031,2.2021,2.1592,2.1562,2.1894,2.2217,2.2187,2.1904,2.2227,2.1924,2.119,2.119,2.0967,2.0605,2.0605,2.0605,2.0605,2.0605,2.0674,2.0723,2.0723,2.1016,2.1346,2.1346,2.1611,2.1904,2.2002,2.21,2.1982,2.1153,2.1407,2.1807,2.1434,2.1641,2.1885,2.1885,2.1621,2.1346,2.1346,2.1113,2.0781,2.0303,1.9873,1.9529,1.9226,0.0,0.0,0.0,1.8296,1.8355,1.8994,1.9756,2.0264,2.0361,2.0674,2.0732,2.04,2.0371,2.0332,2.0225,2.0215,2.0322,2.0595,2.0605,2.0605,2.0605,2.0507,2.0032,1.9301,1.9876,1.9837,1.9301,1.9971,2.0401,2.0605,2.0605,2.0605,2.0605,2.0411,2.0177,1.9863,1.9715,1.9508,1.9301,1.9301,1.9301,1.9301,2.7214,2.6832,2.664,2.7167,2.7034,2.69,2.6853,2.6853,2.6747,2.6496,2.6699,2.6651,2.6149,2.6294,2.6265,2.5732,2.5693,2.5557,2.5194,2.5077,2.5008,2.4969,2.417,2.3555,2.3101,2.3091,2.3081,2.3052,2.2676,2.2471,2.2461,2.2031,2.1855,2.1885,2.1924,2.1914,2.1885,2.1924,2.166,2.119,2.119,2.0967,2.0605,2.0605,2.0605,2.0605,2.0605,2.083,2.1142,2.1142,2.1475,2.1836,2.1836,2.1865,2.1963,2.2353,2.2744,2.2818,2.2012,2.1836,2.1875,2.1846,2.1865,2.1885,2.1885,2.1865,2.1836,2.1836,2.1807,2.166,2.1181,2.0771,2.0154,1.9029,0.0,0.0,1.8301,1.9095,1.9902,2.041,2.085,2.1259,2.1699,2.1768,2.1777,2.1738,2.1738,2.1562,2.1122,2.1093,2.0957,2.0615,2.0605,2.0605,2.0605,2.0166,1.9736,1.9292,1.8916,1.8935,1.9301,1.9381,1.9854,2.0605,2.0605,2.0605,2.0605,2.0566,2.0294,1.9902,1.9863,1.9627,1.9301,1.9301,1.9301,1.9301,2.7262,2.7119,2.7071,2.7262,2.7214,2.7081,2.6948,2.69,2.6805,2.6544,2.6602,2.6496,2.6149,2.6352,2.6255,2.5732,2.5868,2.5966,2.5928,2.5419,2.4951,2.4678,2.4355,2.3984,2.3555,2.3545,2.3408,2.3091,2.2715,2.2646,2.2847,2.2471,2.2412,2.2656,2.2656,2.2656,2.2656,2.2656,2.2422,2.2021,2.2021,2.1768,2.1427,2.1427,2.1427,2.1348,2.1084,2.126,2.1592,2.1288,2.1699,2.2275,2.2275,2.2451,2.2652,2.2808,2.2974,2.3023,2.2711,2.2656,2.2598,2.2344,2.2471,2.2656,2.2656,2.2461,2.2275,2.2275,2.207,2.1836,2.167,2.1279,2.0908,2.0771,0.0,2.0106,2.0057,2.043,2.0752,2.0957,2.1367,2.1699,2.1865,2.1885,2.1885,2.1885,2.1885,2.1816,2.165,2.1346,2.1112,2.0986,2.0752,2.0605,2.0605,2.0439,2.0246,2.0089,1.9927,1.9927,2.0089,2.0089,2.0294,2.0605,2.0605,2.0605,2.0605,2.0605,2.0411,2.0137,1.9942,1.9745,1.9478,1.9478,1.9478,1.9478,2.7309,2.7309,2.7309,2.7309,2.7309,2.7214,2.6948,2.6853,2.6699,2.64,2.6342,2.6294,2.61,2.6352,2.6352,2.5975,2.6062,2.6181,2.63,2.5664,2.5019,2.4443,2.4551,2.4355,2.3799,2.3789,2.3574,2.3091,2.2808,2.2808,2.3091,2.2799,2.2818,2.3091,2.2955,2.2974,2.3081,2.2955,2.273,2.251,2.251,2.2266,2.1885,2.1885,2.1885,2.1846,2.1553,2.1719,2.2041,2.1738,2.2077,2.2672,2.2672,2.2867,2.3091,2.3091,2.3091,2.3091,2.3091,2.3091,2.3023,2.2783,2.2886,2.3091,2.3091,2.2877,2.2672,2.2672,2.248,2.2275,2.2275,2.1924,2.1697,2.2031,2.1465,2.1084,2.1396,2.1512,2.16,2.16,2.2012,2.2275,2.2275,2.2275,2.2275,2.2275,2.2275,2.2217,2.209,2.1502,2.119,2.119,2.0801,2.0605,2.0605,2.0605,2.0605,2.0605,2.0605,2.0605,2.0605,2.0605,2.0605,2.0605,2.0605,2.0605,2.0605,2.0605,2.0489,2.0264,2.0108,1.9912,1.9676,1.9676,1.9676,1.9676,2.7309,2.7309,2.7309,2.7309,2.7309,2.7214,2.6948,2.6699,2.64,2.6149,2.61,2.61,2.61,2.6352,2.6496,2.6496,2.6245,2.61,2.61,2.5868,2.5294,2.4463,2.4844,2.4724,2.3818,2.3799,2.3584,2.3101,2.3101,2.3101,2.3101,2.3101,2.3101,2.3081,2.2662,2.2711,2.3062,2.2652,2.2519,2.2519,2.2519,2.2266,2.1894,2.1894,2.1894,2.1894,2.1894,2.2158,2.2519,2.251,2.275,2.3091,2.3091,2.3091,2.3091,2.3091,2.3091,2.3091,2.3091,2.3091,2.3091,2.3091,2.3091,2.3091,2.3091,2.3091,2.3091,2.3091,2.3091,2.3091,2.3091,2.275,2.2519,2.2519,2.2168,2.1894,2.1894,2.2256,2.2519,2.2519,2.2838,2.3091,2.3091,2.3091,2.3091,2.3091,2.3091,2.2916,2.2539,2.1668,2.121,2.121,2.081,2.0615,2.0615,2.0605,2.0605,2.0605,2.0605,2.0605,2.0605,2.0605,2.0605,2.0605,2.0605,2.0605,2.0605,2.0605,2.0489,2.0303,2.0303,2.0147,1.9902,1.9902,1.9902,1.9863,2.7309,2.7309,2.7309,2.7309,2.7309,2.7262,2.7167,2.6938,2.6699,2.64,2.64,2.6255,2.5868,2.641,2.6651,2.6245,2.6294,2.6207,2.583,2.5732,2.5567,2.5304,2.5469,2.5273,2.4697,2.4734,2.4326,2.3594,2.3887,2.3887,2.3594,2.3594,2.3594,2.3574,2.3101,2.2974,2.3091,2.2964,2.2906,2.2906,2.2906,2.2838,2.2721,2.2721,2.2721,2.2734,2.2432,2.2598,2.2867,2.2607,2.275,2.3091,2.3091,2.3091,2.3091,2.3091,2.3091,2.3091,2.3091,2.3091,2.3091,2.3091,2.3091,2.3091,2.3091,2.3091,2.3091,2.3091,2.3091,2.3091,2.3091,2.2994,2.2906,2.2906,2.2808,2.2721,2.2721,2.2828,2.2906,2.2906,2.3023,2.3091,2.3091,2.3091,2.3091,2.3091,2.3091,2.3042,2.2916,2.2432,2.2129,2.2129,2.1416,2.1182,2.1494,2.0918,2.0605,2.0605,2.0605,2.0605,2.0605,2.0605,2.0605,2.0605,2.0605,2.0605,2.0605,2.0605,2.0566,2.0489,2.0342,2.0264,2.0186,2.0186,2.0186,2.0186,2.7262,2.7444,2.7521,2.7521,2.7521,2.7521,2.7521,2.7147,2.6805,2.6544,2.64,2.6255,2.6024,2.6458,2.6699,2.6582,2.6544,2.6255,2.5742,2.5693,2.5693,2.5693,2.5693,2.5527,2.5125,2.5116,2.4727,2.4043,2.4287,2.4287,2.4043,2.4043,2.3945,2.3779,2.3691,2.351,2.3398,2.3398,2.3398,2.3379,2.33,2.3188,2.312,2.3374,2.3443,2.3369,2.3105,2.3184,2.333,2.2857,2.3003,2.3315,2.3149,2.3218,2.3315,2.3149,2.3091,2.3091,2.3091,2.3091,2.3091,2.3091,2.3091,2.3091,2.3091,2.3091,2.3091,2.3091,2.3091,2.3091,2.3091,2.3091,2.3091,2.3091,2.3091,2.3091,2.3091,2.3091,2.3091,2.3091,2.3091,2.3091,2.3091,2.3091,2.3091,2.3091,2.3091,2.3091,2.3091,2.2744,2.251,2.251,2.1846,2.1621,2.1885,2.1398,2.1036,2.083,2.083,2.0732,2.0605,2.0605,2.0605,2.0605,2.0605,2.0605,2.0605,2.0605,2.0605,2.0605,2.0459,2.042,2.042,2.042,2.042,2.042,2.7314,2.7645,2.7886,2.7976,2.7945,2.7924,2.7924,2.7369,2.6853,2.6544,2.6342,2.6294,2.6448,2.6544,2.6736,2.7214,2.6832,2.6314,2.583,2.5732,2.5732,2.5732,2.5684,2.5547,2.5184,2.5213,2.4951,2.4473,2.459,2.459,2.4473,2.4512,2.4307,2.3916,2.4268,2.4209,2.3893,2.3848,2.3893,2.3854,2.3693,2.3481,2.3345,2.3959,2.4063,2.3893,2.3893,2.3893,2.3789,2.3344,2.3516,2.3779,2.3335,2.3525,2.3769,2.3325,2.3208,2.3208,2.3208,2.3208,2.3198,2.3159,2.3179,2.3188,2.311,2.3091,2.3091,2.3091,2.3091,2.3091,2.3091,2.3091,2.3091,2.3091,2.3091,2.3091,2.3091,2.3091,2.3091,2.3091,2.3091,2.3091,2.3091,2.3091,2.3091,2.3091,2.3091,2.3091,2.3091,2.273,2.2568,2.2568,2.2158,2.1963,2.2002,2.1963,2.1728,2.1249,2.1249,2.1055,2.0664,2.0664,2.0644,2.0605,2.0605,2.0605,2.0605,2.0605,2.0605,2.0605,2.0605,2.0605,2.0605,2.0605,2.0605,2.0566,2.7717,2.7852,2.8038,2.84,2.8162,2.7924,2.7924,2.7503,2.7023,2.6544,2.6832,2.6822,2.6245,2.6726,2.7071,2.6986,2.69,2.6651,2.6362,2.611,2.6004,2.6004,2.583,2.5645,2.5596,2.5928,2.5713,2.4969,2.5947,2.5928,2.4941,2.5283,2.5215,2.4822,2.4531,2.4457,2.4562,2.4379,2.4379,2.4562,2.4554,2.4469,2.4479,2.4816,2.48,2.4562,2.4562,2.447,2.4268,2.417,2.4199,2.4258,2.417,2.4199,2.4258,2.417,2.4141,2.4141,2.4141,2.4141,2.4062,2.373,2.3896,2.3919,2.3247,2.3091,2.3091,2.3091,2.3091,2.3091,2.3091,2.3091,2.3091,2.3091,2.3091,2.3091,2.3091,2.3091,2.3091,2.3091,2.3091,2.3091,2.3091,2.3091,2.3091,2.3091,2.3091,2.3091,2.3091,2.3013,2.2955,2.2955,2.2598,2.2539,2.2818,2.2539,2.2168,2.1748,2.1748,2.1514,2.1094,2.1094,2.0898,2.0605,2.0605,2.0605,2.0605,2.0605,2.0605,2.0605,2.0605,2.0605,2.0605,2.0605,2.0605,2.0605,2.7782,2.81,2.8328,2.8566,2.8411,2.8183,2.7955,2.7541,2.7167,2.6747,2.6938,2.6938,2.6544,2.6842,2.7034,2.69,2.69,2.6805,2.6496,2.6352,2.6294,2.6294,2.6014,2.5868,2.5868,2.6211,2.6162,2.5703,2.6387,2.6475,2.5996,2.6035,2.581,2.5381,2.5146,2.4979,2.4913,2.4773,2.4876,2.5146,2.5029,2.4985,2.5061,2.5512,2.549,2.5249,2.5156,2.4832,2.4414,2.4414,2.4551,2.4687,2.4482,2.456,2.4687,2.4473,2.4414,2.4414,2.4414,2.4414,2.4365,2.4141,2.4248,2.4248,2.3594,2.3447,2.3447,2.3447,2.3237,2.3091,2.3091,2.3266,2.3379,2.313,2.3276,2.3379,2.312,2.3091,2.3091,2.3091,2.3091,2.3091,2.3091,2.3091,2.3091,2.3091,2.3091,2.3091,2.3091,2.3091,2.3091,2.3091,2.2886,2.2877,2.3091,2.2877,2.2705,2.248,2.2275,2.1963,2.1543,2.1288,2.1103,2.0869,2.0693,2.0605,2.0605,2.0605,2.0605,2.0605,2.0605,2.0605,2.0605,2.0605,2.0605,2.0605,2.7809,2.8361,2.8752,2.8835,2.8721,2.8483,2.81,2.7593,2.7214,2.6948,2.6948,2.6948,2.69,2.6948,2.6948,2.69,2.6948,2.6842,2.6602,2.6554,2.6496,2.6554,2.6245,2.61,2.6149,2.6281,2.6329,2.6279,2.6426,2.6641,2.6904,2.6631,2.626,2.5801,2.5918,2.5712,2.5281,2.5428,2.56,2.5702,2.5568,2.551,2.5597,2.617,2.6235,2.5943,2.5812,2.528,2.4685,2.4685,2.493,2.5117,2.4756,2.4893,2.5107,2.4746,2.4639,2.4639,2.4639,2.4639,2.4629,2.4551,2.458,2.4531,2.4102,2.3955,2.3896,2.3896,2.3603,2.3315,2.3315,2.3652,2.3779,2.3374,2.3603,2.3662,2.3257,2.314,2.3091,2.3091,2.3091,2.3091,2.3091,2.3091,2.3091,2.3091,2.3091,2.3091,2.3091,2.3091,2.3091,2.3091,2.3091,2.3091,2.3091,2.3091,2.3091,2.3091,2.274,2.2402,2.1982,2.1621,2.1375,2.1278,2.0869,2.0684,2.0713,2.0635,2.0605,2.0605,2.0605,2.0605,2.0605,2.0605,2.0605,2.0605,2.8063,2.8725,2.9332,2.9735,2.9145,2.8597,2.8535,2.78,2.7214,2.6948,2.7081,2.7177,2.6948,2.7129,2.7177,2.69,2.7129,2.7119,2.6842,2.6651,2.6602,2.6853,2.6352,2.6197,2.6448,2.6267,2.6054,2.5771,2.6572,2.6777,2.6484,2.6787,2.6709,2.6318,2.6912,2.6715,2.6003,2.6765,2.6913,2.6626,2.6762,2.683,2.6897,2.7054,2.6989,2.6761,2.6713,2.6365,2.5874,2.5874,2.5779,2.5586,2.5528,2.5557,2.5586,2.5528,2.5508,2.5508,2.5508,2.5508,2.5421,2.5078,2.5273,2.5439,2.5047,2.46,2.4336,2.4336,2.4287,2.4238,2.4238,2.4287,2.4316,2.4248,2.3984,2.3769,2.3711,2.3379,2.3091,2.3091,2.3091,2.3091,2.3091,2.3091,2.3091,2.3091,2.3091,2.3091,2.3091,2.3091,2.3091,2.3091,2.3091,2.3091,2.3091,2.3091,2.3091,2.3091,2.3033,2.2789,2.2432,2.2363,2.2139,2.1777,2.1338,2.1103,2.1073,2.0723,2.0605,2.0605,2.0605,2.0605,2.0605,2.0605,2.0605,2.0605,2.8452,2.8757,2.9063,2.9528,2.927,2.8825,2.8307,2.81,2.7782,2.7191,2.7335,2.7397,2.716,2.7214,2.7119,2.6699,2.7071,2.7177,2.69,2.6938,2.7023,2.7129,2.6736,2.6602,2.6699,2.6294,2.611,2.6169,2.6507,2.6816,2.71,2.7041,2.7051,2.7151,2.7133,2.704,2.6844,2.7231,2.7482,2.7582,2.7438,2.7435,2.7562,2.761,2.7431,2.716,2.7262,2.7225,2.7052,2.6655,2.6577,2.6556,2.5879,2.5908,2.6055,2.5762,2.5693,2.5693,2.5693,2.5693,2.5635,2.5488,2.5596,2.5635,2.5488,2.5293,2.504,2.4834,2.459,2.4414,2.4414,2.4619,2.4697,2.4453,2.4463,2.4336,2.3857,2.3623,2.3408,2.312,2.3305,2.3408,2.312,2.3091,2.3198,2.3486,2.3227,2.3198,2.3486,2.3227,2.3091,2.3091,2.3091,2.3091,2.3091,2.3091,2.3091,2.3091,2.3091,2.3003,2.2808,2.2617,2.2412,2.2197,2.1483,2.119,2.1161,2.0752,2.0605,2.0605,2.0605,2.0605,2.0605,2.0605,2.0605,2.0605]}]]